[[{"header":{"parameterUnit":"m.s-1","parameterCategory":1,"la1":30.6,"la2":28.766,"lo1":-90.7593,"lo2":-88.6598,"dy":0.0162,"dx":0.0183,"nx":116,"ny":114,"refTime":"2024-02-12T06:00:00:Z","depth":0,"parameterNumber":2,"parameterNumberName":"U-component_of_WINDS"},"data":[0.0,0.0,0.0,0.0,0.0,0.0,0.0,0.0,0.0,0.0,0.0,0.0,0.0,0.0,0.0,0.0,0.0,0.0,0.0,0.0,0.0,0.0,0.0,0.0,0.0,0.0,0.0,0.0,0.0,0.0,0.0,0.0,0.0,0.0,0.0,0.0,0.0,0.0,0.0,0.0,0.0,0.0,0.0,0.0,0.0,0.0,0.0,0.0,0.0,0.0,0.0,0.0,0.0,0.0,0.0,0.0,0.0,0.0,0.0,0.0,0.0,0.0,0.0,0.0,0.0,0.0,0.0,0.0,0.0,0.0,0.0,0.0,0.0,0.0,0.0,0.0,0.0,0.0,0.0,0.0,0.0,0.0,0.0,0.0,0.0,0.0,0.0,0.0,0.0,0.0,0.0,0.0,0.0,0.0,0.0,0.0,0.0,0.0,0.0,0.0,0.0,0.0,0.0,0.0,0.0,0.0,0.0,0.0,0.0,0.0,0.0,0.0,0.0,0.0,0.0,0.0,0.0,0.0,0.0,0.0,0.0,0.0,0.0,0.0,0.0,0.0,0.0,0.0,0.0,0.0,0.0,0.0,0.0,0.0,0.0,0.0,0.0,0.0,0.0,0.0,0.0,0.0,0.0,0.0,0.0,0.0,0.0,0.0,0.0,0.0,0.0,0.0,0.0,0.0,0.0,0.0,0.0,0.0,0.0,0.0,0.0,0.0,0.0,0.0,0.0,0.0,0.0,0.0,0.0,0.0,0.0,0.0,0.0,0.0,0.0,0.0,0.0,0.0,0.0,0.0,0.0,0.0,0.0,0.0,0.0,0.0,0.0,0.0,0.0,0.0,0.0,0.0,0.0,0.0,0.0,0.0,0.0,0.0,0.0,0.0,0.0,0.0,0.0,0.0,0.0,0.0,0.0,0.0,0.0,0.0,0.0,0.0,0.0,0.0,0.0,0.0,0.0,0.0,0.0,0.0,0.0,0.0,0.0,0.0,0.0,0.0,0.0,0.0,0.0,0.0,0.0,0.0,0.0,0.0,0.0,0.0,0.0,0.0,0.0,0.0,0.0,0.0,0.0,0.0,0.0,0.0,0.0,0.0,0.0,0.0,0.0,0.0,0.0,0.0,0.0,0.0,0.0,0.0,0.0,0.0,0.0,0.0,0.0,0.0,0.0,0.0,0.0,0.0,0.0,0.0,0.0,0.0,0.0,0.0,0.0,0.0,0.0,0.0,0.0,0.0,0.0,0.0,0.0,0.0,0.0,0.0,0.0,0.0,0.0,0.0,0.0,0.0,0.0,0.0,0.0,0.0,0.0,0.0,0.0,0.0,0.0,0.0,0.0,0.0,0.0,0.0,0.0,0.0,0.0,0.0,0.0,0.0,0.0,0.0,0.0,0.0,0.0,0.0,0.0,0.0,0.0,0.0,0.0,0.0,0.0,0.0,0.0,0.0,0.0,0.0,0.0,0.0,0.0,0.0,0.0,0.0,0.0,0.0,0.0,0.0,0.0,0.0,0.0,0.0,0.0,0.0,0.0,0.0,0.0,0.0,0.0,0.0,0.0,0.0,0.0,0.0,0.0,0.0,0.0,0.0,0.0,0.0,0.0,0.0,0.0,0.0,0.0,0.0,0.0,0.0,0.0,0.0,0.0,0.0,0.0,0.0,0.0,0.0,0.0,0.0,0.0,0.0,0.0,0.0,0.0,0.0,0.0,0.0,0.0,0.0,0.0,0.0,0.0,0.0,0.0,0.0,0.0,0.0,0.0,0.0,0.0,0.0,0.0,0.0,0.0,0.0,0.0,0.0,0.0,0.0,0.0,0.0,0.0,0.0,0.0,0.0,0.0,0.0,0.0,0.0,0.0,0.0,0.0,0.0,0.0,0.0,0.0,0.0,0.0,0.0,0.0,0.0,0.0,0.0,0.0,0.0,0.0,0.0,0.0,0.0,0.0,0.0,0.0,0.0,0.0,0.0,0.0,0.0,0.0,0.0,0.0,0.0,0.0,0.0,0.0,0.0,0.0,0.0,0.0,0.0,0.0,0.0,0.0,0.0,0.0,0.0,0.0,0.0,0.0,0.0,0.0,0.0,0.0,0.0,0.0,0.0,0.0,0.0,0.0,0.0,0.0,0.0,0.0,0.0,0.0,0.0,0.0,0.0,0.0,0.0,0.0,0.0,0.0,0.0,0.0,0.0,0.0,0.0,0.0,0.0,0.0,0.0,0.0,0.0,0.0,0.0,0.0,0.0,0.0,0.0,0.0,0.0,0.0,0.0,0.0,0.0,0.0,0.0,0.0,0.0,0.0,0.0,0.0,0.0,0.0,0.0,0.0,0.0,0.0,0.0,0.0,0.0,0.0,0.0,0.0,0.0,0.0,0.0,0.0,0.0,0.0,0.0,0.0,0.0,0.0,0.0,0.0,0.0,0.0,0.0,0.0,0.0,0.0,0.0,0.0,0.0,0.0,0.0,0.0,0.0,0.0,0.0,0.0,0.0,0.0,0.0,0.0,0.0,0.0,0.0,0.0,0.0,0.0,0.0,0.0,0.0,0.0,0.0,0.0,0.0,0.0,0.0,0.0,0.0,0.0,0.0,0.0,0.0,0.0,0.0,0.0,0.0,0.0,0.0,0.0,0.0,0.0,0.0,0.0,0.0,0.0,0.0,0.0,0.0,0.0,0.0,0.0,0.0,0.0,0.0,0.0,0.0,0.0,0.0,0.0,0.0,0.0,0.0,0.0,0.0,0.0,0.0,0.0,0.0,0.0,0.0,0.0,0.0,0.0,0.0,0.0,0.0,0.0,0.0,0.0,0.0,0.0,0.0,0.0,0.0,0.0,0.0,0.0,0.0,0.0,0.0,0.0,0.0,0.0,0.0,0.0,0.0,0.0,0.0,0.0,0.0,0.0,0.0,0.0,0.0,0.0,0.0,0.0,0.0,0.0,0.0,0.0,0.0,0.0,0.0,0.0,0.0,0.0,0.0,0.0,0.0,0.0,0.0,0.0,0.0,0.0,0.0,0.0,0.0,0.0,0.0,0.0,0.0,0.0,0.0,0.0,0.0,0.0,0.0,0.0,0.0,0.0,0.0,0.0,0.0,0.0,0.0,0.0,0.0,0.0,0.0,0.0,0.0,0.0,0.0,0.0,0.0,0.0,0.0,0.0,0.0,0.0,0.0,0.0,0.0,0.0,0.0,0.0,0.0,0.0,0.0,0.0,0.0,0.0,0.0,0.0,0.0,0.0,0.0,0.0,0.0,0.0,0.0,0.0,0.0,0.0,0.0,0.0,0.0,0.0,0.0,0.0,0.0,0.0,0.0,0.0,0.0,0.0,0.0,0.0,0.0,0.0,0.0,0.0,0.0,0.0,0.0,0.0,0.0,0.0,0.0,0.0,0.0,0.0,0.0,0.0,0.0,0.0,0.0,0.0,0.0,0.0,0.0,0.0,0.0,0.0,0.0,0.0,0.0,0.0,0.0,0.0,0.0,0.0,0.0,0.0,0.0,0.0,0.0,0.0,0.0,0.0,0.0,0.0,0.0,0.0,0.0,0.0,0.0,0.0,0.0,0.0,0.0,0.0,0.0,0.0,0.0,0.0,0.0,0.0,0.0,0.0,0.0,0.0,0.0,0.0,0.0,0.0,0.0,0.0,0.0,0.0,0.0,0.0,0.0,0.0,0.0,0.0,0.0,0.0,0.0,0.0,0.0,0.0,0.0,0.0,0.0,0.0,0.0,0.0,0.0,0.0,0.0,0.0,0.0,0.0,0.0,0.0,0.0,0.0,0.0,0.0,0.0,0.0,0.0,0.0,0.0,0.0,0.0,0.0,0.0,0.0,0.0,0.0,0.0,0.0,0.0,0.0,0.0,0.0,0.0,0.0,0.0,0.0,0.0,0.0,0.0,0.0,0.0,0.0,0.0,0.0,0.0,0.0,0.0,0.0,0.0,0.0,0.0,0.0,0.0,0.0,0.0,0.0,0.0,0.0,0.0,0.0,0.0,0.0,0.0,0.0,0.0,0.0,0.0,0.0,0.0,0.0,0.0,0.0,0.0,0.0,0.0,0.0,0.0,0.0,0.0,0.0,0.0,0.0,0.0,0.0,0.0,0.0,0.0,0.0,0.0,0.0,0.0,0.0,0.0,0.0,0.0,0.0,0.0,0.0,0.0,0.0,0.0,0.0,0.0,0.0,0.0,0.0,0.0,0.0,0.0,0.0,0.0,0.0,0.0,0.0,0.0,0.0,0.0,0.0,0.0,0.0,0.0,0.0,0.0,0.0,0.0,0.0,0.0,0.0,0.0,0.0,0.0,0.0,0.0,0.0,0.0,0.0,0.0,0.0,0.0,0.0,0.0,0.0,0.0,0.0,0.0,0.0,0.0,0.0,0.0,0.0,0.0,0.0,0.0,0.0,0.0,0.0,0.0,0.0,0.0,0.0,0.0,0.0,0.0,0.0,0.0,0.0,0.0,0.0,0.0,0.0,0.0,0.0,0.0,0.0,0.0,0.0,0.0,0.0,0.0,0.0,0.0,0.0,0.0,0.0,0.0,0.0,0.0,0.0,0.0,0.0,0.0,0.0,0.0,0.0,0.0,0.0,0.0,0.0,0.0,0.0,0.0,0.0,0.0,0.0,0.0,0.0,0.0,0.0,0.0,0.0,0.0,0.0,0.0,0.0,0.0,0.0,0.0,0.0,0.0,0.0,0.0,0.0,0.0,0.0,0.0,0.0,0.0,0.0,0.0,0.0,0.0,0.0,0.0,0.0,0.0,0.0,0.0,0.0,0.0,0.0,0.0,0.0,0.0,0.0,0.0,0.0,0.0,0.0,0.0,0.0,0.0,0.0,0.0,0.0,0.0,0.0,0.0,0.0,0.0,0.0,0.0,0.0,0.0,0.0,0.0,0.0,0.0,0.0,0.0,0.0,0.0,0.0,0.0,0.0,0.0,0.0,0.0,0.0,0.0,0.0,0.0,0.0,0.0,0.0,0.0,0.0,0.0,0.0,0.0,0.0,0.0,0.0,0.0,0.0,0.0,0.0,0.0,0.0,0.0,0.0,0.0,0.0,0.0,0.0,0.0,0.0,0.0,0.0,0.0,0.0,0.0,0.0,0.0,0.0,0.0,0.0,0.0,0.0,0.0,0.0,0.0,0.0,0.0,0.0,0.0,0.0,0.0,0.0,0.0,0.0,0.0,0.0,0.0,0.0,0.0,0.0,0.0,0.0,0.0,0.0,0.0,0.0,0.0,0.0,0.0,0.0,0.0,0.0,0.0,0.0,0.0,0.0,0.0,0.0,0.0,0.0,0.0,0.0,0.0,0.0,0.0,0.0,0.0,0.0,0.0,0.0,0.0,0.0,0.0,0.0,0.0,0.0,0.0,0.0,0.0,0.0,0.0,0.0,0.0,0.0,0.0,0.0,0.0,0.0,0.0,0.0,0.0,0.0,0.0,0.0,0.0,0.0,0.0,0.0,0.0,0.0,0.0,0.0,0.0,0.0,0.0,0.0,0.0,0.0,0.0,0.0,0.0,0.0,0.0,0.0,0.0,0.0,0.0,0.0,0.0,0.0,0.0,0.0,0.0,0.0,0.0,0.0,0.0,0.0,0.0,0.0,0.0,0.0,0.0,0.0,0.0,0.0,0.0,0.0,0.0,0.0,0.0,0.0,0.0,0.0,0.0,0.0,0.0,0.0,0.0,0.0,0.0,0.0,0.0,0.0,0.0,0.0,0.0,0.0,0.0,0.0,0.0,0.0,0.0,0.0,0.0,0.0,0.0,0.0,0.0,0.0,0.0,0.0,0.0,0.0,0.0,0.0,0.0,0.0,0.0,0.0,0.0,0.0,0.0,0.0,0.0,0.0,0.0,0.0,0.0,0.0,0.0,0.0,0.0,0.0,0.0,0.0,0.0,0.0,0.0,0.0,0.0,0.0,0.0,0.0,0.0,0.0,0.0,0.0,0.0,0.0,0.0,0.0,0.0,0.0,0.0,0.0,0.0,0.0,0.0,0.0,0.0,0.0,0.0,0.0,0.0,0.0,0.0,0.0,0.0,0.0,0.0,0.0,0.0,0.0,0.0,0.0,0.0,0.0,0.0,0.0,0.0,-0.4074,0.0,0.0,0.0,0.0,0.0,0.0,0.0,0.0,0.0,0.0,0.0,0.0,0.0,0.0,0.0,0.0,0.0,0.0,0.0,0.0,0.0,0.0,0.0,0.0,0.0,0.0,0.0,-1.0488,-1.0518,-1.0312,-1.0684,-1.0821,-1.0596,-1.0802,-1.1017,-1.1242,-1.1242,-1.1359,-1.1606,-1.1606,-1.1468,-1.1163,-0.9999,-0.9405,-0.9305,0.0,0.0,0.0,0.0,0.0,0.0,0.0,0.0,0.0,0.0,0.0,0.0,0.0,0.0,0.0,0.0,0.0,0.0,0.0,0.0,0.0,0.0,0.0,0.0,0.0,0.0,0.0,0.0,0.0,0.0,0.0,0.0,0.0,0.0,0.0,0.0,0.0,0.0,0.0,0.0,0.0,0.0,0.0,0.0,0.0,0.0,0.0,0.0,0.0,0.0,0.0,0.0,0.0,0.0,0.0,0.0,0.0,0.0,0.0,0.0,0.0,0.0,0.0,0.0,0.0,0.0,0.0,0.0,0.0,0.0,0.0,-0.4329,0.0,0.0,0.0,0.0,0.0,0.0,0.0,0.0,0.0,0.0,0.0,0.0,0.0,0.0,0.0,0.0,0.0,0.0,0.0,0.0,0.0,0.0,0.0,-1.041,-1.044,-1.0518,-1.082,-1.0869,-1.0547,-1.1204,-1.1418,-1.1035,-1.1389,-1.1623,-1.1702,-1.1702,-1.1731,-1.1832,-1.2057,-1.2239,-1.2363,-1.1019,-1.0438,-1.0504,0.0,0.0,0.0,0.0,0.0,0.0,0.0,0.0,0.0,0.0,0.0,0.0,0.0,0.0,0.0,0.0,0.0,0.0,0.0,0.0,0.0,0.0,0.0,0.0,0.0,0.0,0.0,0.0,0.0,0.0,0.0,0.0,0.0,0.0,0.0,0.0,0.0,0.0,0.0,0.0,0.0,0.0,0.0,0.0,0.0,0.0,0.0,0.0,0.0,0.0,0.0,0.0,0.0,0.0,0.0,0.0,0.0,0.0,0.0,0.0,0.0,0.0,0.0,0.0,-0.5507,-0.5463,-0.5463,-0.5463,-0.5176,-0.4683,-0.4253,-0.424,-0.4587,0.0,0.0,0.0,0.0,0.0,0.0,0.0,0.0,0.0,0.0,0.0,0.0,0.0,0.0,0.0,0.0,0.0,0.0,0.0,0.0,0.0,0.0,-1.082,-1.0977,-1.14,-1.1489,-1.1498,-1.1439,-1.1538,-1.1577,-1.1518,-1.1577,-1.176,-1.2106,-1.2116,-1.2334,-1.2729,-1.3844,-1.4767,-1.5487,-1.4132,-1.3525,-1.3395,-1.0458,0.0,0.0,0.0,0.0,0.0,0.0,0.0,0.0,0.0,0.0,0.0,0.0,0.0,0.0,0.0,0.0,0.0,0.0,0.0,0.0,0.0,0.0,0.0,0.0,0.0,0.0,0.0,0.0,0.0,0.0,0.0,0.0,0.0,0.0,0.0,0.0,0.0,0.0,0.0,0.0,0.0,0.0,0.0,-0.6173,-0.6704,0.0,0.0,0.0,0.0,0.0,0.0,0.0,0.0,0.0,0.0,0.0,0.0,0.0,0.0,-0.726,-0.7067,-0.6943,-0.6848,-0.6338,-0.6094,-0.6094,-0.6094,-0.6046,-0.5951,-0.5879,0.0,-0.5195,-0.5265,0.0,0.0,0.0,0.0,0.0,0.0,0.0,0.0,0.0,0.0,0.0,0.0,0.0,0.0,0.0,0.0,0.0,0.0,0.0,0.0,0.0,-1.1504,-1.1621,-1.1606,-1.27,-1.2886,-1.1685,-1.2719,-1.2964,-1.1982,-1.2191,-1.2416,-1.2588,-1.2598,-1.3037,-1.3972,-1.4869,-1.5701,-1.6464,-1.5754,-1.4944,-1.4039,-1.259,-1.1192,-0.99,-0.9479,0.0,0.0,0.0,0.0,0.0,0.0,0.0,0.0,0.0,0.0,0.0,0.0,0.0,0.0,0.0,0.0,0.0,0.0,0.0,0.0,0.0,0.0,0.0,0.0,0.0,0.0,0.0,0.0,0.0,0.0,0.0,0.0,0.0,0.0,0.0,0.0,0.0,0.0,0.0,-0.6456,-0.6626,-0.6562,-0.681,-0.7,0.0,0.0,0.0,0.0,0.0,0.0,0.0,0.0,0.0,-0.7964,-0.7816,-0.7583,-0.7268,-0.7157,-0.6924,-0.6599,-0.6328,-0.6207,-0.6207,-0.6207,-0.6207,-0.6207,-0.6207,-0.624,-0.6287,-0.5867,-0.5697,-0.5735,0.0,0.0,0.0,0.0,0.0,-0.6089,0.0,0.0,0.0,0.0,0.0,0.0,0.0,0.0,0.0,0.0,0.0,0.0,-1.1995,-1.2549,-1.2793,-1.2592,-1.404,-1.417,-1.2367,-1.3551,-1.373,-1.2428,-1.2705,-1.2905,-1.2905,-1.3228,-1.4079,-1.5478,-1.6243,-1.7061,-1.7923,-1.7246,-1.6282,-1.5161,-1.4434,-1.2777,-1.0528,-1.0013,-0.9586,0.0,0.0,0.0,0.0,0.0,0.0,0.0,0.0,0.0,0.0,0.0,0.0,0.0,0.0,0.0,0.0,0.0,0.0,0.0,0.0,0.0,0.0,0.0,0.0,0.0,0.0,0.0,0.0,0.0,0.0,0.0,0.0,0.0,0.0,0.0,0.0,0.0,0.0,-0.6682,-0.6787,-0.6441,-0.6903,-0.72,0.0,0.0,0.0,0.0,0.0,0.0,-0.8741,-0.8928,-0.8928,-0.8765,-0.8721,-0.8356,-0.7703,-0.7869,-0.7697,-0.7118,-0.6957,-0.6864,-0.6864,-0.6864,-0.6864,-0.6864,-0.6864,-0.7012,-0.7204,-0.6449,-0.5859,-0.5448,-0.5757,-0.5826,-0.5712,-0.5588,-0.5809,-0.6149,0.0,0.0,0.0,0.0,0.0,0.0,0.0,0.0,0.0,0.0,0.0,-1.1553,-1.3223,-1.416,-1.4805,-1.5186,-1.5322,-1.4962,-1.4036,-1.3359,-1.2964,-1.2876,-1.2895,-1.2905,-1.2905,-1.4099,-1.5557,-1.7288,-1.85,-1.9777,-2.0955,-1.9129,-1.8267,-1.8046,-1.5317,-1.3252,-1.1745,-1.0575,-1.0241,-1.0336,0.0,0.0,0.0,0.0,0.0,0.0,0.0,0.0,0.0,0.0,0.0,0.0,0.0,0.0,0.0,0.0,0.0,0.0,0.0,0.0,0.0,0.0,0.0,0.0,0.0,0.0,0.0,0.0,0.0,0.0,0.0,0.0,0.0,0.0,0.0,0.0,0.0,0.0,0.0,-0.6927,-0.749,0.0,0.0,0.0,0.0,-0.7879,-0.8508,-0.8881,-0.8881,-0.9489,-0.9557,-0.8904,-1.0164,-1.035,-0.9281,-0.9971,-1.0102,-0.9607,-0.898,-0.8679,-0.8679,-0.8679,-0.8679,-0.8679,-0.8679,-0.8304,-0.7623,-0.6883,-0.689,-0.7323,-0.7047,-0.6929,-0.6852,-0.6349,-0.6184,-0.6149,0.0,0.0,0.0,0.0,0.0,0.0,0.0,0.0,-1.0962,-1.1693,-1.2039,-1.2832,-1.4551,-1.5518,-1.6211,-1.6641,-1.7145,-1.6736,-1.504,-1.4678,-1.4268,-1.3685,-1.3174,-1.3287,-1.4109,-1.5371,-1.6885,-1.8603,-2.0185,-2.1338,-2.2029,-2.1597,-2.049,-1.8797,-1.7767,-1.593,-1.3474,-1.1904,-1.0868,-1.019,-0.9346,-0.841,0.0,0.0,0.0,0.0,0.0,0.0,0.0,0.0,0.0,0.0,0.0,0.0,0.0,0.0,0.0,0.0,0.0,0.0,0.0,0.0,0.0,0.0,0.0,0.0,0.0,0.0,0.0,0.0,0.0,0.0,0.0,0.0,0.0,0.0,0.0,0.0,0.0,-0.7839,-0.7892,0.0,0.0,-0.8549,-0.8686,-0.8266,-0.9392,-1.007,-0.9923,-1.0293,-1.0623,-1.0952,-1.1186,-1.1128,-1.0755,-1.0588,-1.0249,-0.9788,-0.9106,-0.8804,-0.8804,-0.8804,-0.8804,-0.8804,-0.8804,-0.8646,-0.8363,-0.7934,-0.7382,-0.6756,-0.6484,-0.6287,-0.6124,-0.575,-0.5974,-0.646,0.0,0.0,0.0,0.0,0.0,0.0,0.0,0.0,-1.1449,-1.2204,-1.2769,-1.3799,-1.5654,-1.6863,-1.7898,-1.8696,-1.8651,-1.7874,-1.6216,-1.5249,-1.4453,-1.374,-1.3594,-1.4079,-1.5224,-1.6777,-1.8369,-1.9941,-2.1387,-2.2314,-2.2691,-2.2553,-2.153,-1.9802,-1.8868,-1.733,-1.5318,-1.354,-1.2024,-1.0795,-1.0107,-0.9057,-0.7752,0.0,0.0,0.0,0.0,0.0,0.0,0.0,0.0,0.0,0.0,0.0,0.0,0.0,0.0,0.0,0.0,0.0,0.0,0.0,0.0,0.0,0.0,0.0,0.0,0.0,0.0,0.0,0.0,0.0,0.0,0.0,0.0,0.0,0.0,0.0,-0.8094,-0.8496,-0.8517,-0.8557,-0.8657,-0.9181,-0.942,-0.9244,-1.0436,-1.1239,-1.1385,-1.1721,-1.2079,-1.2438,-1.2544,-1.2369,-1.1851,-1.1517,-1.107,-1.0466,-0.9562,-0.9133,-0.914,-0.891,-0.8936,-0.9133,-0.9133,-0.9133,-0.9119,-0.895,-0.821,-0.7166,-0.6788,-0.6558,-0.6412,-0.6248,-0.6543,-0.7085,0.0,0.0,0.0,0.0,0.0,0.0,0.0,-1.1748,-1.1859,-1.2267,-1.304,-1.4375,-1.6502,-1.8326,-1.9912,-2.1293,-1.9686,-1.8308,-1.7525,-1.4986,-1.334,-1.2983,-1.4177,-1.5273,-1.6173,-1.8277,-1.9971,-2.1239,-2.2119,-2.2744,-2.3047,-2.1889,-2.1337,-2.1185,-1.8481,-1.7259,-1.7086,-1.53,-1.3707,-1.2258,-1.0788,-0.9392,-0.8122,0.0,0.0,0.0,0.0,0.0,0.0,0.0,0.0,0.0,0.0,0.0,0.0,0.0,0.0,0.0,0.0,0.0,0.0,0.0,0.0,0.0,0.0,0.0,0.0,0.0,0.0,0.0,0.0,0.0,0.0,0.0,0.0,0.0,-0.8422,-0.8651,-0.8838,-0.8858,-0.9352,-0.9586,-0.9264,-0.9548,-1.007,-1.085,-1.1559,-1.2319,-1.3077,-1.3774,-1.3828,-1.3177,-1.4239,-1.4094,-1.2604,-1.2941,-1.2697,-1.1807,-1.0482,-0.9847,-0.9814,-0.9159,-0.9211,-0.9788,-0.9788,-0.9788,-0.9762,-0.9762,-0.9387,-0.8751,-0.8145,-0.7919,-0.7919,-0.7912,-0.7912,-0.7965,0.0,0.0,0.0,0.0,0.0,0.0,0.0,-1.1949,-1.1981,-1.2707,-1.3758,-1.5254,-1.7422,-1.9561,-2.092,-2.1222,-2.0027,-1.858,-1.7039,-1.4767,-1.373,-1.4265,-1.5224,-1.6584,-1.8394,-1.9627,-2.085,-2.2116,-2.2662,-2.2984,-2.3091,-2.2765,-2.2129,-2.1239,-1.9607,-1.8392,-1.7466,-1.5853,-1.4796,-1.4144,-1.2656,-1.1012,-0.932,0.0,0.0,0.0,0.0,0.0,0.0,0.0,0.0,0.0,0.0,0.0,0.0,0.0,0.0,0.0,0.0,0.0,0.0,0.0,0.0,0.0,0.0,0.0,0.0,0.0,0.0,0.0,0.0,0.0,0.0,0.0,0.0,-0.8978,-0.8978,-0.9259,-0.9628,-1.0057,-1.0033,-0.9967,-0.985,-1.0739,-1.1182,-1.0927,-1.2512,-1.3542,-1.3587,-1.423,-1.4662,-1.4754,-1.5061,-1.4895,-1.4187,-1.3812,-1.3177,-1.23,-1.1453,-1.0843,-1.0517,-1.0338,-1.009,-0.9788,-0.9788,-0.951,-0.9087,-0.9087,-0.8962,-0.8771,-0.8397,-0.825,-0.823,-0.7985,-0.8045,-0.8297,0.0,0.0,0.0,0.0,0.0,0.0,0.0,-1.2066,-1.2131,-1.2635,-1.4084,-1.5674,-1.7262,-1.9386,-2.071,-2.0719,-1.9538,-1.8166,-1.6616,-1.4986,-1.4424,0.0,0.0,-1.8208,-1.9822,-2.085,-2.1836,-2.273,-2.2974,-2.3091,-2.3091,-2.3091,-2.2731,-2.1987,-2.08,-1.9579,-1.8349,-1.6982,-1.598,-1.5244,-1.4298,-1.2777,-1.0977,-0.9889,-0.8878,-0.7912,-0.6552,-0.6193,-0.6184,-0.5287,0.0,0.0,0.0,0.0,0.0,0.0,0.0,0.0,0.0,0.0,0.0,0.0,0.0,0.0,0.0,0.0,0.0,0.0,0.0,0.0,0.0,0.0,0.0,0.0,-0.9519,-0.988,-1.009,-1.0094,-1.0298,-1.0888,-1.0768,-1.0589,-1.0494,-1.1099,-1.1585,-1.177,-1.3087,-1.4141,-1.4741,-1.5283,-1.5625,-1.5684,-1.5684,-1.54,-1.4823,-1.4202,-1.3595,-1.2896,-1.205,-1.1481,-1.1216,-1.0939,-1.0737,0.0,-1.0644,-1.0415,-1.0064,-1.0064,-0.9891,0.0,0.0,0.0,0.0,0.0,-0.8404,-0.8577,0.0,0.0,0.0,0.0,0.0,0.0,0.0,-1.2074,-1.2267,-1.2383,-1.4112,-1.5625,-1.6463,-1.8448,-1.9745,-1.98,-1.8564,-1.736,-1.626,-1.5363,0.0,-1.6408,-1.8394,-1.9891,-2.0801,-2.1973,-2.2721,-2.3091,-2.3091,-2.3091,-2.3091,-2.3149,-2.314,-2.3047,-2.1946,-2.0699,-1.9405,-1.8272,-1.7026,-1.5758,-1.5545,-1.4391,-1.2758,-1.1739,-1.0412,-0.8961,-0.8268,-0.72,-0.6047,-0.5641,0.0,0.0,0.0,0.0,0.0,0.0,0.0,0.0,0.0,0.0,0.0,0.0,0.0,0.0,0.0,0.0,0.0,0.0,0.0,0.0,0.0,0.0,0.0,0.0,-1.0305,-1.0881,-1.1362,-1.1062,-1.0968,-1.1382,-1.1442,-1.1363,-1.1069,-1.1234,-1.1858,-1.3026,-1.3641,-1.4613,-1.6102,0.0,0.0,0.0,0.0,-1.5772,-1.496,-1.4475,-1.4036,-1.3617,-1.2563,-1.2031,-1.1961,-1.1342,-1.1316,-1.1789,-1.1789,-1.1765,-1.169,-1.1616,-1.1191,-1.0466,-0.9335,-0.8956,-0.9008,-0.8857,-0.8857,0.0,0.0,0.0,0.0,0.0,0.0,0.0,0.0,-1.2056,-1.2076,-1.276,-1.4068,-1.5098,-1.5615,-1.8121,-1.9286,-1.8038,-1.785,-1.7168,-1.5667,0.0,-1.6299,-1.8564,-1.9764,-2.0928,-2.2109,-2.2672,-2.3013,-2.3091,-2.3091,-2.3091,-2.3101,-2.3496,-2.3477,-2.3076,-2.2547,-2.1307,-1.9422,-1.8566,-1.726,-1.5778,-1.5718,-1.4724,-1.3231,-1.2681,-1.1411,-0.9795,-0.8731,-0.8129,-0.7716,-0.6535,-0.6163,-0.6084,-0.5576,0.0,0.0,0.0,0.0,0.0,0.0,0.0,0.0,0.0,0.0,0.0,0.0,0.0,0.0,0.0,0.0,0.0,0.0,0.0,0.0,-1.0338,-1.0882,-1.1383,-1.173,-1.1891,-1.1924,-1.1832,-1.1784,-1.167,-1.1335,-1.2628,-1.3623,-1.3884,-1.525,-1.6246,-1.657,-1.7021,0.0,-1.659,-1.657,-1.6348,-1.585,-1.5381,-1.4951,-1.4531,0.0,0.0,-1.3157,-1.2697,-1.2246,-1.1789,-1.1789,-1.1491,-1.0939,-1.0415,-0.9788,-0.9211,-0.9484,-0.9935,-1.0287,-0.9211,-0.9133,-0.9543,0.0,0.0,0.0,0.0,0.0,0.0,0.0,-1.1339,-1.1552,-1.2204,-1.3376,-1.4307,-1.4699,-1.6398,-1.7162,-1.6314,-1.6145,-1.5986,0.0,-1.6348,-1.7773,-2.0156,-2.1084,-2.2041,-2.3125,-2.3359,-2.3564,-2.3734,-2.3734,-2.3734,-2.3744,-2.4004,-2.3877,-2.3442,-2.2649,-2.1272,-1.9413,-1.8411,-1.7134,-1.5784,-1.5784,-1.5316,-1.46,-1.4365,-1.3348,-1.1964,-1.1304,-1.0143,-0.8792,-0.7915,-0.7093,-0.6419,-0.5861,-0.544,-0.5098,0.0,0.0,0.0,0.0,0.0,0.0,0.0,0.0,0.0,0.0,0.0,0.0,0.0,0.0,-0.9599,0.0,0.0,-1.0748,-1.1336,-1.1832,-1.2191,-1.2498,-1.2665,-1.2592,-1.2138,-1.2084,-1.2186,-1.2325,-1.3184,-1.3819,-1.4065,-1.5083,-1.5856,-1.629,-1.6759,-1.7007,-1.7038,-1.7061,-1.6846,-1.6406,-1.5742,-1.5312,-1.5088,-1.4416,-1.3997,-1.3782,-1.3389,-1.2999,-1.2635,-1.2438,-1.2172,-1.1816,-1.1493,-1.1141,-1.0812,-1.0448,-1.0287,-1.0218,-0.9536,-0.9718,-1.0236,0.0,0.0,0.0,0.0,0.0,0.0,0.0,-1.0695,-1.1077,-1.1558,-1.264,-1.3486,-1.3714,-1.4527,-1.5058,-1.5141,-1.4581,0.0,0.0,-1.7566,-1.9134,-2.1463,-2.2353,-2.3125,-2.3896,-2.3906,-2.4072,-2.4414,-2.4414,-2.4414,-2.4414,-2.4502,-2.4268,-2.3754,-2.3018,-2.1536,-1.9512,-1.8675,-1.7363,-1.5912,-1.5852,-1.5784,-1.5771,-1.5718,-1.4953,-1.3885,-1.3631,-1.1877,-0.9563,-0.8979,-0.7863,-0.6598,-0.6088,-0.5708,-0.5453,-0.5064,-0.5141,0.0,0.0,0.0,0.0,0.0,0.0,0.0,0.0,0.0,-0.9435,-0.961,-0.995,-1.0381,-1.0969,-1.1316,-1.1703,-1.2291,-1.2723,-1.3025,-1.318,-1.326,-1.3093,-1.2545,-1.2574,-1.2806,-1.3163,-1.35,-1.3862,-1.4279,-1.479,-1.5436,-1.6257,-1.667,-1.7067,-1.751,-1.7422,-1.7217,-1.6833,-1.5977,-1.5537,-1.5527,-1.464,-1.4231,-1.4221,-1.3792,-1.3633,-1.3578,-1.3184,-1.2949,-1.2826,-1.2826,-1.279,-1.2632,-1.1507,-1.0803,-1.0405,-0.9962,-1.0218,-1.0788,0.0,0.0,0.0,0.0,0.0,0.0,0.0,0.0,-1.1083,-1.1623,-1.2448,-1.2822,-1.2457,-1.3665,-1.4687,-1.5238,-1.4254,0.0,-1.8371,-1.8561,-1.9835,-2.276,-2.3389,-2.3867,-2.4336,-2.4346,-2.4365,-2.4414,-2.4414,-2.4414,-2.4424,-2.4814,-2.456,-2.3838,-2.4858,-2.3272,-1.989,-2.0266,-1.8839,-1.6199,-1.5939,-1.5784,-1.5751,-1.5545,-1.4788,-1.3814,-1.328,-1.1802,-0.9946,-0.8854,-0.8032,-0.7343,-0.6493,-0.6091,-0.5807,-0.5241,0.0,-0.5188,-0.6197,-0.6929,-0.727,-0.6704,-0.7378,-0.8066,0.0,0.0,-0.9918,-0.9599,-1.0065,-1.072,-1.1235,-1.1617,-1.2047,-1.2636,-1.3173,-1.3427,-1.324,-1.3393,-1.3433,-1.3146,-1.362,-1.3692,-1.2948,-1.4141,-1.5018,-1.5083,-1.5878,-1.6789,-1.7726,-1.7799,-1.7876,-1.7939,-1.7578,-1.7363,-1.7314,-1.6467,-1.6016,-1.6007,-1.5146,-1.4717,-1.4697,-1.4231,-1.4036,-1.4016,-1.3623,-1.3097,-1.2547,-1.2547,-1.2405,-1.217,-1.2024,-1.2271,-1.2483,-1.0522,-1.0218,-1.0712,0.0,0.0,0.0,0.0,0.0,0.0,0.0,0.0,0.0,-1.1176,-1.1537,-1.1768,-1.1836,-1.2932,-1.3606,-1.351,0.0,0.0,-1.8185,-1.8527,-2.006,-2.3369,-2.3691,-2.4111,-2.4775,-2.4795,-2.4922,-2.5138,-2.5138,-2.5138,-2.5148,-2.5371,-2.5127,-2.4504,-2.351,-2.1926,-1.9956,-1.888,-1.7483,-1.6019,-1.6072,-1.5985,-1.5711,-1.513,-1.4538,-1.3938,-1.3497,-1.2247,0.0,0.0,-0.8736,-0.7861,-0.7276,-0.6706,-0.623,-0.6249,-0.6181,0.0,-0.6509,-0.6898,0.0,0.0,-0.751,-0.8201,-0.9287,-1.0213,-1.091,-1.1091,-1.1362,-1.181,-1.2541,-1.2679,-1.2839,0.0,-1.3734,-1.3861,-1.3734,-1.3633,-1.3493,-1.3247,-1.3604,-1.3844,-1.3629,-1.459,-1.5199,-1.5199,-1.6079,-1.6784,-1.7173,-1.7182,-1.7432,-1.7974,-1.7842,-1.7744,-1.7744,-1.7171,-1.6868,-1.6858,-1.5977,-1.5557,-1.5537,-1.4824,-1.4348,-1.4094,-1.3919,-1.3683,-1.3436,-1.3436,-1.3371,-1.3168,-1.2327,-1.2382,-1.2851,-1.1764,-1.1799,-1.231,0.0,0.0,0.0,0.0,0.0,0.0,0.0,0.0,0.0,0.0,-1.084,-1.1123,-1.1712,-1.2208,-1.2534,0.0,0.0,0.0,0.0,-1.8164,-1.9865,-2.3125,-2.3486,-2.4072,-2.5096,-2.5116,-2.5283,-2.5693,-2.5693,-2.5693,-2.5693,-2.5605,-2.5179,-2.4422,-2.2536,-2.0953,-1.9526,-1.7914,-1.675,-1.5952,-1.6012,-1.5805,-1.5371,-1.4452,-1.3874,-1.3447,-1.3233,-1.2221,0.0,0.0,-0.9095,-0.8195,-0.7773,-0.7232,-0.6817,-0.7026,-0.7097,-0.7022,-0.6511,0.0,0.0,-0.7305,-0.7861,-0.8873,-1.0568,-1.1378,-1.1937,-1.2445,-1.2485,-1.2645,-1.3347,-1.328,0.0,-1.3868,-1.3968,-1.3968,-1.3968,-1.374,-1.3493,-1.3247,-1.3264,-1.344,-1.3766,-1.4568,-1.5196,-1.5579,-1.6026,-1.6448,-1.6694,-1.6703,-1.7027,-1.7681,-1.7895,-1.8008,-1.8008,-1.7598,-1.7383,-1.7406,-1.6643,-1.6212,-1.6065,-1.5322,-1.4727,-1.428,-1.428,-1.4358,-1.4465,-1.4465,-1.4601,-1.4703,-1.3643,-1.3529,-1.3902,-1.3617,-1.3166,-1.2694,0.0,0.0,0.0,0.0,0.0,0.0,0.0,0.0,0.0,0.0,0.0,0.0,0.0,0.0,-1.1725,0.0,0.0,0.0,0.0,-1.7631,-1.9199,-2.1826,-2.2725,-2.376,-2.5086,-2.5116,-2.5283,-2.5693,-2.5693,-2.5693,-2.5674,-2.5293,-2.4383,-2.3039,-2.2991,-2.1298,-1.8535,-1.8599,-1.7737,-1.6213,-1.5651,-1.5077,-1.4419,-1.3587,-1.2705,-1.1973,-1.1966,0.0,0.0,0.0,-0.8742,-0.8278,-0.7708,-0.7584,0.0,-0.7217,-0.736,0.0,0.0,0.0,-0.8238,-0.7038,-0.8537,-1.0414,-1.0723,-1.1835,-1.2837,-1.312,-1.2985,-1.2871,-1.3166,-1.2973,-1.2998,-1.352,-1.362,-1.362,-1.362,-1.3613,-1.3493,-1.3247,-1.2672,-1.2455,0.0,-1.3991,-1.5223,-1.6462,-1.5982,-1.6012,-1.6946,-1.6982,-1.7018,-1.7018,-1.765,-1.8008,-1.8008,-1.7598,-1.7383,-1.7373,-1.6892,-1.6484,-1.6075,-1.5596,-1.5156,-1.4766,-1.4766,-1.5,-1.5371,-1.5371,-1.5849,-1.6629,-1.6556,-1.6556,-1.6539,-1.6152,-1.3782,-1.0778,0.0,0.0,0.0,0.0,0.0,0.0,0.0,0.0,0.0,0.0,0.0,0.0,0.0,0.0,0.0,0.0,0.0,0.0,0.0,-1.5841,-1.7314,-1.9592,-2.1073,-2.2301,-2.335,-2.3926,-2.4424,-2.4863,-2.4863,-2.443,-2.3643,-2.3494,-2.2747,-2.1477,-2.0557,-1.9497,-1.8294,-1.764,-1.6512,-1.509,-1.4897,-1.4222,-1.3266,-1.2144,-1.1464,-1.0955,0.0,0.0,0.0,0.0,-0.878,-0.8639,-0.8438,-0.8063,0.0,-0.7549,-0.8064,-0.8539,0.0,0.0,-0.9078,-0.913,-0.9985,-1.1016,-1.1926,-1.2606,-1.3026,-1.2965,-1.2543,-1.2234,-1.2335,-1.2275,-1.2395,-1.2953,-1.338,-1.36,-1.36,-1.36,-1.3273,-1.2425,-1.2311,0.0,0.0,0.0,0.0,-1.4932,-1.5369,-1.5836,-1.63,-1.7042,-1.7466,-1.7466,-1.8377,-1.8857,-1.8857,-1.8428,-1.8213,-1.8203,-1.75,-1.6934,-1.6494,-1.6045,-1.5791,-1.5664,-1.5664,-1.5743,-1.5899,-1.6132,-1.6434,-1.6665,-1.6119,-1.5886,-1.5803,-1.5145,-1.4138,-1.3031,0.0,0.0,0.0,0.0,0.0,0.0,0.0,0.0,0.0,0.0,0.0,0.0,0.0,0.0,0.0,0.0,0.0,0.0,0.0,0.0,-1.5488,-1.7155,-1.8744,-1.9991,-2.0889,-2.1592,-2.2158,-2.2588,-2.2588,-2.2183,-2.1432,-2.0982,-2.0263,-1.9297,-1.7961,-1.7108,-1.6588,-1.578,-1.479,-1.3721,-1.3614,-1.2965,-1.1899,-1.0928,-1.0341,0.0,0.0,0.0,0.0,-0.8938,-0.8804,-0.8804,-0.8804,-0.848,-0.8121,-0.8219,-0.8773,-0.9315,-0.895,-0.9435,-1.011,-1.0414,-1.107,-1.1866,-1.2623,-1.2938,-1.2953,-1.269,-1.2154,-1.1677,-1.1611,-1.1504,-1.1631,-1.2214,-1.2599,-1.292,-1.328,-1.332,-1.308,-1.2425,-1.2412,0.0,0.0,0.0,0.0,-1.4611,-1.516,-1.5502,-1.5685,-1.675,-1.7331,-1.7331,-1.8601,-1.9287,-1.9287,-1.9014,-1.8754,-1.8598,-1.7939,-1.7199,-1.64,-1.6338,-1.6135,-1.5837,-1.6166,-1.6222,-1.6053,-1.6296,-1.6495,-1.6571,-1.571,-1.5666,-1.5925,-1.507,-1.4845,-1.4813,0.0,0.0,0.0,0.0,0.0,0.0,0.0,0.0,0.0,0.0,0.0,0.0,0.0,0.0,0.0,0.0,0.0,0.0,0.0,0.0,0.0,-1.4608,-1.5889,-1.696,-1.7822,-1.8237,-1.8721,-1.916,-1.916,-1.9078,-1.8996,-1.7911,-1.7054,-1.6382,-1.5304,-1.4352,-1.3473,-1.3233,-1.2759,-1.2164,-1.1913,-1.1276,-1.0439,-0.9863,0.0,0.0,0.0,0.0,0.0,0.0,0.0,0.0,0.0,-0.8818,-0.8884,-0.9151,-0.9486,-0.9705,-0.9459,-1.0413,-1.1309,-1.0808,-1.175,-1.2757,-1.2723,-1.2717,-1.2623,-1.2258,-1.1744,-1.1235,0.0,0.0,-1.0787,-1.1349,-1.1435,-1.1797,-1.2703,-1.2857,-1.2965,0.0,0.0,0.0,0.0,0.0,0.0,-1.5399,0.0,-1.5061,-1.5098,-1.611,-1.6689,-1.6673,-1.8319,-1.9219,-1.9199,-1.918,-1.8938,-1.8447,-1.805,-1.7209,-1.5947,-1.6451,-1.6188,-1.5454,-1.6357,-1.6448,-1.5972,-1.599,-1.6267,-1.6594,-1.5719,-1.6101,-1.7027,-1.6128,-1.5939,-1.5992,0.0,0.0,0.0,0.0,0.0,0.0,0.0,0.0,0.0,0.0,0.0,0.0,0.0,0.0,0.0,0.0,0.0,0.0,0.0,0.0,0.0,0.0,0.0,0.0,0.0,0.0,0.0,0.0,0.0,-1.63,-1.5426,-1.492,-1.4018,-1.2756,-1.2704,-1.2408,-1.1948,-1.1875,-1.141,-1.0648,0.0,-0.9876,-0.9212,0.0,0.0,0.0,0.0,0.0,0.0,0.0,0.0,0.0,0.0,-0.8931,-0.9158,-0.9486,-0.9963,-1.043,-1.0777,-1.1298,-1.1788,-1.1863,-1.215,-1.2298,-1.1864,-1.1764,-1.1557,-1.0822,-1.0555,-1.0361,0.0,0.0,0.0,-1.163,-1.2161,0.0,-1.332,-1.3788,0.0,0.0,0.0,-1.3928,-1.3527,-1.3854,0.0,0.0,-1.4539,-1.4536,-1.4982,-1.6058,-1.6522,-1.627,-1.7507,-1.8069,-1.7816,-1.7523,-1.7049,-1.6349,-1.6254,-1.6298,-1.6396,-1.6209,-1.6374,-1.6871,-1.7109,-1.7135,-1.7053,-1.7326,-1.7699,-1.8072,-1.7816,-1.8116,-1.8676,-1.8439,-1.8395,-1.8303,0.0,0.0,0.0,0.0,0.0,0.0,0.0,0.0,0.0,0.0,0.0,0.0,0.0,0.0,0.0,0.0,0.0,0.0,0.0,0.0,0.0,0.0,0.0,0.0,0.0,0.0,0.0,0.0,0.0,0.0,0.0,-1.2157,-1.1435,-1.0525,-1.0407,-1.0314,-1.0236,-1.014,0.0,0.0,0.0,0.0,0.0,0.0,0.0,0.0,0.0,0.0,0.0,0.0,0.0,-0.8532,-0.8532,-0.8943,-0.9519,-0.997,0.0,-1.0908,-1.1463,-1.183,-1.2098,-1.2265,-1.2111,-1.183,-1.1469,-1.1096,-1.0683,-1.019,-1.0013,0.0,0.0,0.0,0.0,0.0,0.0,0.0,-1.3126,-1.3761,-1.4006,0.0,-1.4335,0.0,-1.4255,-1.4522,-1.477,0.0,-1.4636,-1.466,-1.4988,-1.6036,-1.6439,-1.6111,-1.7207,-1.7622,-1.7302,-1.7087,-1.6661,-1.6094,-1.6094,-1.6196,-1.6416,-1.6608,-1.6928,-1.7341,0.0,-1.7576,-1.7086,-1.7467,-1.7779,-1.7979,-1.7935,-1.8434,-1.9137,-1.8922,-1.8893,-1.8931,0.0,0.0,0.0,0.0,0.0,0.0,0.0,0.0,0.0,0.0,0.0,0.0,0.0,0.0,0.0,0.0,0.0,0.0,0.0,0.0,0.0,0.0,0.0,0.0,0.0,0.0,0.0,0.0,0.0,0.0,0.0,0.0,0.0,0.0,0.0,0.0,0.0,0.0,0.0,0.0,0.0,0.0,0.0,0.0,0.0,0.0,0.0,0.0,0.0,0.0,-0.7675,-0.8055,-0.8167,-0.8833,-0.9735,-1.0441,-1.0854,-1.1176,-1.1799,-1.2111,-1.2291,-1.2258,-1.1804,-1.1349,-1.1235,-1.0569,-0.997,-0.997,0.0,0.0,-0.9733,0.0,-1.0037,-1.0667,0.0,-1.1558,-1.2737,-1.3347,-1.388,-1.4509,-1.4843,-1.5082,-1.5122,-1.5122,-1.5184,-1.5438,-1.5217,-1.5122,-1.5122,-1.5986,-1.6338,-1.5964,-1.6853,-1.7167,-1.6895,-1.6895,-1.6669,-1.63,-1.63,-1.6194,-1.6038,-1.7047,-1.7402,-1.7334,0.0,0.0,-1.7002,-1.7332,-1.7542,-1.7633,-1.7599,-1.832,-1.9325,-1.8883,-1.8828,-1.9016,0.0,0.0,0.0,0.0,0.0,0.0,0.0,0.0,0.0,0.0,-0.8294,-0.8695,0.0,0.0,0.0,0.0,0.0,0.0,0.0,0.0,0.0,0.0,0.0,0.0,0.0,0.0,0.0,0.0,0.0,0.0,0.0,0.0,0.0,0.0,0.0,0.0,0.0,0.0,0.0,0.0,0.0,0.0,0.0,0.0,0.0,0.0,0.0,0.0,0.0,0.0,-0.6442,-0.7249,-0.7965,-0.8539,-0.9205,-1.0542,-1.1122,-1.1442,-1.2064,-1.2265,-1.2245,-1.2004,-1.1503,-1.0942,-1.0454,-0.9817,0.0,0.0,0.0,-0.9753,-1.0,-1.0278,0.0,-1.1544,0.0,0.0,0.0,0.0,-1.4229,0.0,0.0,0.0,0.0,0.0,0.0,0.0,0.0,0.0,-1.5678,-1.5859,-1.5701,-1.5202,-1.4919,-1.4713,-1.4657,-1.4657,-1.4462,-1.4157,-1.4157,-1.4384,-1.491,-1.597,-1.6891,-1.7676,0.0,0.0,-1.8836,-1.8914,-1.9358,-2.0005,-1.9995,-2.058,-2.1373,-2.1307,-2.1301,-2.1135,0.0,0.0,0.0,0.0,0.0,0.0,0.0,-0.6212,-0.6326,-0.6574,-0.6945,-0.741,-0.8017,-0.819,-0.8275,0.0,0.0,0.0,0.0,0.0,0.0,0.0,0.0,0.0,0.0,0.0,0.0,0.0,0.0,0.0,0.0,0.0,0.0,0.0,0.0,0.0,0.0,0.0,0.0,0.0,0.0,0.0,0.0,0.0,0.0,0.0,0.0,0.0,0.0,0.0,-0.5613,-0.5916,-0.6791,-0.7913,-0.9092,-1.0119,-1.0887,-1.1515,-1.2144,-1.2305,-1.2231,-1.198,-1.135,-1.0687,-1.0214,0.0,0.0,0.0,0.0,-0.9849,-1.0267,0.0,0.0,0.0,0.0,0.0,0.0,0.0,0.0,0.0,0.0,0.0,0.0,0.0,0.0,0.0,0.0,0.0,-1.5784,-1.5685,-1.5404,-1.5022,-1.4543,-1.4242,-1.4088,-1.4088,-1.4015,-1.3874,-1.3874,-1.4597,-1.6023,-1.653,-1.7523,-1.8854,-1.8957,0.0,-1.8648,-1.8485,-1.8674,-1.9097,-1.9499,-1.9934,-2.0343,-2.0549,-2.0674,-2.0551,0.0,0.0,0.0,0.0,0.0,0.0,0.0,-0.5543,-0.5651,-0.5859,-0.5864,-0.6192,-0.708,-0.7316,-0.7363,0.0,0.0,0.0,0.0,0.0,0.0,0.0,0.0,0.0,0.0,0.0,0.0,0.0,0.0,0.0,0.0,0.0,0.0,0.0,0.0,0.0,0.0,0.0,0.0,0.0,0.0,0.0,0.0,0.0,0.0,0.0,0.0,0.0,0.0,0.0,-0.493,-0.4706,-0.5402,-0.689,-0.8598,-0.9635,-1.0478,-1.125,-1.2015,-1.2258,-1.2218,-1.1864,-1.1196,-1.0499,-1.0107,-0.9392,0.0,0.0,-0.9715,-0.9889,-1.0486,0.0,0.0,0.0,0.0,0.0,0.0,0.0,0.0,0.0,0.0,0.0,0.0,0.0,0.0,0.0,0.0,0.0,-1.5784,-1.5558,-1.5291,-1.5109,-1.477,-1.4476,-1.4182,-1.4182,-1.4148,-1.4088,-1.4088,-1.4985,-1.6609,-1.6926,-1.7808,-1.906,-1.874,0.0,0.0,-1.7846,-1.7798,-1.792,-1.8553,-1.886,-1.9011,-1.9344,-1.9497,-1.948,0.0,0.0,0.0,0.0,0.0,0.0,0.0,-0.5643,-0.5868,-0.6131,-0.6064,-0.6011,-0.614,-0.5883,-0.566,0.0,0.0,0.0,0.0,0.0,0.0,0.0,0.0,0.0,0.0,0.0,0.0,0.0,0.0,0.0,0.0,0.0,0.0,0.0,0.0,0.0,0.0,0.0,0.0,0.0,0.0,0.0,0.0,0.0,0.0,0.0,0.0,0.0,0.0,0.0,0.0,-0.4264,-0.434,-0.5333,-0.6949,-0.9382,0.0,0.0,-1.1603,-1.2098,-1.2164,-1.1603,-1.1009,-1.0445,-0.9883,0.0,0.0,-0.9566,-0.9715,-0.9889,-1.0486,-1.0593,0.0,0.0,0.0,0.0,0.0,0.0,0.0,0.0,0.0,0.0,0.0,0.0,0.0,0.0,0.0,0.0,0.0,-1.5558,-1.5384,-1.5357,-1.5122,-1.4783,-1.4482,-1.4482,-1.4349,-1.4088,-1.4088,-1.4208,-1.4426,-1.5679,-1.6284,-1.6523,0.0,0.0,0.0,-1.8169,-1.839,-1.8781,-1.8794,-1.906,-1.9447,-1.948,-1.9497,-1.9447,0.0,0.0,0.0,0.0,0.0,0.0,-0.4461,-0.4546,-0.469,-0.4954,-0.4942,-0.4918,-0.4923,-0.4734,-0.4792,-0.5251,0.0,0.0,0.0,0.0,0.0,0.0,0.0,0.0,0.0,0.0,0.0,0.0,0.0,0.0,0.0,0.0,0.0,0.0,0.0,0.0,0.0,0.0,0.0,0.0,0.0,0.0,0.0,0.0,0.0,0.0,0.0,0.0,0.0,0.0,0.0,0.0,-0.4658,-0.4938,0.0,0.0,-0.8723,-0.9825,-1.0501,-1.1231,-1.1637,-1.1049,-1.0595,-1.014,-0.9546,0.0,0.0,-0.9566,-0.9715,-0.9889,-1.0486,-1.0593,-1.0626,0.0,0.0,0.0,0.0,0.0,0.0,0.0,0.0,0.0,0.0,0.0,0.0,0.0,0.0,0.0,0.0,-1.5718,-1.5578,-1.5404,-1.5162,-1.4823,-1.4479,-1.4349,-1.4202,-1.4088,-1.4088,-1.4501,-1.5333,-1.5874,-1.6543,-1.7361,0.0,0.0,0.0,-1.6972,-1.6859,-1.7021,-1.7014,-1.7094,-1.725,-1.725,-1.725,-1.7235,0.0,0.0,0.0,0.0,0.0,-0.3651,-0.3771,-0.3829,-0.3938,-0.4126,-0.4167,-0.4177,-0.4133,-0.4018,-0.4197,-0.4812,-0.4972,0.0,0.0,0.0,0.0,0.0,0.0,0.0,0.0,0.0,0.0,0.0,0.0,0.0,0.0,0.0,0.0,0.0,0.0,0.0,0.0,0.0,0.0,0.0,0.0,0.0,0.0,0.0,0.0,0.0,0.0,0.0,0.0,0.0,0.0,0.0,0.0,0.0,0.0,0.0,-0.7632,-0.8802,-0.9705,-1.0376,-1.0711,-1.0263,-1.0047,-0.9794,0.0,0.0,-0.8978,-0.9566,-0.9715,-0.9889,-1.0486,-1.0593,-1.0593,0.0,0.0,0.0,0.0,0.0,0.0,0.0,0.0,0.0,0.0,0.0,0.0,0.0,0.0,0.0,0.0,-1.5784,-1.5684,-1.5531,-1.5331,-1.5077,-1.4783,-1.4576,-1.4436,-1.4349,-1.4255,-1.4778,-1.5785,-1.5785,-1.6344,-1.7334,0.0,0.0,0.0,-1.6014,-1.5784,-1.5784,-1.5784,-1.5784,-1.5784,-1.5784,-1.5784,-1.5784,0.0,0.0,0.0,0.0,0.0,0.0,-0.3771,-0.3921,-0.3994,-0.3998,-0.4129,-0.4137,-0.4014,-0.3887,-0.3815,-0.3812,-0.4186,0.0,0.0,0.0,0.0,0.0,0.0,0.0,0.0,0.0,0.0,0.0,0.0,0.0,0.0,0.0,0.0,0.0,0.0,0.0,0.0,0.0,0.0,0.0,0.0,0.0,0.0,0.0,0.0,0.0,0.0,0.0,0.0,0.0,0.0,0.0,0.0,0.0,0.0,0.0,-0.7102,-0.6965,-0.943,-0.9799,-0.9432,-0.9099,-0.9351,-0.9433,0.0,0.0,-0.8978,-0.9566,-0.9715,-0.9889,-1.0486,-1.0593,-1.0593,-1.0593,-1.0586,0.0,0.0,0.0,0.0,0.0,0.0,0.0,0.0,0.0,0.0,0.0,0.0,0.0,0.0,-1.5784,-1.5784,-1.5778,-1.5771,-1.5678,-1.5391,-1.5384,-1.5237,-1.4995,-1.4656,-1.4669,-1.5001,-1.5001,-1.5162,0.0,0.0,0.0,0.0,-1.5778,-1.5784,-1.5784,-1.5784,-1.5784,-1.5784,-1.5784,-1.5784,-1.5784,0.0,0.0,0.0,0.0,0.0,0.0,0.0,-0.3709,-0.3754,-0.3849,-0.3907,-0.3958,-0.3991,-0.3883,-0.3792,-0.3792,-0.3837,0.0,0.0,0.0,0.0,0.0,0.0,0.0,0.0,0.0,0.0,-0.4264,-0.4264,0.0,0.0,0.0,0.0,0.0,0.0,0.0,0.0,0.0,0.0,0.0,0.0,0.0,0.0,0.0,0.0,0.0,0.0,0.0,0.0,0.0,0.0,0.0,0.0,0.0,0.0,-0.5855,-0.6164,-0.6417,-0.7686,-0.8451,-0.8825,-0.8533,-0.8551,-0.8536,-0.7987,0.0,-0.8288,-0.9187,-0.9351,-0.9531,-1.0147,-1.0254,-1.0321,-1.0559,-1.0593,0.0,0.0,0.0,0.0,0.0,0.0,0.0,0.0,0.0,0.0,0.0,0.0,0.0,0.0,-1.5784,-1.5784,-1.5784,-1.5638,-1.5491,-1.5398,-1.5197,-1.5102,-1.5008,-1.4914,-1.4977,-1.5257,-1.5257,0.0,0.0,0.0,0.0,0.0,-1.5784,-1.5784,-1.5784,-1.5784,-1.5784,-1.5784,-1.5784,-1.5784,-1.5784,0.0,0.0,0.0,0.0,0.0,0.0,0.0,-0.3464,-0.3475,-0.3095,-0.3242,-0.3342,-0.3256,-0.3133,-0.3077,-0.3125,-0.2996,0.0,0.0,0.0,0.0,0.0,0.0,0.0,0.0,0.0,-0.3672,-0.3792,-0.3792,-0.3822,-0.3877,-0.3877,0.0,0.0,0.0,0.0,0.0,0.0,0.0,0.0,0.0,0.0,-0.3604,0.0,0.0,0.0,0.0,0.0,0.0,0.0,0.0,0.0,0.0,0.0,0.0,0.0,-0.527,-0.5663,0.0,-0.7172,-0.7382,-0.721,-0.74,0.0,0.0,0.0,-0.7901,-0.8675,-0.9129,-0.9524,-0.9997,-1.0207,-1.0347,-1.0566,-1.0593,0.0,0.0,0.0,0.0,0.0,0.0,0.0,0.0,0.0,0.0,0.0,0.0,0.0,0.0,0.0,-1.5784,-1.5784,-1.5651,-1.5558,-1.5558,-1.5384,-1.5291,-1.5291,-1.5177,-1.5277,-1.5558,-1.5444,0.0,0.0,0.0,0.0,0.0,-1.5784,-1.5784,-1.5784,-1.5784,-1.5784,-1.5784,-1.5784,-1.5784,-1.5784,0.0,0.0,0.0,0.0,0.0,0.0,0.0,-0.3103,-0.3062,-0.1941,-0.2295,-0.2465,-0.2023,-0.1872,-0.186,-0.1978,0.0,0.0,0.0,0.0,0.0,0.0,0.0,0.0,0.0,-0.3604,-0.3675,-0.3809,-0.3809,-0.3887,-0.4011,-0.4011,-0.3948,0.0,0.0,0.0,0.0,0.0,0.0,0.0,-0.3578,-0.3604,0.0,0.0,0.0,0.0,0.0,0.0,0.0,0.0,0.0,0.0,0.0,0.0,0.0,0.0,0.0,0.0,0.0,-0.5982,-0.5515,-0.5515,-0.6009,-0.634,0.0,0.0,0.0,-0.809,-0.8909,-0.9655,-0.9997,-1.0345,-1.0546,-1.0586,-1.0613,0.0,0.0,0.0,0.0,0.0,0.0,0.0,0.0,0.0,0.0,0.0,0.0,0.0,0.0,0.0,-1.5784,-1.5784,-1.5758,-1.5758,-1.5784,-1.5784,-1.5784,-1.5778,-1.5558,-1.5571,-1.5771,-1.5551,0.0,0.0,0.0,0.0,0.0,-1.5784,-1.5784,-1.5784,-1.5784,-1.5784,-1.5784,-1.5784,-1.5784,-1.5784,0.0,0.0,0.0,0.0,0.0,0.0,0.0,0.0,0.0,0.0,-0.1919,-0.1969,-0.1855,-0.1818,-0.1815,0.0,0.0,0.0,0.0,0.0,0.0,0.0,0.0,0.0,0.0,-0.3604,-0.3707,-0.3965,-0.3965,-0.4018,-0.414,-0.414,-0.4024,-0.3792,-0.3792,-0.3474,-0.2943,0.0,0.0,0.0,-0.342,-0.3604,0.0,0.0,0.0,0.0,-0.3954,-0.4115,0.0,0.0,0.0,0.0,0.0,0.0,0.0,0.0,-0.4491,-0.457,-0.4897,0.0,-0.5515,-0.5515,-0.5624,-0.5706,0.0,0.0,0.0,0.0,0.0,-0.849,-0.9599,-0.9846,-1.007,-1.0519,-1.078,0.0,0.0,0.0,0.0,0.0,0.0,0.0,0.0,0.0,0.0,0.0,0.0,0.0,0.0,0.0,-1.5784,-1.5784,-1.5611,-1.5605,-1.5778,-1.5784,-1.5784,-1.5784,-1.5758,-1.5718,-1.5778,-1.5711,0.0,0.0,0.0,0.0,-1.5784,-1.5784,-1.5784,-1.5784,-1.5784,-1.5784,-1.5784,-1.5784,-1.5784,-1.5784,0.0,0.0,0.0,0.0,0.0,0.0,0.0,0.0,0.0,0.0,0.0,0.0,0.0,0.0,0.0,0.0,0.0,0.0,0.0,0.0,0.0,0.0,0.0,0.0,0.0,-0.2771,-0.2881,-0.3091,-0.3091,-0.3149,-0.3282,-0.3284,-0.3167,-0.2965,-0.2905,-0.2662,-0.2319,-0.2635,-0.2588,-0.2339,-0.2946,0.0,0.0,0.0,0.0,0.0,-0.4045,-0.4193,0.0,-0.4464,-0.4491,-0.4491,0.0,0.0,0.0,0.0,-0.4491,-0.4491,-0.4491,-0.4759,-0.503,-0.503,-0.503,-0.503,-0.503,0.0,0.0,0.0,0.0,0.0,-0.9504,-0.9522,0.0,0.0,0.0,0.0,0.0,0.0,0.0,0.0,0.0,0.0,0.0,0.0,0.0,0.0,0.0,0.0,0.0,0.0,-1.5784,-1.5784,-1.5545,-1.5538,-1.5778,-1.5565,-1.5565,-1.5784,-1.5698,-1.5698,-1.5784,-1.5784,0.0,0.0,0.0,0.0,-1.5784,-1.5784,-1.5784,-1.5784,-1.5784,-1.5784,-1.5784,-1.5784,-1.5784,-1.5784,0.0,0.0,0.0,0.0,0.0,0.0,0.0,0.0,0.0,0.0,0.0,0.0,0.0,0.0,0.0,0.0,0.0,0.0,0.0,0.0,0.0,0.0,0.0,-0.1701,-0.1803,-0.1791,-0.1859,-0.2012,-0.1999,-0.2073,-0.2202,-0.2204,-0.2128,-0.2005,-0.1866,-0.1751,-0.1673,-0.1762,-0.1741,-0.1719,-0.2317,0.0,0.0,0.0,0.0,0.0,0.0,0.0,0.0,-0.4484,-0.4491,-0.4491,-0.4491,0.0,0.0,0.0,0.0,0.0,-0.4491,-0.4491,-0.4491,-0.4491,-0.4491,-0.4491,-0.4491,0.0,0.0,0.0,0.0,0.0,0.0,0.0,0.0,0.0,0.0,0.0,0.0,0.0,0.0,0.0,0.0,0.0,0.0,0.0,0.0,0.0,0.0,0.0,0.0,0.0,0.0,-1.5718,-1.5438,-1.5404,-1.5698,-1.5251,-1.5297,-1.5778,-1.5578,-1.5591,-1.5784,-1.5784,-1.5784,0.0,0.0,0.0,-1.5784,-1.5784,-1.5784,-1.5784,-1.5784,-1.5784,-1.5784,-1.5784,-1.5784,-1.5784,0.0,0.0,0.0,0.0,0.0,0.0,0.0,0.0,0.0,0.0,0.0,0.0,0.0,0.0,0.0,0.0,0.0,0.0,0.0,0.0,0.0,0.0,-0.0761,-0.1272,-0.1786,-0.1795,-0.1859,-0.2012,-0.1999,-0.207,-0.2204,-0.2199,-0.212,-0.1984,-0.1848,-0.1523,-0.1073,-0.1585,-0.1496,-0.1096,-0.1697,0.0,0.0,0.0,0.0,0.0,0.0,0.0,0.0,-0.445,-0.4491,-0.4491,-0.4491,0.0,0.0,0.0,0.0,0.0,-0.4491,-0.4491,-0.4491,-0.4491,-0.4491,-0.4491,0.0,0.0,0.0,0.0,0.0,0.0,0.0,0.0,0.0,0.0,0.0,0.0,0.0,0.0,0.0,0.0,0.0,0.0,0.0,0.0,0.0,0.0,0.0,0.0,0.0,0.0,0.0,-1.5464,-1.4937,-1.4796,-1.5142,-1.5251,-1.5498,-1.5784,-1.5785,-1.5738,-1.5784,-1.5784,-1.5784,0.0,0.0,-1.5784,-1.5784,-1.5784,-1.5784,-1.5784,-1.5784,-1.5784,-1.5784,-1.5784,-1.5784,-1.5784,0.0,0.0,0.0,0.0,0.0,0.0,0.0,0.0,0.0,0.0,0.0,0.0,0.0,0.0,0.0,0.0,0.0,0.0,0.0,0.0,0.0,0.0,-0.0255,-0.0538,-0.0833,-0.0819,-0.0851,-0.0907,-0.0923,-0.0946,-0.1004,-0.1021,-0.0967,-0.0928,-0.0844,-0.0684,-0.0426,-0.0716,-0.0672,-0.0471,0.0,0.0,0.0,0.0,0.0,0.0,0.0,0.0,0.0,0.0,-0.4399,-0.4474,-0.4372,0.0,0.0,0.0,0.0,0.0,-0.4491,-0.4491,-0.4491,-0.4491,-0.4491,-0.4491,0.0,0.0,0.0,0.0,0.0,0.0,0.0,0.0,0.0,0.0,0.0,0.0,0.0,0.0,0.0,0.0,0.0,0.0,0.0,0.0,0.0,0.0,0.0,0.0,0.0,0.0,0.0,0.0,-1.4743,-1.4663,-1.5008,-1.4937,-1.515,-1.5591,-1.5438,-1.5524,-1.5784,-1.5784,-1.5784,-1.5784,0.0,-1.5784,-1.5784,-1.5784,-1.5784,-1.5784,-1.5784,-1.5784,-1.5784,-1.5784,-1.5784,-1.5784,0.0,0.0,0.0,0.0,0.0,0.0,0.0,0.0,0.0,0.0,0.0,0.0,0.0,0.0,0.0,0.0,0.0,0.0,0.0,0.0,0.0,0.0,0.0,0.0,0.0,0.0,0.0,0.0,0.0,0.0,0.0,0.0,0.0,0.0,0.0,0.0,0.0,0.0,0.0,-0.0045,0.0,0.0,0.0,0.0,0.0,0.0,0.0,0.0,0.0,0.0,0.0,0.0,0.0,0.0,0.0,-0.4491,-0.4491,-0.4491,-0.4491,-0.4491,-0.4491,-0.4491,0.0,0.0,0.0,0.0,0.0,0.0,0.0,0.0,0.0,0.0,0.0,0.0,0.0,0.0,0.0,0.0,0.0,0.0,0.0,0.0,0.0,0.0,0.0,0.0,0.0,0.0,0.0,0.0,0.0,0.0,-1.4576,-1.4529,-1.48,-1.4536,-1.4716,-1.5291,-1.5115,-1.5231,-1.5732,-1.5732,-1.5718,-1.5784,-1.5784,-1.5784,-1.5784,-1.5784,-1.5784,-1.5784,-1.5784,-1.5784,-1.5784,-1.5784,-1.5784,-1.5784,0.0,0.0,0.0,0.0,0.0,0.0,0.0,0.0,0.0,0.0,0.0,0.0,0.0,0.0,0.0,0.0,0.0,0.0,0.0,0.0,0.0,0.0,0.0,0.0,0.0,0.0,0.0,0.0,0.0,0.0,0.0,0.0,0.0,0.0,0.0,0.0,0.0,0.0,0.0,0.0,-0.0045,0.0,0.0,0.0,0.0,0.0,0.0,0.0,0.0,0.0,0.0,0.0,0.0,0.0,-0.4491,-0.4491,-0.4491,-0.4491,-0.4491,-0.4491,-0.4491,-0.4491,-0.4491,0.0,0.0,0.0,0.0,0.0,0.0,0.0,0.0,0.0,0.0,0.0,0.0,0.0,0.0,0.0,0.0,0.0,0.0,0.0,0.0,0.0,0.0,0.0,0.0,0.0,0.0,0.0,0.0,0.0,0.0,-1.4128,-1.4148,-1.4128,-1.4409,-1.5042,-1.5022,-1.5169,-1.5431,-1.5431,-1.5571,-1.5784,-1.5784,-1.5784,-1.5784,-1.5784,-1.5784,-1.5784,-1.5784,-1.5784,-1.5784,-1.5784,-1.5784,-1.5784,0.0,0.0,0.0,0.0,0.0,0.0,0.0,0.0,0.0,0.0,0.0,0.0,0.0,0.0,0.0,0.0,0.0,0.0,0.0,0.0,0.0,0.0,0.0,0.0,0.0,0.0,0.0,0.0,0.0,0.0,0.0,0.0,0.0,0.0,0.0,0.0,0.0,0.0,0.0,0.0,0.0,0.0,0.0,0.0,0.0,0.0,0.0,0.0,0.0,0.0,-0.4029,-0.4391,-0.3812,-0.4032,-0.4491,-0.4491,-0.4491,-0.4491,-0.4491,-0.4491,-0.4491,-0.4491,0.0,0.0,0.0,0.0,0.0,0.0,0.0,0.0,0.0,0.0,0.0,0.0,0.0,0.0,0.0,0.0,0.0,0.0,0.0,0.0,0.0,0.0,0.0,0.0,0.0,0.0,0.0,0.0,0.0,0.0,0.0,-1.4001,-1.3773,-1.3995,-1.4102,-1.4148,-1.4516,-1.4843,-1.5182,-1.5311,-1.5458,-1.5571,-1.5752,-1.5784,-1.5784,-1.5784,-1.5784,-1.5784,-1.5784,-1.5784,-1.5784,-1.5784,-1.5784,-1.5784,0.0,0.0,0.0,0.0,0.0,0.0,0.0,0.0,0.0,0.0,0.0,0.0,0.0,0.0,0.0,0.0,0.0,0.0,0.0,0.0112,0.0,0.0,0.0,0.0,0.0,0.0,0.0,0.0,0.0,0.0,0.0,0.0,0.0,0.0,0.0,0.0,0.0,0.0,0.0,0.0,0.0,0.0,0.0,0.0,0.0,0.0,0.0,0.0,0.0,0.0,-0.3392,-0.3996,-0.3366,-0.3778,-0.4491,-0.4491,-0.4491,-0.4491,-0.4491,-0.4491,-0.4491,0.0,0.0,0.0,0.0,0.0,0.0,0.0,0.0,0.0,0.0,0.0,0.0,0.0,0.0,0.0,0.0,0.0,0.0,0.0,0.0,0.0,0.0,0.0,0.0,0.0,0.0,0.0,0.0,0.0,0.0,0.0,0.0,-1.3848,-1.3606,-1.3848,-1.3895,-1.3746,-1.4188,-1.4536,-1.483,-1.503,-1.5224,-1.5404,-1.5605,-1.5698,-1.5784,-1.5784,-1.5784,-1.5784,-1.5784,-1.5784,-1.5784,-1.5784,-1.5784,-1.5784,0.0,0.0,0.0,0.0,0.0,0.0,0.0,0.0,0.0,0.0,0.0,0.0,0.0,0.0,0.0,0.0,0.0,0.0,0.0,0.0359,0.0022,0.0,0.0,0.0,0.0,0.0,0.0,0.0,0.0,0.0,0.0,0.0,0.0,0.0,0.0,0.0,0.0,0.0,0.0,0.0,0.0,0.0,0.0,0.0,0.0,0.0,0.0,0.0,0.0,0.0,-0.2676,-0.3287,-0.3287,-0.3846,-0.4491,-0.4491,-0.4491,-0.4491,-0.4491,-0.4491,-0.4491,0.0,0.0,0.0,0.0,0.0,0.0,0.0,0.0,0.0,0.0,0.0,0.0,0.0,0.0,0.0,0.0,0.0,0.0,0.0,0.0,0.0,0.0,0.0,0.0,0.0,0.0,0.0,0.0,0.0,0.0,0.0,0.0,0.0,-1.3593,-1.36,-1.3753,-1.4082,-1.4082,-1.4242,-1.4516,-1.4522,-1.4836,-1.5391,-1.5391,-1.5558,-1.5778,-1.5784,-1.5784,-1.5784,-1.5784,-1.5784,-1.5784,-1.5784,-1.5784,-1.5784,0.0,0.0,0.0,0.0,0.0,0.0,0.0,0.0,0.0,0.0,0.0,0.0,0.0,0.0,0.0,0.0,0.0,0.0,0.0,0.1362,0.1088,0.0654,0.0632,0.0427,0.0,0.0,0.0,0.0,0.0,0.0,0.0,0.0,0.0,0.0,0.0,0.0,0.0,0.0,0.0,0.0,0.0,0.0,0.0,0.0,0.0,0.0,0.0,0.0,0.0,0.0,0.0,0.0,-0.2704,-0.3428,-0.4491,-0.4491,-0.4491,-0.4491,-0.4491,-0.4491,0.0,0.0,0.0,0.0,0.0,0.0,0.0,0.0,0.0,0.0,0.0,0.0,0.0,0.0,0.0,0.0,0.0,0.0,0.0,0.0,0.0,0.0,0.0,0.0,0.0,0.0,0.0,0.0,0.0,0.0,0.0,0.0,0.0,0.0,-1.3052,-1.3393,-1.3547,-1.3474,-1.3888,-1.4128,-1.4222,-1.4429,-1.4616,-1.4803,-1.5217,-1.5444,-1.5538,-1.5698,-1.5784,-1.5784,-1.5784,-1.5784,-1.5784,-1.5784,-1.5784,-1.5784,0.0,0.0,0.0,0.0,0.0,0.0,0.0,0.0,0.0,0.0,0.2607,0.2551,0.0,0.0,0.0,0.0,0.0,0.0,0.2244,0.1958,0.1661,0.1352,0.1337,0.1049,0.0438,0.0158,0.0,0.0,0.0,0.0,0.0,0.0,0.0,0.0,0.0,0.0,0.0,0.0,0.0,0.0,0.0,0.0,0.0,0.0,0.0,0.0,0.0,0.0,0.0,0.0,0.0,0.0,-0.2676,-0.3483,-0.4491,-0.4491,-0.4491,-0.4491,-0.4491,0.0,0.0,0.0,0.0,0.0,0.0,0.0,0.0,0.0,0.0,0.0,0.0,0.0,0.0,0.0,0.0,0.0,0.0,0.0,0.0,0.0,0.0,0.0,0.0,0.0,0.0,0.0,0.0,0.0,0.0,0.0,0.0,0.0,0.0,0.0,-1.279,-1.3106,-1.332,-1.3347,-1.3741,-1.3908,-1.3921,-1.4215,-1.4409,-1.4543,-1.5017,-1.5291,-1.5398,-1.5464,-1.5551,-1.5658,-1.5658,-1.5732,-1.5784,-1.5784,-1.5784,-1.5784,0.0,0.0,0.1966,0.1973,0.0,0.0,0.0,0.0,0.0,0.0,0.3812,0.3651,0.0,0.0,0.0,0.3257,0.3083,0.3013,0.3002,0.2363,0.2016,0.2108,0.204,0.1737,0.1118,0.0452,0.0079,0.0,0.0,0.0,0.0,0.0,0.0,0.0,0.0,0.0,0.0,0.0,0.0,0.0,0.0,0.0,0.0,0.0,0.0,0.0,0.0,0.0,0.0,0.0,0.0,0.0,-0.3065,-0.3846,-0.4491,-0.4491,-0.4491,-0.4491,-0.4491,0.0,0.0,0.0,0.0,0.0,0.0,0.0,0.0,0.0,0.0,0.0,0.0,0.0,0.0,0.0,0.0,0.0,0.0,0.0,0.0,0.0,0.0,0.0,0.0,0.0,0.0,0.0,0.0,0.0,0.0,0.0,0.0,0.0,0.0,0.0,-1.2784,-1.2784,-1.3072,0.0,-1.356,-1.356,-1.3573,-1.3941,-1.4249,-1.4536,-1.4803,-1.509,-1.5337,-1.5115,-1.5182,-1.5398,-1.5398,-1.5571,-1.5784,-1.5784,-1.5784,-1.5784,0.0,0.0,0.3251,0.3349,0.0,0.0,0.0,0.0,0.0,0.0,0.0,0.0,0.0,0.0,0.0,0.3962,0.3936,0.3869,0.3781,0.3518,0.3211,0.2871,0.2409,0.1824,0.1105,0.0942,0.0582,0.0,0.0,0.0,0.0,0.0,0.0,0.0,0.0,0.0,0.0,0.0,0.0,0.0,0.0,0.0,0.0,0.0,0.0,0.0,0.0,0.0,0.0,0.0,0.0,0.0,-0.3065,-0.3846,-0.4491,-0.4491,-0.4491,-0.4491,0.0,-0.4491,0.0,0.0,0.0,0.0,0.0,0.0,0.0,0.0,0.0,0.0,0.0,0.0,0.0,0.0,0.0,0.0,0.0,0.0,0.0,0.0,0.0,0.0,0.0,0.0,0.0,0.0,0.0,0.0,0.0,0.0,0.0,0.0,0.0,-1.2549,-1.2784,-1.2784,-1.2971,0.0,-1.3307,-1.3307,-1.328,-1.3848,-1.4249,-1.4479,-1.4589,-1.4783,-1.5095,-1.5035,-1.5182,-1.5398,-1.5398,-1.5571,-1.5784,-1.5784,-1.5784,-1.5784,0.0,0.0,0.0,0.0,0.0,0.0,0.0,0.0,0.0,0.0,0.0,0.0,0.0,0.4351,0.0,0.0,0.426,0.4164,0.4109,0.396,0.3804,0.3626,0.3043,0.2382,0.1646,0.1269,0.0743,0.0,0.0,0.0,0.0,0.0,0.0,0.0,0.0,0.0,0.0,0.0,0.0,0.0,0.0,0.0,0.0,0.0,0.0,0.0,0.0,0.0,0.0,0.0,0.0,0.0,0.0,0.0,-0.4491,-0.4491,-0.4491,-0.4491,0.0,0.0,0.0,0.0,0.0,0.0,0.0,0.0,0.0,0.0,0.0,0.0,0.0,0.0,0.0,0.0,0.0,0.0,0.0,0.0,0.0,0.0,0.0,0.0,0.0,0.0,0.0,0.0,0.0,0.0,0.0,0.0,0.0,0.0,-1.271,-1.2556,-1.2569,-1.2569,-1.2723,-1.3025,-1.3025,-1.3066,-1.3227,-1.3674,-1.4108,-1.4466,-1.4369,-1.4476,-1.4743,-1.4603,-1.4716,-1.499,-1.5137,-1.5364,-1.5638,-1.5731,-1.5784,-1.5784,0.0,0.0,0.0,0.0,0.0,0.0,0.0,0.0,0.0,0.0,0.0,0.0,0.0,0.4491,0.4491,0.0,0.0,0.0,0.426,0.4139,0.4115,0.419,0.3751,0.3093,0.2232,0.1602,0.0857,0.0,0.0,0.0,0.0,0.0,0.0,0.0,0.0,0.0,0.0,0.0,0.0,0.0,0.0,0.0,0.0,0.0,0.0,0.0,0.0,0.0,-0.0196,-0.1563,0.0,0.0,0.0,0.0,-0.4491,-0.4491,-0.4491,-0.4491,0.0,0.0,0.0,0.0,0.0,0.0,0.0,0.0,0.0,0.0,0.0,0.0,0.0,0.0,0.0,0.0,0.0,0.0,0.0,0.0,0.0,0.0,0.0,0.0,0.0,0.0,0.0,0.0,0.0,0.0,0.0,0.0,-1.2824,-1.3046,-1.2844,-1.2616,-1.2378,-1.2325,-1.2489,-1.2784,-1.273,-1.2871,-1.314,-1.338,-1.3766,-1.4312,-1.4115,-1.4175,-1.4429,-1.4182,-1.4255,-1.4549,-1.485,-1.5137,-1.5431,-1.5718,-1.5784,-1.5784,0.0,0.0,0.0,0.0,0.0,0.0,0.0,0.0,0.0,0.0,0.446,0.4467,0.4487,0.4491,0.4491,0.4491,0.447,0.446,0.446,0.0,0.0,0.42,0.4304,0.3677,0.2232,0.2109,0.1386,0.0,0.0,0.0,0.0,0.0,0.0,0.0,0.0,0.0,0.0,0.0,0.0,0.0,0.0,0.0,0.0,0.0,0.0,0.0,0.0,0.0,-0.014,-0.0978,-0.1675,0.0,0.0,0.0,-0.4491,-0.4491,-0.4491,-0.4491,0.0,0.0,0.0,0.0,0.0,0.0,0.0,0.0,0.0,0.0,0.0,0.0,0.0,0.0,0.0,0.0,0.0,0.0,0.0,0.0,0.0,0.0,0.0,0.0,0.0,0.0,0.0,0.0,0.0,0.0,0.0,-1.2385,-1.2378,-1.2425,-1.2385,-1.2465,-1.2723,-1.2432,-1.2489,-1.2784,-1.2522,-1.2556,-1.2851,-1.2884,-1.3193,-1.3713,-1.368,-1.3833,-1.4142,-1.4102,-1.4255,-1.4549,-1.485,-1.5137,-1.5431,-1.5718,-1.5784,-1.5784,0.0,0.0,0.0,0.0,0.0,0.0,0.0,0.0,0.0,0.0,0.0,0.4491,0.4491,0.4491,0.4491,0.4491,0.4491,0.4491,0.4491,0.4491,0.446,0.4372,0.4012,0.3317,0.2232,0.1786,0.1062,0.0,0.0,0.0,0.0,0.0,0.0,0.0,0.0,0.0,0.0,0.0,0.0,0.0,0.0,0.0,0.0,0.0,0.0,0.0,0.0,0.0,-0.0168,-0.134,-0.1924,-0.2397,-0.3594,0.0,0.0,0.0,0.0,0.0,0.0,0.0,0.0,0.0,0.0,0.0,0.0,0.0,0.0,0.0,0.0,0.0,0.0,0.0,0.0,0.0,0.0,0.0,0.0,0.0,0.0,0.0,0.0,0.0,0.0,0.0,0.0,0.0,0.0,0.0,-1.2583,-1.2589,-1.2589,-1.2589,-1.2589,-1.2496,-1.2295,-1.2161,-1.2161,-1.2295,-1.2285,-1.2371,-1.2536,-1.2536,-1.2919,-1.36,-1.36,-1.3773,-1.4088,-1.4088,-1.4162,-1.4309,-1.4596,-1.479,-1.4937,-1.5237,-1.5344,-1.5364,0.0,0.0,0.0,0.0,0.0,0.0,0.0,0.0,0.0,0.0,0.0,0.4491,0.4491,0.0,0.0,0.0,0.4491,0.4491,0.4491,0.4322,0.4211,0.4211,0.3456,0.2676,0.1924,0.1368,0.0,0.0,0.0,0.0,0.0,0.0,0.0,0.0,0.0,0.0,0.0,0.0,0.0,0.0,0.0,0.0,0.0,0.0,0.0,0.0,0.0,0.0,-0.0196,-0.148,-0.2035,-0.2426,-0.379,0.0,0.0,0.0,0.0,0.0,0.0,0.0,0.0,0.0,0.0,0.0,0.0,0.0,0.0,0.0,0.0,0.0,0.0,0.0,0.0,0.0,0.0,0.0,0.0,0.0,0.0,0.0,0.0,0.0,0.0,0.0,0.0,0.0,0.0,0.0,-1.2656,-1.2603,-1.2563,-1.2563,-1.2489,-1.2234,-1.1799,-1.1757,-1.1757,-1.1792,-1.1977,-1.2118,-1.2191,-1.2191,-1.2639,-1.338,-1.346,-1.366,-1.3981,-1.4055,-1.4088,-1.4115,-1.4409,-1.4522,-1.4563,-1.4937,-1.5115,-1.5162,0.0,0.0,0.0,0.0,0.0,0.0,0.0,0.0,0.0,0.0,0.0,0.4491,0.4491,0.4491,0.4491,0.4491,0.4491,0.4491,0.4491,0.3846,0.3456,0.3456,0.2676,0.0,0.1174,0.0,0.0,0.0,0.0,0.0,0.0,0.0,0.0,0.0,0.0,0.0,0.0,0.0,0.0,0.0,0.0,0.0,0.0,0.0,0.0,0.0,0.0,0.0,-0.0112,-0.0895,-0.1619,-0.2343,0.0,0.0,0.0,0.0,0.0,0.0,0.0,0.0,0.0,0.0,0.0,0.0,0.0,0.0,0.0,0.0,0.0,0.0,0.0,0.0,0.0,0.0,0.0,0.0,0.0,0.0,0.0,0.0,0.0,0.0,0.0,0.0,0.0,0.0,0.0,0.0,-1.2325,-1.2064,-1.1946,-1.1946,-1.1637,-1.1449,-1.1415,-1.1415,-1.1415,-1.1415,-1.1429,-1.1617,-1.1926,-1.1926,-1.2261,-1.2851,-1.3106,-1.336,-1.3646,-1.3975,-1.4088,-1.4115,-1.4409,-1.4522,-1.4589,-1.5164,-1.5378,-1.5418,0.0,0.0,0.0,0.0,0.0,0.0,0.0,0.0,0.0,0.0,0.0,0.0,0.0,0.4042,0.3732,0.3732,0.3287,0.3231,0.3707,0.3037,0.2619,0.2619,0.1898,0.0,0.0,0.0,0.0,0.0,0.0,0.0,0.0,0.0,0.0,0.0,0.0,0.0,0.0,0.0,0.0,0.0,0.0,0.0,0.0,0.0,0.0,0.0,0.0,0.0,0.0,0.0,0.0,0.0,0.0,0.0,0.0,0.0,0.0,0.0,0.0,0.0,0.0,0.0,0.0,0.0,0.0,0.0,0.0,0.0,0.0,0.0,0.0,0.0,0.0,0.0,0.0,0.0,0.0,0.0,0.0,0.0,0.0,0.0,0.0,0.0,0.0,0.0,0.0,0.0,-1.2024,-1.196,-1.1906,-1.1906,-1.1583,-1.1336,-1.1149,-1.1149,-1.1149,-1.1149,-1.153,-1.1764,-1.1913,-1.2094,-1.2258,-1.2516,-1.2824,-1.3193,-1.3626,-1.3968,-1.4088,-1.4095,-1.4202,-1.4242,-1.4289,-1.4689,-1.4836,-1.4903,0.0,0.0,0.0,0.0,0.0,0.4491,0.0,0.0,0.0,0.0,0.0,0.0,0.0,0.0,0.2926,0.2926,0.248,0.2397,0.2899,0.2232,0.184,0.184,0.1118,0.0,0.0,0.0,0.0,0.0,0.0,0.0,0.0,0.0,0.0,0.0,0.0,0.0,0.0,0.0,0.0,-0.0028,0.0,0.0,-0.0056,0.0,0.0,0.0,0.0,0.0,0.0,0.0,0.0,0.0,0.0,0.0,0.0,0.0,0.0,0.0,0.0,0.0,0.0,0.0,0.0,0.0,0.0,0.0,0.0,0.0,0.0,0.0,0.0,0.0,0.0,0.0,0.0,0.0,0.0,0.0,0.0,0.0,0.0,0.0,0.0,0.0,0.0,0.0,0.0,0.0,-1.1724,-1.1665,-1.1564,-1.1471,-1.1236,-1.1042,-1.0881,-1.0881,-1.0881,-1.0888,-1.1276,-1.1564,-1.173,-1.1917,-1.2118,-1.2318,-1.2656,-1.3033,-1.348,-1.3814,-1.4001,-1.4088,-1.4088,-1.4088,-1.4135,-1.4529,-1.4669,-1.475,0.0,0.4491,0.4491,0.4491,0.4491,0.4491,0.446,0.0,0.0,0.0,0.0,0.0,0.0,0.0,0.0,0.2174,0.2147,0.2148,0.2174,0.148,0.1062,0.1062,0.0392,0.0,0.0,0.0,0.0,0.0,0.0,0.0,0.0,0.0,0.0,0.0,0.0,0.0,-0.0028,0.0,-0.0028,-0.0084,0.0,-0.0699,-0.0224,0.0,0.0,0.0,-0.1981,-0.2259,0.0,0.0,0.0,0.0,0.0,0.0,0.0,0.0,0.0,0.0,0.0,0.0,0.0,0.0,0.0,0.0,0.0,0.0,0.0,0.0,0.0,0.0,0.0,0.0,0.0,0.0,0.0,0.0,0.0,0.0,0.0,0.0,0.0,0.0,0.0,0.0,0.0,0.0,0.0,-1.1375,-1.1375,-1.1142,-1.0894,-1.06,-1.0593,-1.0593,-1.0593,-1.0593,-1.0593,-1.0593,-1.06,-1.0875,-1.1389,-1.1395,-1.1757,-1.2318,-1.2656,-1.2958,-1.3233,-1.3487,-1.3814,-1.4088,-1.4088,-1.4088,-1.4155,-1.4794,-1.5008,-1.5095,0.4491,0.4491,0.4491,0.4491,0.4491,0.4294,0.3732,0.0,0.0,0.0,0.0,0.0,0.0,0.0,0.1396,0.1396,0.0923,0.0838,0.1369,0.0727,0.0308,0.0308,0.0112,0.0,0.0,0.0,0.0,0.0,0.0,0.0,0.0,0.0,0.0,0.0,0.0,-0.0308,-0.0783,-0.0783,0.0,0.0,-0.1591,-0.1786,0.0,0.0,0.0,0.0,0.0,-0.3372,0.0,0.0,-0.4181,-0.4236,0.0,0.0,0.0,0.0,0.0,0.0,-0.4491,0.0,0.0,0.0,0.0,0.0,0.0,0.0,0.0,0.0,0.0,0.0,0.0,0.0,0.0,0.0,0.0,0.0,0.0,0.0,0.0,0.0,0.0,0.0,0.0,0.0,0.0,0.0,-1.0995,-1.1109,-1.1109,-1.1035,-1.0894,-1.06,-1.0593,-1.0593,-1.0593,-1.0593,-1.0593,-1.0593,-1.0807,-1.1069,-1.1395,-1.165,-1.1951,-1.2318,-1.2656,-1.2958,-1.3233,-1.3487,-1.3814,-1.4088,-1.4088,-1.4088,-1.4155,-1.4794,-1.5008,-1.5095,0.4491,0.4491,0.4405,0.4098,0.4042,0.3763,0.2954,0.0,0.0,0.0,0.0,0.0,0.0,0.0,0.0,0.0643,0.0252,0.0196,0.0615,0.0252,0.0,0.0,0.0,0.0,0.0,0.0,0.0,0.0,0.0,0.0,0.0,0.0,0.0,0.0,-0.0308,-0.0699,0.0,0.0,0.0,0.0,-0.2399,0.0,0.0,-0.2926,-0.3262,0.0,0.0,0.0,-0.4491,-0.4491,-0.4491,0.0,0.0,0.0,0.0,0.0,0.0,0.0,0.0,0.0,0.0,0.0,0.0,0.0,-0.4491,-0.4491,0.0,0.0,0.0,0.0,0.0,0.0,0.0,0.0,0.0,0.0,0.0,0.0,0.0,0.0,0.0,0.0,0.0,0.0,0.0,0.0,-1.0747,-1.0847,-1.0847,-1.0847,-1.0767,-1.0593,-1.0593,-1.0593,-1.0593,-1.0593,-1.0593,-1.0593,-1.0767,-1.1029,-1.1395,-1.1603,-1.1911,-1.2311,-1.2522,-1.2806,-1.3227,-1.3353,-1.3707,-1.4088,-1.4088,-1.4162,-1.4322,-1.4834,-1.5082,-1.5211,0.0,0.4436,0.4181,0.3511,0.3317,0.301,0.0,0.0,0.0,0.0,0.0,0.0,0.0,0.0,0.0,0.0,0.0,0.0,0.0,0.0,0.0,0.0,0.0,0.0,0.0,0.0,0.0,0.0,0.0,0.0,0.0,0.0,0.0,0.0,-0.0895,-0.1284,0.0,0.0,0.0,-0.2508,-0.3231,-0.3093,0.0,0.0,-0.4098,0.0,-0.4267,-0.4491,-0.4491,-0.4491,-0.4491,0.0,0.0,0.0,0.0,0.0,-0.4491,0.0,0.0,0.0,0.0,0.0,0.0,0.0,-0.4494,-0.4501,-0.4511,0.0,0.0,0.0,0.0,0.0,0.0,0.0,0.0,0.0,0.0,0.0,0.0,0.0,0.0,0.0,0.0,0.0,-1.0129,-1.0519,-1.0573,-1.0593,-1.0593,-1.0593,-1.0593,-1.0593,-1.0593,-1.0593,-1.0593,-1.0593,-1.0606,-1.064,-1.064,-1.0915,-1.1476,-1.1476,-1.1777,-1.2305,-1.2371,-1.2705,-1.3213,-1.328,-1.3614,-1.4088,-1.4088,-1.4262,-1.4556,-1.4901,-1.515,-1.5438,0.4491,0.4015,0.3539,0.3345,0.2843,0.2174,0.0,0.0,0.0,0.0,0.0,0.0,0.0,0.0,0.0,0.0,0.0,0.0,0.0,0.0,0.0,0.0,0.0,0.0,0.0,0.0,0.0,0.0,0.0,0.0,0.0,0.0,0.0,0.0,-0.1647,-0.2343,0.0,0.0,0.0,-0.407,-0.4208,0.0,-0.407,-0.4377,-0.4405,-0.4294,-0.446,-0.4491,-0.4491,0.0,-0.4491,-0.4491,0.0,0.0,0.0,0.0,0.0,0.0,0.0,0.0,0.0,0.0,0.0,0.0,-0.4518,-0.4586,-0.4641,0.0,0.0,0.0,0.0,0.0,0.0,0.0,0.0,0.0,0.0,0.0,0.0,0.0,0.0,0.0,0.0,0.0,-0.9383,-1.0133,-1.0452,-1.0593,-1.0593,-1.0593,-1.0593,-1.0593,-1.0593,-1.0593,-1.0593,-1.0593,-1.0713,-1.0909,-1.0909,-1.1216,-1.1784,-1.1784,-1.1971,-1.2331,-1.2819,-1.31,-1.3247,-1.3721,-1.3981,-1.4088,-1.4088,-1.4262,-1.4556,-1.4901,-1.515,-1.5438,0.4015,0.3624,0.3121,0.2343,0.1898,0.0,0.0,0.0,0.0,0.0,0.0,0.0,0.0,0.0,0.0,0.0,0.0,0.0,0.0,0.0,0.0,0.0,0.0,0.0,0.0,0.0,0.0,0.0,0.0,0.0,0.0,0.0,0.0,0.0,0.0,0.0,0.0,0.0,-0.4125,-0.4491,-0.4491,0.0,-0.4491,-0.4491,-0.4491,-0.4491,-0.4491,-0.4491,-0.4491,-0.4491,-0.4491,0.0,0.0,-0.4491,-0.4491,0.0,-0.4491,-0.4491,0.0,0.0,0.0,-0.4586,0.0,0.0,0.0,-0.4604,-0.4604,0.0,0.0,0.0,0.0,0.0,0.0,0.0,0.0,0.0,0.0,0.0,0.0,0.0,0.0,0.0,0.0,0.0,-0.9549,-1.0283,-1.0506,-1.0593,-1.0593,-1.0593,-1.0593,-1.0593,-1.0593,-1.0593,-1.0593,-1.0593,-1.0734,-1.0995,-1.0995,-1.1337,-1.1906,-1.1906,-1.2067,-1.2325,-1.2779,-1.3066,-1.324,-1.3681,-1.3955,-1.4102,-1.4249,-1.4482,-1.4776,-1.507,-1.5364,-1.5631,0.3289,0.301,0.2508,0.1312,0.0978,0.0,0.0,0.0,0.0,0.0,0.0,0.0,0.0,0.0,0.0,0.0,0.0,0.0,0.0,0.0,0.0,0.0,0.0,0.0,0.0,-0.014,-0.0224,0.0,0.0,0.0,0.0,0.0,0.0,0.0,0.0,0.0,0.0,0.0,0.0,-0.4491,0.0,-0.4515,-0.4491,-0.4491,-0.4491,-0.4491,-0.4491,-0.4491,-0.4494,-0.4525,0.0,-0.4539,-0.4569,-0.458,0.0,0.0,0.0,0.0,0.0,0.0,0.0,0.0,0.0,-0.4597,0.0,0.0,0.0,0.0,0.0,0.0,0.0,0.0,0.0,0.0,0.0,0.0,0.0,0.0,0.0,0.0,0.0,0.0,0.0,0.0,-0.993,-1.0466,-1.0559,-1.0593,-1.0593,-1.0593,-1.0593,-1.0593,-1.0593,-1.0593,-1.0593,-1.0593,-1.0767,-1.1076,-1.1076,-1.1383,-1.1986,-1.1986,-1.2084,-1.2318,-1.2717,-1.3018,-1.324,-1.3547,-1.3868,-1.4108,-1.4349,-1.4656,-1.5035,-1.5224,-1.5531,-1.5784,0.2343,0.1814,0.1284,0.1118,0.056,0.0,0.0,0.0,0.0,0.0,0.0,0.0,0.0,0.0,0.0,0.0,0.0,0.0,0.0,0.0,0.0,0.0,0.0,0.0,0.0,-0.0643,-0.0978,-0.0978,0.0,0.0,0.0,0.0,0.0,0.0,-0.4015,0.0,0.0,0.0,-0.4491,0.0,-0.4638,-0.461,0.0,-0.4491,-0.4491,-0.4491,-0.4491,-0.4491,-0.4511,0.0,-0.4663,-0.4687,0.0,-0.4867,0.0,0.0,0.0,0.0,0.0,0.0,0.0,0.0,-0.4779,0.0,0.0,0.0,0.0,0.0,0.0,0.0,0.0,0.0,0.0,0.0,0.0,0.0,0.0,0.0,0.0,0.0,0.0,0.0,0.0,0.0,0.0,-1.014,-1.0445,-1.0593,-1.0593,-1.0593,-1.0593,-1.0593,-1.0593,-1.0593,-1.0593,-1.0593,-1.0835,-1.1342,-1.1342,-1.1683,-1.2251,-1.2251,-1.2271,-1.2331,-1.2913,-1.318,-1.3253,-1.3808,-1.4055,-1.4088,-1.4122,-1.4519,-1.5015,-1.5042,-1.5357,-1.5784,0.1563,0.1312,0.0978,0.0532,0.0196,0.0,0.0,0.0,0.0,0.0,0.0,0.0,0.0,0.0,0.0,0.0,0.0,0.0,0.0,0.0,0.0,0.0,0.0,0.0,-0.1438,-0.1636,-0.173,-0.173,-0.2508,0.0,0.0,0.0,0.0,0.0,-0.4439,0.0,-0.4631,0.0,0.0,0.0,0.0,0.0,0.0,-0.4728,-0.4728,-0.4728,-0.4728,-0.4728,-0.4735,0.0,-0.4823,0.0,0.0,0.0,0.0,0.0,0.0,0.0,0.0,0.0,0.0,0.0,0.0,0.0,0.0,0.0,-0.4593,0.0,0.0,0.0,0.0,0.0,0.0,0.0,0.0,0.0,0.0,0.0,0.0,0.0,0.0,0.0,0.0,0.0,0.0,0.0,0.0,-1.0519,-1.0314,-1.0499,-1.0593,-1.0593,-1.0754,-1.0847,-1.0847,-1.0847,-1.1136,-1.1683,-1.151,-1.173,-1.2305,-1.2305,-1.2305,-1.2331,-1.2946,-1.3213,-1.3253,-1.3848,-1.4088,-1.4088,-1.4088,-1.4486,-1.5028,-1.515,-1.5478,-1.5784,0.0811,0.0,0.0,0.0,0.0,0.0,0.0,0.0,0.0,0.0,0.0,0.0,0.0,0.0,0.0,0.0,0.0,-0.0472,0.0,0.0,-0.1025,0.0,0.0,0.0,0.0,-0.2611,-0.2638,-0.2638,-0.3439,0.0,0.0,0.0,0.0,0.0,0.0,-0.4714,-0.4762,0.0,0.0,-0.4891,-0.4931,-0.5003,-0.5033,-0.4948,-0.4887,-0.4887,-0.4887,-0.4887,-0.4894,-0.4931,-0.4945,0.0,-0.5026,0.0,0.0,0.0,0.0,0.0,-0.503,0.0,0.0,0.0,0.0,0.0,0.0,0.0,0.0,0.0,0.0,0.0,0.0,0.0,0.0,0.0,0.0,0.0,0.0,0.0,0.0,0.0,0.0,0.0,0.0,0.0,0.0,0.0,0.0,0.0,-1.0127,-1.0321,-1.0506,-1.0586,-1.0874,-1.0995,-1.0995,-1.1069,-1.1369,-1.1899,-1.165,-1.181,-1.2305,-1.2305,-1.2305,-1.2331,-1.2946,-1.3213,-1.3253,-1.3848,-1.4088,-1.4095,-1.4175,-1.4516,-1.5035,-1.5204,-1.5511,-1.5784,0.0028,0.0028,0.0,0.0,0.0,0.0,0.0,0.0,0.0,0.0,0.0,0.0,0.0,0.0,0.0,0.0,0.0,-0.1651,-0.2565,0.0,-0.2626,0.0,0.0,-0.2671,0.0,0.0,-0.3737,-0.3737,-0.4503,0.0,0.0,0.0,0.0,0.0,0.0,-0.4772,-0.4881,-0.4887,-0.4887,-0.4901,-0.5036,-0.5213,-0.5347,0.0,-0.4887,-0.4887,-0.4887,0.0,0.0,-0.5046,-0.5093,0.0,0.0,0.0,0.0,0.0,0.0,0.0,0.0,0.0,0.0,-0.5093,0.0,0.0,0.0,0.0,-0.4823,0.0,0.0,0.0,0.0,0.0,0.0,0.0,0.0,0.0,0.0,0.0,0.0,0.0,0.0,0.0,0.0,0.0,0.0,0.0,0.0,0.0,-1.01,-1.0127,-1.0261,-1.0586,-1.0874,-1.0995,-1.0995,-1.1269,-1.1563,-1.1906,-1.1893,-1.2011,-1.2305,-1.2305,-1.2305,-1.2331,-1.2946,-1.3213,-1.3253,-1.3848,-1.4088,-1.4115,-1.4396,-1.4696,-1.5008,-1.5022,-1.5337,-1.5784,0.0,0.0,0.0,0.0,0.0,0.0,0.0,0.0,0.0,0.0,0.0,0.0,0.0,0.0,-0.2122,0.0,0.0,-0.2449,-0.2677,-0.2704,0.0,0.0,0.0,-0.3697,0.0,0.0,-0.4519,-0.4519,-0.4766,0.0,0.0,0.0,0.0,0.0,0.0,-0.4978,0.0,0.0,0.0,0.0,0.0,-0.5347,-0.5385,0.0,0.0,-0.5242,-0.5242,-0.5242,0.0,-0.5267,-0.5284,-0.5324,-0.5378,-0.5395,-0.5395,-0.5395,-0.5358,0.0,0.0,0.0,-0.5257,-0.5123,0.0,0.0,0.0,0.0,0.0,0.0,0.0,0.0,0.0,0.0,0.0,0.0,0.0,0.0,0.0,0.0,0.0,0.0,0.0,0.0,0.0,0.0,0.0,0.0,0.0,0.0,0.0,-1.0013,-1.0341,-1.0861,-1.1129,-1.1376,-1.1605,-1.1705,-1.1864,-1.2151,-1.1993,-1.206,-1.2305,-1.2305,-1.2412,-1.2656,-1.3033,-1.332,-1.3487,-1.3928,-1.4088,-1.4115,-1.4409,-1.4703,-1.5028,-1.5177,-1.5498,-1.5784,0.0,0.0,0.0,0.0,0.0,0.0,0.0,0.0,0.0,0.0,-0.1978,0.0,-0.3085,0.0,-0.3241,0.0,-0.3466,-0.353,-0.3709,-0.3736,0.0,-0.4486,-0.4407,0.0,0.0,0.0,0.0,-0.5077,0.0,-0.5047,0.0,0.0,0.0,0.0,0.0,0.0,0.0,0.0,-0.5395,0.0,0.0,-0.5395,0.0,0.0,-0.5395,-0.5395,0.0,-0.5395,-0.5395,-0.5395,-0.5395,-0.5395,-0.5395,-0.5395,-0.5395,-0.5395,-0.5395,-0.5395,-0.5395,-0.5395,0.0,-0.5237,-0.5213,0.0,-0.4904,0.0,0.0,0.0,0.0,0.0,0.0,0.0,0.0,0.0,0.0,0.0,0.0,-0.4576,0.0,0.0,0.0,0.0,0.0,0.0,0.0,-0.8938,-0.9218,0.0,0.0,0.0,-1.0234,-1.0854,-1.1223,-1.1482,-1.171,-1.1953,-1.2118,-1.2298,-1.2111,-1.2124,-1.2305,-1.2412,-1.2603,-1.2804,-1.318,-1.3427,-1.3626,-1.3968,-1.4088,-1.4128,-1.4522,-1.4796,-1.5042,-1.5291,-1.5578,-1.5784,0.0,0.0,0.0,0.0,-0.0032,0.0,0.0,0.0,-0.1663,0.0,-0.2756,-0.34,-0.3438,-0.3475,-0.3775,-0.4509,-0.4573,0.0,-0.5575,-0.5599,0.0,0.0,-0.5416,-0.5416,-0.5405,0.0,0.0,0.0,0.0,0.0,0.0,0.0,0.0,0.0,-0.511,0.0,-0.5395,-0.5395,-0.5395,-0.5395,-0.5395,-0.5395,-0.5395,-0.5395,0.0,-0.5395,-0.5395,-0.5395,-0.5395,-0.5395,-0.5395,-0.5395,-0.5395,-0.5395,-0.5395,-0.5395,-0.5395,-0.5395,-0.5395,-0.5395,-0.5395,-0.5395,0.0,0.0,0.0,0.0,-0.5313,0.0,0.0,0.0,0.0,0.0,0.0,0.0,0.0,0.0,0.0,0.0,0.0,0.0,0.0,0.0,0.0,0.0,-0.8898,-0.9171,-0.8951,-0.9078,0.0,0.0,0.0,-1.0593,-1.1129,-1.1395,-1.1415,-1.2017,-1.2305,-1.2305,-1.2305,-1.2311,-1.2338,-1.2656,-1.2804,-1.2857,-1.3394,-1.3613,-1.3646,-1.3968,-1.4095,-1.4168,-1.4787,-1.5028,-1.5082,-1.5317,-1.5591,-1.5784,0.0,0.0,-0.0198,0.0,-0.043,0.0,0.0,0.0,0.0,0.0,-0.3912,-0.492,-0.5598,-0.568,-0.5664,-0.5615,-0.5633,0.0,0.0,0.0,0.0,-0.5691,-0.5688,-0.564,-0.5569,-0.5532,0.0,-0.5395,0.0,0.0,-0.5337,0.0,0.0,0.0,0.0,0.0,-0.5395,-0.5395,-0.5395,-0.5395,-0.5395,-0.5395,0.0,0.0,-0.5395,-0.5395,-0.5395,-0.5395,-0.5395,-0.5395,-0.5395,-0.5395,-0.5395,-0.5395,-0.5395,-0.5395,-0.5395,-0.5395,-0.5395,-0.5395,-0.5395,-0.5395,-0.5395,-0.5354,0.0,0.0,0.0,0.0,0.0,0.0,0.0,0.0,0.0,0.0,0.0,0.0,0.0,0.0,0.0,0.0,0.0,0.0,0.0,0.0,-0.8838,-0.8884,-0.9024,-0.9264,0.0,0.0,0.0,-1.0894,-1.1236,-1.153,-1.1757,-1.2118,-1.2305,-1.2305,-1.2305,-1.2418,-1.267,-1.275,-1.3032,-1.338,-1.3533,-1.3726,-1.3981,-1.4055,-1.4215,-1.4442,-1.4823,-1.5224,-1.5618,-1.5691,-1.5718,-1.5784,0.0,0.0,0.0,-0.1839,0.0,0.0,-0.1351,0.0,0.0,-0.3979,-0.5052,0.0,-0.6431,-0.6511,-0.6419,-0.6149,-0.6132,0.0,0.0,0.0,0.0,-0.5803,-0.58,-0.5766,-0.5684,-0.5623,0.0,-0.5494,0.0,0.0,-0.5395,0.0,0.0,0.0,0.0,-0.5395,0.0,-0.5467,-0.5494,-0.5501,-0.5562,0.0,0.0,-0.5586,-0.5586,-0.5579,-0.5518,-0.5494,-0.5484,-0.5419,-0.544,-0.5484,-0.5416,-0.544,-0.5481,-0.5416,-0.5443,-0.5481,-0.5412,-0.5395,-0.5395,-0.5395,-0.5395,-0.5371,-0.525,-0.533,-0.5371,0.0,0.0,0.0,0.0,0.0,0.0,0.0,0.0,0.0,0.0,0.0,0.0,0.0,0.0,0.0,0.0,0.0,-0.8858,-0.8958,-0.9237,-0.9566,0.0,0.0,0.0,-1.0982,-1.1403,-1.1697,-1.1906,-1.2321,-1.2529,-1.2529,-1.2529,-1.269,-1.2991,-1.3119,-1.332,-1.3613,-1.374,-1.3935,-1.4088,-1.4088,-1.4255,-1.4563,-1.4983,-1.5431,-1.5784,-1.5784,-1.5784,-1.5784,0.0,0.0,0.0,0.0,0.0,0.0,0.0,-0.425,0.0,-0.5109,0.0,-0.6586,-0.6545,-0.6542,-0.6477,-0.6313,0.0,-0.6242,-0.6067,-0.6023,-0.6,-0.5867,-0.5861,-0.5854,-0.583,-0.5711,0.0,0.0,0.0,0.0,0.0,0.0,0.0,0.0,0.0,0.0,0.0,-0.5552,-0.5616,0.0,-0.5752,-0.58,-0.58,-0.5779,-0.5786,-0.5783,-0.564,-0.5603,-0.5596,-0.5477,-0.5525,-0.5593,-0.5474,-0.5518,-0.5562,-0.5463,-0.5504,-0.5535,-0.5457,-0.5409,-0.5395,-0.5395,-0.5395,-0.5395,-0.5395,-0.5395,-0.5395,-0.5395,-0.5395,-0.5354,0.0,0.0,0.0,0.0,0.0,0.0,0.0,0.0,0.0,0.0,0.0,0.0,0.0,0.0,-0.8984,-0.9198,-0.9552,0.0,0.0,0.0,0.0,0.0,-1.1598,0.0,-1.202,0.0,-1.2784,-1.2898,-1.2817,-1.2965,-1.3273,-1.3487,-1.3626,-1.3673,-1.3975,-1.4088,-1.4088,-1.4088,-1.4282,-1.4636,-1.5224,-1.5605,-1.5784,-1.5784,-1.5784,-1.5784,0.0,0.0,0.0,0.0,0.0,-0.4894,-0.578,-0.5548,-0.5311,-0.5326,-0.6294,-0.6932,-0.6685,-0.6661,-0.6552,-0.6323,-0.63,0.0,0.0,0.0,0.0,-0.6221,-0.6218,-0.6122,-0.5956,-0.5929,-0.5833,0.0,0.0,0.0,0.0,0.0,0.0,0.0,0.0,0.0,-0.5559,-0.5701,0.0,-0.5766,-0.5789,-0.58,-0.5789,-0.5671,-0.5698,-0.5783,-0.564,-0.5664,-0.5742,-0.5599,-0.5644,-0.5739,-0.5596,-0.5569,-0.5586,-0.5559,-0.5515,-0.5457,-0.5556,-0.5491,-0.5395,-0.5395,-0.5395,-0.5395,-0.5395,-0.5395,-0.5395,-0.5395,-0.5395,-0.5385,-0.5358,0.0,0.0,0.0,0.0,0.0,0.0,0.0,0.0,0.0,0.0,0.0,0.0,0.0,0.0,0.0,0.0,0.0,0.0,0.0,0.0,0.0,0.0,0.0,0.0,0.0,0.0,-1.344,-1.3025,-1.3072,-1.3527,-1.358,-1.3733,-1.4015,-1.4062,-1.4088,-1.4088,-1.4088,-1.4402,-1.4988,-1.5524,-1.5738,-1.5784,-1.5784,-1.5784,-1.5784,0.0,0.0,0.0,0.0,0.0,0.0,0.0,-0.6447,0.0,-0.6187,-0.6548,-0.6739,-0.6597,-0.6515,-0.6457,-0.6313,-0.63,-0.63,-0.63,-0.63,-0.63,-0.63,-0.63,0.0,-0.6149,-0.6071,-0.5922,-0.582,0.0,0.0,0.0,0.0,0.0,0.0,0.0,-0.5562,0.0,0.0,0.0,-0.5925,-0.6006,-0.6078,-0.6071,-0.6003,-0.6016,-0.602,-0.5871,-0.5915,-0.5993,-0.5691,-0.5739,-0.5881,-0.5661,-0.5694,-0.5789,-0.5637,-0.5589,-0.5589,-0.5589,-0.5511,-0.5416,-0.5494,-0.5453,-0.5395,-0.5395,-0.5395,-0.5395,-0.5395,-0.5395,-0.5395,-0.5395,-0.5395,0.0,0.0,0.0,0.0,0.0,0.0,0.0,0.0,0.0,0.0,0.0,0.0,0.0,0.0,0.0,0.0,0.0,0.0,0.0,0.0,0.0,0.0,0.0,0.0,0.0,-1.3373,-1.328,-1.3447,-1.3874,-1.3874,-1.3948,-1.4088,-1.4088,-1.4175,-1.4335,-1.4643,-1.493,-1.5231,-1.5658,-1.5784,-1.5784,-1.5784,-1.5784,-1.5784,0.0,-0.4751,0.0,0.0,-0.6515,0.0,-0.6849,-0.698,-0.7021,-0.6943,-0.6763,-0.659,-0.6569,-0.646,-0.6368,-0.6306,-0.63,-0.63,-0.63,-0.63,-0.63,-0.63,-0.63,-0.63,-0.63,-0.6142,-0.6027,0.0,0.0,0.0,0.0,0.0,0.0,0.0,0.0,0.0,0.0,0.0,-0.6078,-0.6091,-0.6248,-0.63,-0.6296,-0.6262,-0.6272,-0.6279,-0.6084,-0.6129,-0.6242,-0.5813,-0.5861,-0.603,-0.5769,-0.5844,-0.5946,-0.5752,-0.5739,-0.5783,-0.5705,-0.5572,-0.5518,-0.5603,-0.5556,-0.5443,-0.5443,-0.5419,-0.5395,-0.5395,-0.5395,-0.5395,-0.5395,-0.5395,0.0,0.0,0.0,0.0,0.0,0.0,0.0,0.0,0.0,0.0,0.0,0.0,0.0,0.0,0.0,-1.0593,-1.0593,-1.0895,0.0,0.0,0.0,-1.2131,-1.2492,0.0,-1.3206,0.0,-1.3527,-1.3801,-1.4088,-1.4088,-1.4088,-1.4088,-1.4155,-1.4342,-1.4656,-1.5184,-1.5398,-1.5424,-1.5718,-1.5784,-1.5784,-1.5784,-1.5784,-1.5784,0.0,0.0,0.0,0.0,0.0,0.0,0.0,-0.6896,-0.6947,-0.7061,-0.7051,-0.6933,-0.6709,-0.6668,-0.6552,-0.6323,-0.63,-0.63,-0.63,-0.63,-0.63,-0.63,-0.63,-0.63,-0.63,-0.6286,-0.6169,0.0,0.0,0.0,0.0,0.0,0.0,0.0,0.0,0.0,0.0,-0.6173,-0.6279,-0.6279,-0.6293,-0.63,-0.6282,-0.6105,-0.6139,-0.6279,-0.6084,-0.6129,-0.6272,-0.6051,-0.6101,-0.6248,-0.604,-0.5969,-0.5986,-0.5959,-0.5898,-0.583,-0.5919,-0.5878,-0.5766,-0.5779,-0.5674,-0.5569,-0.5569,-0.5494,-0.5395,-0.5395,-0.5395,-0.5395,-0.5395,-0.5395,-0.544,0.0,0.0,0.0,0.0,0.0,0.0,0.0,0.0,0.0,0.0,0.0,0.0,0.0,0.0,-1.0593,-1.0593,-1.1082,-1.1362,-1.1389,0.0,-1.2538,-1.312,-1.2945,0.0,-1.4001,-1.372,-1.3801,-1.4088,-1.4088,-1.4088,-1.4102,-1.4362,-1.4649,-1.4995,-1.5264,-1.5398,-1.5424,-1.5718,-1.5784,-1.5784,-1.5784,-1.5784,-1.5784,0.0,0.0,0.0,0.0,0.0,0.0,0.0,-0.7011,-0.7001,-0.6974,-0.6854,-0.6695,-0.6576,-0.6528,-0.6429,-0.631,-0.63,-0.63,-0.63,-0.63,-0.63,-0.63,-0.63,-0.63,-0.63,-0.63,-0.6269,0.0,0.0,0.0,0.0,0.0,0.0,0.0,0.0,-0.6081,-0.6173,-0.6272,-0.63,-0.63,-0.63,-0.63,-0.6293,-0.6231,-0.6245,-0.6289,-0.6193,-0.6245,-0.6289,-0.619,-0.6248,-0.6272,-0.6078,-0.6095,-0.6149,-0.602,-0.5949,-0.5915,-0.5976,-0.5918,-0.5823,-0.5915,-0.5827,-0.5718,-0.5718,-0.5671,-0.5599,-0.5549,-0.5457,-0.5395,-0.5395,-0.5395,-0.5416,0.0,0.0,0.0,0.0,0.0,0.0,0.0,0.0,0.0,0.0,0.0,0.0,0.0,0.0,0.0,-1.0841,-1.1042,-1.1403,-1.1931,0.0,-1.2368,-1.2965,-1.2993,-1.3206,-1.3567,-1.3794,-1.3975,-1.4095,-1.4269,-1.4442,-1.4673,-1.4917,-1.511,-1.5244,-1.5538,-1.5658,-1.5665,-1.5785,-1.5784,-1.5784,-1.5784,-1.5784,-1.5784,-0.6759,0.0,-0.6814,0.0,-0.6947,-0.698,-0.7082,-0.7061,-0.6997,-0.69,-0.6702,-0.6562,-0.6518,-0.6422,-0.6344,-0.6303,-0.63,-0.63,-0.63,-0.63,-0.63,-0.63,-0.63,0.0,-0.63,-0.63,-0.63,-0.63,-0.6149,0.0,0.0,0.0,0.0,0.0,-0.6098,-0.6159,-0.63,-0.63,-0.63,-0.63,-0.63,-0.63,-0.63,-0.63,-0.63,-0.63,-0.63,-0.63,-0.63,-0.63,-0.63,-0.6279,-0.6132,-0.6173,-0.6279,-0.6129,-0.6098,-0.6098,-0.6098,-0.6017,-0.5962,-0.6071,-0.5983,-0.5867,-0.5867,-0.5833,-0.5772,-0.5674,-0.56,-0.5525,-0.5525,-0.5491,-0.5477,-0.5518,0.0,0.0,0.0,0.0,0.0,0.0,0.0,-0.9892,-0.9813,0.0,0.0,0.0,0.0,0.0,-1.1263,-1.1169,0.0,0.0,0.0,0.0,0.0,-1.3053,-1.3253,-1.3307,-1.3848,-1.4128,-1.4222,-1.4516,-1.481,-1.5149,-1.5304,-1.5444,-1.5538,-1.5698,-1.5784,-1.5784,-1.5784,-1.5784,-1.5784,-1.5784,-1.5784,-1.5784,-0.6856,-0.6883,-0.6927,-0.7068,-0.7095,-0.7095,-0.7095,-0.6977,-0.6886,-0.6886,-0.6793,-0.6641,-0.6528,-0.6511,-0.6453,-0.6313,-0.63,-0.63,-0.63,-0.63,-0.63,0.0,0.0,-0.63,-0.63,-0.63,-0.63,-0.63,0.0,0.0,-0.6296,0.0,-0.6293,-0.6296,-0.6296,-0.6296,-0.63,-0.63,-0.63,-0.63,-0.63,-0.63,-0.63,-0.63,-0.63,-0.63,-0.63,-0.63,-0.63,-0.63,-0.63,-0.63,-0.6296,-0.6296,-0.63,-0.6296,-0.6296,-0.6296,-0.6296,-0.6296,-0.6293,-0.6296,-0.6142,-0.599,-0.599,-0.5911,-0.58,-0.58,-0.5796,-0.5796,-0.5796,-0.5681,-0.5633,-0.5772,0.0,0.0,0.0,0.0,0.0,0.0,-1.0826,-1.1269,-1.1015,0.0,0.0,0.0,0.0,0.0,0.0,0.0,0.0,-1.1899,-1.2151,0.0,-1.2784,-1.3053,-1.3313,-1.36,-1.3941,-1.4242,-1.4522,-1.4823,-1.5162,-1.5391,-1.5398,-1.5558,-1.5778,-1.5784,-1.5784,-1.5784,-1.5784,-1.5784,-1.5784,-1.5784,-1.5784,-1.5784,-0.7018,-0.7028,-0.7045,-0.7088,-0.7095,-0.7095,-0.7095,-0.7058,-0.6994,-0.69,-0.6797,-0.6681,-0.6634,-0.6536,-0.6457,0.0,-0.63,-0.63,0.0,-0.63,-0.634,-0.6439,-0.6446,-0.6494,-0.6559,-0.6497,-0.6497,-0.6559,0.0,0.0,0.0,-0.6559,-0.6559,-0.6556,-0.6491,-0.6446,-0.6436,-0.634,-0.63,-0.63,-0.63,-0.63,-0.63,-0.63,-0.63,-0.63,-0.63,-0.63,-0.63,-0.63,-0.63,-0.63,-0.63,-0.63,-0.63,-0.63,-0.63,-0.63,-0.63,-0.63,-0.63,-0.63,-0.6262,-0.6186,-0.6186,-0.6067,-0.5922,-0.5922,-0.5874,-0.58,-0.58,-0.5766,-0.5749,-0.5793,0.0,0.0,0.0,0.0,0.0,0.0,-1.0753,-1.1355,0.0,-1.1255,0.0,0.0,0.0,0.0,0.0,0.0,0.0,0.0,-1.2596,0.0,-1.306,-1.336,-1.3613,-1.3948,-1.4041,-1.4349,-1.4836,-1.5124,-1.5418,-1.5691,-1.5691,-1.5745,-1.5784,-1.5784,-1.5784,-1.5784,-1.5784,-1.5784,-1.5784,-1.5784,-1.5784,-1.5784,-0.7095,-0.7095,-0.7095,-0.7095,-0.7095,-0.7095,-0.7095,-0.7095,-0.7065,-0.6977,-0.6883,-0.6844,-0.6793,-0.6702,0.0,-0.6477,-0.6467,-0.6467,-0.6467,-0.6412,-0.6446,-0.6552,-0.6542,-0.6546,-0.6698,0.0,0.0,-0.6702,-0.6603,-0.6607,-0.6702,-0.6702,-0.6702,-0.6695,-0.6539,-0.6511,-0.6504,-0.6361,-0.63,-0.63,-0.63,-0.63,-0.63,-0.63,-0.63,-0.63,-0.63,-0.63,-0.63,-0.63,-0.63,-0.63,-0.63,-0.63,-0.63,-0.63,-0.63,-0.63,-0.63,-0.63,-0.63,-0.63,-0.63,-0.63,-0.63,-0.6186,-0.6115,-0.6115,-0.604,-0.5976,-0.5976,-0.5925,-0.5888,-0.5888,-0.5888,-0.6317,-0.7548,0.0,0.0,0.0,0.0,0.0,0.0,-1.159,0.0,0.0,0.0,0.0,0.0,0.0,0.0,-1.277,-1.2784,0.0,-1.3367,-1.3513,-1.3806,-1.4255,-1.4476,-1.477,-1.5182,-1.5424,-1.5658,-1.5784,-1.5784,-1.5784,-1.5784,-1.5784,-1.5784,-1.5784,-1.5784,-1.5784,-1.5784,-1.5784,-1.5784,-1.5784,-0.7098,-0.7095,0.0,0.0,-0.7095,0.0,-0.7095,-0.7095,-0.7095,-0.7095,-0.7088,-0.7034,-0.6913,-0.6893,-0.6832,-0.6742,0.0,0.0,0.0,-0.6566,-0.6556,-0.6709,-0.658,-0.6576,-0.6725,-0.6722,-0.6712,-0.6702,-0.6722,-0.6725,-0.6715,-0.6725,-0.6729,-0.6722,-0.6559,-0.6528,-0.6518,-0.6364,-0.63,-0.63,-0.63,-0.63,-0.63,-0.63,-0.63,-0.63,-0.63,-0.63,-0.63,-0.63,-0.63,-0.63,-0.63,-0.63,-0.63,-0.63,-0.63,-0.63,-0.63,-0.63,-0.63,-0.63,-0.63,-0.63,-0.63,-0.63,-0.63,-0.63,-0.63,-0.63,-0.63,-0.6218,-0.6119,-0.6119,-0.6193,-0.6923,-0.8921,0.0,0.0,0.0,0.0,0.0,0.0,-1.1933,-1.1933,0.0,0.0,0.0,0.0,0.0,-1.2485,-1.2777,-1.2824,-1.3119,-1.3593,-1.364,-1.3946,-1.4556,-1.5144,-1.5418,-1.5404,-1.5698,-1.5784,-1.5784,-1.5784,-1.5784,-1.5784,-1.5784,-1.5784,-1.5784,-1.5784,-1.5784,-1.5784,-1.5784,-1.5784,-1.5784,0.0,0.0,-0.7095,-0.7095,-0.7095,-0.7095,-0.7095,-0.7095,-0.7095,-0.7095,-0.7004,-0.6964,-0.7038,-0.695,-0.6913,-0.6987,-0.6831,-0.6702,-0.6702,-0.6668,-0.6715,-0.6868,-0.6841,-0.6888,-0.6991,-0.6886,-0.6817,-0.6702,-0.6926,-0.6937,-0.6836,-0.6943,-0.6994,-0.698,-0.6763,-0.6647,-0.663,-0.6409,-0.63,-0.63,-0.63,-0.63,-0.63,-0.63,-0.63,-0.63,-0.63,-0.63,-0.63,-0.63,-0.63,-0.63,-0.63,-0.63,-0.63,-0.63,-0.63,-0.63,-0.63,-0.63,-0.63,-0.63,-0.63,-0.63,-0.63,-0.63,-0.63,-0.63,-0.63,-0.63,-0.63,-0.6873,-0.7377,-0.7377,-0.8014,-0.8894,-0.9961,-1.0236,0.0,0.0,-1.2104,-1.2204,-1.2204,-1.2204,-1.2204,0.0,0.0,0.0,0.0,0.0,-1.2919,-1.279,-1.3193,-1.346,-1.36,-1.4046,-1.4496,-1.4914,-1.5451,-1.5611,-1.5404,-1.5698,-1.5784,-1.5784,-1.5784,-1.5784,-1.5784,-1.5784,-1.5784,-1.5784,-1.5784,-1.5784,-1.5784,-1.5784,-1.5784,-1.5784,-0.7112,-0.7095,-0.7095,-0.7095,-0.7095,-0.7095,-0.7095,-0.7095,-0.7095,-0.7095,-0.7031,-0.7011,-0.7088,-0.7028,-0.7011,-0.7088,-0.695,-0.6902,-0.6902,-0.6841,-0.6871,-0.6974,-0.692,-0.6953,-0.7092,-0.7021,-0.6943,-0.6902,-0.7018,-0.7058,-0.6984,-0.7061,-0.7061,-0.6991,-0.6803,-0.6661,-0.658,-0.6395,-0.63,-0.63,-0.63,-0.63,-0.63,-0.63,-0.63,-0.63,-0.63,-0.63,-0.63,-0.63,-0.63,-0.63,-0.63,-0.63,-0.63,-0.63,-0.63,-0.63,-0.63,-0.63,-0.63,-0.63,-0.63,-0.63,-0.63,-0.63,-0.6416,-0.6907,-0.6984,-0.7138,-0.7595,-0.8127,-0.8504,-0.8504,-0.8955,-0.9589,-1.0454,-1.0695,0.0,-1.1976,-1.2204,-1.2305,-1.2305,-1.2425,-1.2489,-1.2311,0.0,0.0,-1.2556,-1.308,-1.3267,-1.3005,-1.3534,-1.3873,-1.3999,-1.4623,-1.5003,-1.5209,-1.5618,-1.5698,-1.5598,-1.5711,-1.5784,-1.5784,-1.5784,-1.5784,-1.5784,-1.5784,-1.5784,-1.5784,-1.5784,-1.5784,-1.5784,-1.5784,-1.5784,-1.5784,-0.7136,-0.7149,-0.7156,-0.7136,-0.7132,-0.7122,-0.7098,-0.7095,-0.7095,-0.7095,-0.7095,-0.7095,-0.7095,-0.7095,-0.7095,-0.7095,-0.7095,-0.7095,-0.7095,-0.6984,-0.697,-0.7092,-0.698,-0.6974,-0.7095,-0.7095,-0.7085,-0.7065,-0.7065,-0.7051,-0.7031,-0.7031,-0.6977,-0.6879,-0.677,-0.6641,-0.6573,-0.6426,-0.6354,-0.633,-0.633,-0.632,-0.6303,-0.6323,-0.633,-0.633,-0.633,-0.633,-0.6327,-0.6306,-0.63,-0.63,-0.63,-0.63,-0.6303,-0.6327,-0.633,-0.6327,-0.6306,-0.63,-0.63,-0.63,-0.63,-0.63,-0.63,-0.6317,-0.6638,-0.7632,-0.7859,-0.8128,-0.9156,-0.9468,-0.9533,-0.957,-0.9695,-1.0062,-1.0954,0.0,-1.1354,-1.2187,-1.2345,-1.2371,-1.2371,-1.2677,-1.275,-1.2458,-1.2919,-1.3113,0.0,-1.3407,-1.3573,-1.3414,-1.3895,-1.4315,-1.4649,-1.515,-1.5418,-1.5464,-1.5712,-1.5784,-1.5784,-1.5784,-1.5784,-1.5784,-1.5784,-1.5784,-1.5784,-1.5784,-1.5784,-1.5784,-1.5784,-1.5784,-1.5784,-1.5784,-1.5784,-1.5784,-0.736,-0.7441,-0.7485,-0.736,-0.7336,-0.7292,-0.7115,-0.7095,-0.7095,-0.7095,-0.7095,-0.7095,-0.7095,-0.7095,-0.7095,-0.7095,-0.7095,-0.7095,-0.7095,-0.7075,-0.7071,-0.7095,-0.7075,-0.7071,-0.7095,-0.7095,-0.7038,-0.692,-0.692,-0.6852,-0.677,-0.677,-0.6824,-0.6879,-0.677,-0.6759,-0.6848,-0.6698,-0.6559,-0.6477,-0.6477,-0.6409,-0.6313,-0.6433,-0.6477,-0.6477,-0.6477,-0.6477,-0.646,-0.634,-0.63,-0.63,-0.63,-0.63,-0.6323,-0.6443,-0.6477,-0.6453,-0.633,-0.63,-0.63,-0.63,-0.63,-0.63,-0.63,-0.6395,-0.6795,-0.7897,-0.8046,-0.8317,-0.9418,-1.0138,-1.0634,-1.0864,-1.1439,-1.1976,-1.2449,0.0,-1.2114,-1.2261,-1.2563,-1.2717,-1.2717,-1.2953,-1.312,-1.3073,-1.316,-1.33,-1.3453,-1.3828,-1.4108,-1.4309,-1.4402,-1.4716,-1.5251,-1.5351,-1.5518,-1.5718,-1.5758,-1.5784,-1.5784,-1.5784,-1.5784,-1.5784,-1.5784,-1.5784,-1.5784,-1.5784,-1.5784,-1.5784,-1.5784,-1.5784,-1.5784,-1.5784,-1.5784,-1.5784,-0.7509,-0.7506,-0.7482,-0.739,-0.7302,-0.7221,-0.7105,-0.7095,-0.7095,-0.7095,-0.7095,-0.7129,-0.7255,-0.7146,-0.7162,-0.7373,-0.7312,-0.7265,-0.7265,-0.7142,-0.7095,-0.7095,-0.7095,-0.7095,-0.7095,-0.7095,-0.7065,-0.7001,-0.7001,-0.6964,-0.6896,-0.6896,-0.6893,-0.6883,-0.6854,-0.6817,-0.68,-0.6729,-0.6661,-0.6597,-0.6597,-0.6556,-0.6505,-0.6569,-0.6597,-0.6597,-0.6597,-0.6597,-0.6583,-0.6519,-0.6498,-0.6498,-0.6498,-0.6498,-0.6629,-0.7333,-0.7075,-0.658,-0.6515,-0.6498,-0.6498,-0.6498,-0.6498,-0.6696,-0.7285,-0.75,-0.7995,-0.9722,-1.0041,-1.0319,-1.14,-1.1767,-1.198,-1.2232,-1.2296,0.0,0.0,-1.2663,-1.2583,-1.2583,-1.2851,-1.3038,-1.3038,-1.3414,-1.3614,-1.3413,-1.3888,-1.4142,-1.4073,-1.4396,-1.4689,-1.4983,-1.499,-1.5197,-1.5625,-1.5631,-1.5698,-1.5784,-1.5784,-1.5784,-1.5784,-1.5784,-1.5784,-1.5784,-1.5784,-1.5784,-1.5784,-1.5784,-1.5784,-1.5784,-1.5784,-1.5784,-1.5784,-1.5784,-1.5784,-1.5784,-0.7648,-0.7611,-0.75,-0.7444,-0.7353,-0.7227,-0.7159,-0.7179,-0.7203,-0.7203,-0.7203,-0.7292,-0.7411,-0.7319,-0.7343,-0.758,-0.7492,-0.7424,-0.7424,-0.7312,-0.7169,-0.7098,-0.7095,-0.7095,-0.7095,-0.7095,-0.7095,-0.7095,-0.7061,-0.7048,-0.7048,-0.7011,-0.6957,-0.6886,-0.6886,-0.6839,-0.6803,-0.6803,-0.6783,-0.6753,-0.6753,-0.6732,-0.6705,-0.6742,-0.6753,-0.6753,-0.6753,-0.6753,-0.6749,-0.6712,-0.6702,-0.6702,-0.6702,-0.6702,-0.6871,-0.78,-0.7639,-0.7244,-0.7458,-0.7518,-0.7518,-0.7518,-0.7518,-0.7761,-0.861,-0.8841,-0.9406,-1.1381,-1.1751,-1.2079,-1.3107,-1.306,-1.2991,-1.326,0.0,0.0,0.0,-1.2938,-1.2891,-1.2891,-1.3186,-1.3414,-1.3414,-1.3948,-1.4195,-1.3926,-1.4576,-1.489,-1.473,-1.4937,-1.5197,-1.5484,-1.5498,-1.5605,-1.5778,-1.5784,-1.5784,-1.5784,-1.5784,-1.5784,-1.5784,-1.5784,-1.5784,-1.5784,-1.5784,-1.5784,-1.5784,-1.5784,-1.5784,-1.5784,-1.5784,-1.5872,-1.5925,-1.5804,-1.5871,-1.6025,-0.7794,-0.7853,-0.7857,-0.7631,-0.7682,-0.7672,-0.7397,-0.7475,-0.7567,-0.7567,-0.7567,-0.757,-0.7584,-0.7573,-0.7573,-0.7597,-0.759,-0.7584,-0.7584,-0.757,-0.7438,-0.7109,-0.7095,-0.7095,-0.7095,-0.7095,-0.7095,-0.7095,-0.6964,-0.6903,-0.69,-0.68,-0.6803,-0.6886,-0.6886,-0.6953,-0.7065,-0.7065,-0.6991,-0.6869,-0.6869,-0.6827,-0.6715,-0.6858,-0.6869,-0.6869,-0.6869,-0.6869,-0.6849,-0.6749,-0.6702,-0.6702,-0.6702,-0.6702,-0.6729,-0.6953,-0.7821,-0.8901,-0.9741,-0.9958,-0.9958,-0.9958,-0.9958,-0.9958,-1.004,-1.0151,-1.0585,-1.1804,-1.197,-1.2217,-1.3356,-1.3333,-1.3273,-1.3527,0.0,0.0,-1.3493,-1.3347,-1.3173,-1.3173,-1.3681,-1.4021,-1.4021,-1.4599,-1.4934,-1.4914,-1.4975,-1.5115,-1.5317,-1.5351,-1.5498,-1.5744,-1.5751,-1.5758,-1.5784,-1.5784,-1.5784,-1.5784,-1.5784,-1.5784,-1.5784,-1.5784,-1.5784,-1.5784,-1.5784,-1.5784,-1.5784,-1.5784,-1.5784,-1.5784,-1.5784,-1.5999,-1.6206,-1.5925,-1.6172,-1.6607,-0.7904,-0.7948,-0.7924,-0.7767,-0.775,-0.7678,-0.7456,-0.7502,-0.7567,-0.7468,-0.7539,-0.7634,-0.7723,-0.7651,-0.7675,-0.7855,-0.7787,-0.7729,-0.7729,-0.7729,-0.7597,-0.7295,-0.7146,-0.7095,-0.7095,-0.7095,-0.7095,-0.7095,-0.7041,-0.7014,-0.7014,-0.6957,-0.696,-0.7014,-0.7014,-0.7045,-0.7095,-0.7095,-0.7065,-0.7014,-0.7014,-0.6984,-0.6937,-0.6994,-0.7014,-0.7014,-0.7014,-0.7494,-0.8131,-0.8064,-0.8084,-0.8228,-0.9152,-0.8931,-0.8599,-1.0101,-1.1558,-1.2701,-1.2826,-1.1818,-1.0706,-1.0483,-1.0597,-1.0957,-1.1636,-1.1671,-1.2014,-1.3585,-1.3694,-1.3709,-1.4336,-1.4222,-1.4122,-1.4416,0.0,-1.3854,-1.4106,-1.4053,-1.4021,-1.4021,-1.4382,-1.4673,-1.4673,-1.5042,-1.5231,-1.5231,-1.5398,-1.5545,-1.5658,-1.5665,-1.5712,-1.5778,-1.5784,-1.5784,-1.5784,-1.5784,-1.5784,-1.5784,-1.5784,-1.5784,-1.5784,-1.5784,-1.5784,-1.5784,-1.5784,-1.5784,-1.5784,-1.5784,-1.5784,-1.5798,-1.6032,-1.6172,-1.6279,-1.6346,-1.6513,-1.6693,-0.7988,-0.7988,-0.7941,-0.7838,-0.7776,-0.7712,-0.7543,-0.7638,-0.7699,-0.7594,-0.7672,-0.7777,-0.7872,-0.7797,-0.7821,-0.7971,-0.7894,-0.7882,-0.7882,-0.7838,-0.7699,-0.7455,-0.7295,-0.7234,-0.7237,-0.7238,-0.7234,-0.724,-0.724,-0.724,-0.724,-0.724,-0.724,-0.7237,-0.7234,-0.7214,-0.721,-0.7119,-0.7095,-0.7098,-0.7149,-0.7214,-0.7262,-0.7703,-0.7856,-0.7893,-0.8238,-0.8964,-0.9713,-0.9605,-0.9628,-0.9878,-1.091,-1.064,-1.0329,-1.1942,-1.3377,-1.4366,-1.4166,-1.3272,-1.2367,-1.2069,-1.2137,-1.2533,-1.3294,-1.3324,-1.348,-1.4736,-1.4803,-1.4723,-1.4975,-1.4796,-1.473,-1.4975,-1.4666,-1.4436,-1.4629,-1.4663,-1.4663,-1.4663,-1.4923,-1.5149,-1.5149,-1.5357,-1.5531,-1.5531,-1.5718,-1.5784,-1.5784,-1.5784,-1.5784,-1.5784,-1.5784,-1.5784,-1.5784,-1.5784,-1.5784,-1.5784,-1.5784,-1.5784,-1.5784,-1.5784,-1.5784,-1.5784,-1.5784,-1.5784,-1.5784,-1.5784,-1.5784,-1.5811,-1.6159,-1.6326,-1.6433,-1.6633,-1.682,-1.6967,-0.7988,-0.7988,-0.7941,-0.7838,-0.7891,-0.7938,-0.7834,-0.7891,-0.7988,-0.7988,-0.7988,-0.7988,-0.7988,-0.7988,-0.7988,-0.7988,-0.7988,-0.7988,-0.7988,-0.7896,-0.775,-0.7607,-0.7455,-0.7444,-0.7597,-0.7451,-0.7448,-0.76,-0.76,-0.76,-0.76,-0.76,-0.76,-0.7594,-0.7441,-0.7419,-0.7409,-0.721,-0.7098,-0.7156,-0.7357,-0.7419,-0.757,-0.8995,-0.952,-0.9633,-1.0711,-1.1266,-1.1466,-1.1199,-1.1271,-1.1502,-1.1502,-1.1502,-1.1548,-1.1548,-1.2336,-1.3217,-1.3217,-1.4291,-1.5331,-1.5082,-1.5008,-1.5015,-1.5015,-1.5008,-1.5008,-1.5015,-1.5015,-1.5015,-1.5015,-1.5015,-1.5015,-1.5015,-1.5015,-1.5015,-1.5015,-1.5015,-1.5015,-1.5015,-1.5224,-1.5398,-1.5398,-1.5658,-1.5784,-1.5784,-1.5784,-1.5784,-1.5784,-1.5784,-1.5784,-1.5784,-1.5784,-1.5784,-1.5784,-1.5784,-1.5784,-1.5784,-1.5784,-1.5784,-1.5784,-1.5784,-1.5784,-1.5784,-1.5784,-1.5784,-1.5784,-1.5784,-1.5784,-1.5811,-1.6159,-1.6446,-1.67,-1.6707,-1.7074,-1.7535,-0.7988,-0.7988,-0.7975,-0.7931,-0.7961,-0.7938,-0.7834,-0.7891,-0.7951,-0.7892,-0.7924,-0.7988,-0.7988,-0.7988,-0.7988,-0.7988,-0.7988,-0.7988,-0.7988,-0.7948,-0.7904,-0.786,-0.7665,-0.7553,-0.7597,-0.7556,-0.7553,-0.76,-0.76,-0.76,-0.76,-0.76,-0.76,-0.7597,-0.7553,-0.7533,-0.7529,-0.7482,-0.7958,-0.8768,-0.887,-0.9443,-1.0315,-1.0743,-1.09,-1.0936,-1.1288,-1.1951,-1.2694,-1.262,-1.2643,-1.2734,-1.2957,-1.3701,-1.4472,-1.4284,-1.4598,-1.4999,-1.4798,-1.5192,-1.5578,-1.5129,-1.5162,-1.5264,-1.5264,-1.5156,-1.5122,-1.5484,-1.5404,-1.5331,-1.5531,-1.5571,-1.5571,-1.5571,-1.5571,-1.5571,-1.5571,-1.5571,-1.5571,-1.5571,-1.5651,-1.5698,-1.5698,-1.5731,-1.5784,-1.5784,-1.5784,-1.5784,-1.5784,-1.5784,-1.5784,-1.5784,-1.5784,-1.5784,-1.5784,-1.5784,-1.5784,-1.5784,-1.5784,-1.5784,-1.5784,-1.5784,-1.5784,-1.5784,-1.5784,-1.5784,-1.5798,-1.6052,-1.6019,-1.5831,-1.638,-1.6506,-1.6426,-1.6627,-1.6814,-1.6954,-0.7988,-0.7988,-0.7988,-0.7988,-0.7988,-0.7958,-0.7916,-0.7931,-0.7958,-0.7913,-0.7931,-0.7988,-0.7988,-0.7988,-0.7988,-0.7988,-0.7988,-0.7988,-0.7988,-0.7988,-0.7988,-0.7988,-0.7868,-0.7773,-0.7773,-0.7712,-0.7712,-0.7773,-0.7773,-0.7773,-0.7773,-0.7773,-0.7773,-0.777,-0.7709,-0.7682,-0.7678,-0.7624,-0.8059,-0.875,-0.8812,-0.9635,-1.0902,-1.1458,-1.2005,-1.2502,-1.2876,-1.3562,-1.4207,-1.4101,-1.4132,-1.4251,-1.4465,-1.5113,-1.5792,-1.5618,-1.5691,-1.5744,-1.5618,-1.5698,-1.5698,-1.5391,-1.5438,-1.5565,-1.5565,-1.5431,-1.5404,-1.5711,-1.5691,-1.5618,-1.5751,-1.5784,-1.5784,-1.5784,-1.5784,-1.5784,-1.5784,-1.5784,-1.5784,-1.5784,-1.5784,-1.5784,-1.5784,-1.5784,-1.5784,-1.5784,-1.5784,-1.5784,-1.5784,-1.5784,-1.5784,-1.5784,-1.5784,-1.5784,-1.5784,-1.5784,-1.5784,-1.5784,-1.5784,-1.5784,-1.5784,-1.5784,-1.5784,-1.5784,-1.5784,-1.5899,-1.6012,-1.6072,-1.6059,-1.6039,-1.64,-1.6426,-1.6306,-1.66,-1.678,-1.6881,-0.7988,-0.7988,-0.7988,-0.7988,-0.7988,-0.7988,-0.7988,-0.7988,-0.7988,-0.7988,-0.7988,-0.7988,-0.7988,-0.7988,-0.7988,-0.7988,-0.7988,-0.7988,-0.7988,-0.7988,-0.7988,-0.7988,-0.7988,-0.7988,-0.7988,-0.7902,-0.7899,-0.7988,-0.7988,-0.7988,-0.7988,-0.7988,-0.7988,-0.7985,-0.7892,-0.7831,-0.7824,-0.7692,-0.7685,-0.7837,-0.7969,-0.8883,-1.0327,-1.1574,-1.2915,-1.4184,-1.5098,-1.5605,-1.5744,-1.5524,-1.5611,-1.5784,-1.5784,-1.5784,-1.5784,-1.5784,-1.5784,-1.5784,-1.5784,-1.5784,-1.5784,-1.5784,-1.5784,-1.5784,-1.5784,-1.5784,-1.5784,-1.5784,-1.5784,-1.5784,-1.5784,-1.5784,-1.5784,-1.5784,-1.5784,-1.5784,-1.5784,-1.5784,-1.5784,-1.5784,-1.5784,-1.5784,-1.5784,-1.5784,-1.5784,-1.5784,-1.5784,-1.5784,-1.5784,-1.5784,-1.5791,-1.5818,-1.5798,-1.5804,-1.5858,-1.5879,-1.5804,-1.5784,-1.5784,-1.5784,-1.5784,-1.5784,-1.5784,-1.5784,-1.5784,-1.5985,-1.6213,-1.5972,-1.6012,-1.6239,-1.6293,-1.6279,-1.6266,-1.656,-1.684,-1.7132,-0.7988,-0.7988,-0.7988,-0.7988,-0.7988,-0.7988,-0.7988,-0.7988,-0.7988,-0.7988,-0.7988,-0.7988,-0.7988,-0.7988,-0.7988,-0.7988,-0.7988,-0.7988,-0.7988,-0.7988,-0.7988,-0.7988,-0.7988,-0.7988,-0.7988,-0.7958,-0.7958,-0.7988,-0.7988,-0.7988,-0.7988,-0.7988,-0.7988,-0.7988,-0.7955,-0.7941,-0.7938,-0.7907,-0.8525,-0.9498,-0.9535,-1.09,-1.3025,-1.3375,-1.4268,-1.5432,-1.5664,-1.5724,-1.5771,-1.5711,-1.5731,-1.5784,-1.5784,-1.5784,-1.5784,-1.5784,-1.5784,-1.5784,-1.5784,-1.5784,-1.5784,-1.5784,-1.5784,-1.5784,-1.5784,-1.5784,-1.5784,-1.5784,-1.5784,-1.5784,-1.5784,-1.5784,-1.5784,-1.5784,-1.5784,-1.5784,-1.5784,-1.5784,-1.5784,-1.5784,-1.5784,-1.5784,-1.5784,-1.5784,-1.5784,-1.5784,-1.5784,-1.5784,-1.5784,-1.5784,-1.5939,-1.6166,-1.5952,-1.6052,-1.6513,-1.6286,-1.6059,-1.5784,-1.5784,-1.5784,-1.5784,-1.5784,-1.5784,-1.5784,-1.5784,-1.5818,-1.5939,-1.6106,-1.6079,-1.5972,-1.6433,-1.6333,-1.5965,-1.6259,-1.6406,-1.6576,-0.7988,-0.7988,-0.7988,-0.7988,-0.7988,-0.7988,-0.7988,-0.7988,-0.7988,-0.7988,-0.7988,-0.7988,-0.7988,-0.7988,-0.7988,-0.7988,-0.7988,-0.7988,-0.7988,-0.7988,-0.7988,-0.7988,-0.7988,-0.7988,-0.7988,-0.7988,-0.7988,-0.7988,-0.7988,-0.7988,-0.7988,-0.7988,-0.7988,-0.7988,-0.7988,-0.7988,-0.8038,-0.8676,-0.897,-0.9167,-1.0386,-1.175,-1.3011,-1.368,-1.4704,-1.5784,-1.5784,-1.5784,-1.5784,-1.5784,-1.5784,-1.5784,-1.5784,-1.5784,-1.5784,-1.5784,-1.5784,-1.5784,-1.5784,-1.5784,-1.5784,-1.5784,-1.5784,-1.5784,-1.5784,-1.5784,-1.5784,-1.5784,-1.5784,-1.5784,-1.5784,-1.5784,-1.5784,-1.5784,-1.5784,-1.5784,-1.5784,-1.5784,-1.5784,-1.5784,-1.5784,-1.5784,-1.5784,-1.5784,-1.5784,-1.5784,-1.5784,-1.5892,-1.6032,-1.5905,-1.6025,-1.6466,-1.6192,-1.6253,-1.67,-1.642,-1.6266,-1.6246,-1.6106,-1.5965,-1.5784,-1.5784,-1.5784,-1.5784,-1.5784,-1.5912,-1.6046,-1.6052,-1.6052,-1.6059,-1.6226,-1.6099,-1.5818,-1.6166,-1.6502,-1.6804,-0.7988,-0.7988,-0.7988,-0.7988,-0.7988,-0.7988,-0.7988,-0.7988,-0.7988,-0.7988,-0.7988,-0.7988,-0.7988,-0.7988,-0.7988,-0.7988,-0.7988,-0.7988,-0.7988,-0.7988,-0.7988,-0.7988,-0.7988,-0.7988,-0.7988,-0.7988,-0.7988,-0.7988,-0.7988,-0.7988,-0.7988,-0.7988,-0.7988,-0.7988,-0.7988,-0.8137,-0.8432,-0.9509,-0.946,-0.8871,-1.1019,-1.2042,-1.2382,-1.3494,-1.4704,-1.5784,-1.5784,-1.5784,-1.5784,-1.5784,-1.5784,-1.5784,-1.5784,-1.5784,-1.5784,-1.5784,-1.5784,-1.5784,-1.5784,-1.5784,-1.5784,-1.5784,-1.5784,-1.5784,-1.5784,-1.5784,-1.5798,-1.5844,-1.5905,-1.5919,-1.5965,-1.5931,-1.5917,-1.5912,-1.5905,-1.5885,-1.5791,-1.5784,-1.5784,-1.5784,-1.5872,-1.5838,-1.5832,-1.5872,-1.5905,-1.5905,-1.5905,-1.6039,-1.6333,-1.6112,-1.6226,-1.6767,-1.65,-1.6513,-1.6854,-1.6567,-1.6589,-1.678,-1.654,-1.6266,-1.5931,-1.5925,-1.5905,-1.5905,-1.5804,-1.5972,-1.6179,-1.5932,-1.5972,-1.6186,-1.6032,-1.5952,-1.5945,-1.6293,-1.6777,-1.7246,-0.7988,-0.7988,-0.7988,-0.7988,-0.7988,-0.7988,-0.7988,-0.7988,-0.7988,-0.7988,-0.7988,-0.7988,-0.7988,-0.7988,-0.7988,-0.7988,-0.7988,-0.7988,-0.7988,-0.7988,-0.7988,-0.7988,-0.7988,-0.7988,-0.7988,-0.7988,-0.7988,-0.7988,-0.7988,-0.7988,-0.7988,-0.7988,-0.7988,-0.7988,-0.7988,-0.8627,-0.9752,-0.9899,-1.0534,-1.1409,-1.1755,-1.2571,-1.3638,-1.3824,-1.4704,-1.5784,-1.5784,-1.5784,-1.5784,-1.5784,-1.5784,-1.5784,-1.5784,-1.5784,-1.5784,-1.5784,-1.5784,-1.5784,-1.5784,-1.5784,-1.5784,-1.5784,-1.5784,-1.5784,-1.5784,-1.5784,-1.5905,-1.6159,-1.6213,-1.6286,-1.654,-1.6587,-1.6506,-1.6253,-1.6213,-1.6119,-1.5818,-1.5784,-1.5784,-1.5784,-1.6052,-1.6112,-1.5804,-1.6059,-1.6213,-1.6213,-1.6213,-1.6339,-1.6627,-1.6607,-1.674,-1.7132,-1.68,-1.6907,-1.7455,-1.7226,-1.7105,-1.7139,-1.7105,-1.6924,-1.658,-1.6326,-1.6213,-1.6199,-1.5939,-1.5852,-1.5838,-1.5798,-1.5852,-1.5884,-1.64,-1.6433,-1.6279,-1.6878,-1.7132,-1.7246,-0.7988,-0.7988,-0.7988,-0.7988,-0.7988,-0.7988,-0.7988,-0.7988,-0.7988,-0.7988,-0.7988,-0.7988,-0.7988,-0.7988,-0.7988,-0.7988,-0.7988,-0.7988,-0.7988,-0.7988,-0.7988,-0.7988,-0.7988,-0.7988,-0.7988,-0.7988,-0.8382,-0.9118,-0.8382,-0.7988,-0.8041,-0.8775,-0.9118,-0.9167,-0.985,-1.0534,-1.1121,-1.1843,-1.2086,-1.2042,-1.3499,-1.4028,-1.3974,-1.4704,-1.5289,-1.5804,-1.6019,-1.6179,-1.6293,-1.6132,-1.6079,-1.6046,-1.5879,-1.5784,-1.5784,-1.5784,-1.5945,-1.6079,-1.6079,-1.6199,-1.6319,-1.6319,-1.6319,-1.6319,-1.6319,-1.6319,-1.6306,-1.6279,-1.64,-1.6553,-1.668,-1.6707,-1.666,-1.6533,-1.6513,-1.6413,-1.6119,-1.6219,-1.6319,-1.6319,-1.6433,-1.6466,-1.6333,-1.644,-1.6513,-1.6513,-1.6513,-1.664,-1.6941,-1.6794,-1.6914,-1.7427,-1.7108,-1.7154,-1.7582,-1.7347,-1.7286,-1.744,-1.728,-1.7045,-1.67,-1.6573,-1.6513,-1.6506,-1.6373,-1.6319,-1.6319,-1.6319,-1.6319,-1.6346,-1.6607,-1.6727,-1.6844,-1.7105,-1.73,-1.746]},{"header":{"parameterUnit":"m.s-1","parameterCategory":1,"la1":30.6,"la2":28.766,"lo1":-90.7593,"lo2":-88.6598,"dy":0.0162,"dx":0.0183,"nx":116,"ny":114,"refTime":"2024-02-12T06:00:00:Z","depth":0,"parameterNumber":3,"parameterNumberName":"V-component_of_WINDS"},"data":[0.0,0.0,0.0,0.0,0.0,0.0,0.0,0.0,0.0,0.0,0.0,0.0,0.0,0.0,0.0,0.0,0.0,0.0,0.0,0.0,0.0,0.0,0.0,0.0,0.0,0.0,0.0,0.0,0.0,0.0,0.0,0.0,0.0,0.0,0.0,0.0,0.0,0.0,0.0,0.0,0.0,0.0,0.0,0.0,0.0,0.0,0.0,0.0,0.0,0.0,0.0,0.0,0.0,0.0,0.0,0.0,0.0,0.0,0.0,0.0,0.0,0.0,0.0,0.0,0.0,0.0,0.0,0.0,0.0,0.0,0.0,0.0,0.0,0.0,0.0,0.0,0.0,0.0,0.0,0.0,0.0,0.0,0.0,0.0,0.0,0.0,0.0,0.0,0.0,0.0,0.0,0.0,0.0,0.0,0.0,0.0,0.0,0.0,0.0,0.0,0.0,0.0,0.0,0.0,0.0,0.0,0.0,0.0,0.0,0.0,0.0,0.0,0.0,0.0,0.0,0.0,0.0,0.0,0.0,0.0,0.0,0.0,0.0,0.0,0.0,0.0,0.0,0.0,0.0,0.0,0.0,0.0,0.0,0.0,0.0,0.0,0.0,0.0,0.0,0.0,0.0,0.0,0.0,0.0,0.0,0.0,0.0,0.0,0.0,0.0,0.0,0.0,0.0,0.0,0.0,0.0,0.0,0.0,0.0,0.0,0.0,0.0,0.0,0.0,0.0,0.0,0.0,0.0,0.0,0.0,0.0,0.0,0.0,0.0,0.0,0.0,0.0,0.0,0.0,0.0,0.0,0.0,0.0,0.0,0.0,0.0,0.0,0.0,0.0,0.0,0.0,0.0,0.0,0.0,0.0,0.0,0.0,0.0,0.0,0.0,0.0,0.0,0.0,0.0,0.0,0.0,0.0,0.0,0.0,0.0,0.0,0.0,0.0,0.0,0.0,0.0,0.0,0.0,0.0,0.0,0.0,0.0,0.0,0.0,0.0,0.0,0.0,0.0,0.0,0.0,0.0,0.0,0.0,0.0,0.0,0.0,0.0,0.0,0.0,0.0,0.0,0.0,0.0,0.0,0.0,0.0,0.0,0.0,0.0,0.0,0.0,0.0,0.0,0.0,0.0,0.0,0.0,0.0,0.0,0.0,0.0,0.0,0.0,0.0,0.0,0.0,0.0,0.0,0.0,0.0,0.0,0.0,0.0,0.0,0.0,0.0,0.0,0.0,0.0,0.0,0.0,0.0,0.0,0.0,0.0,0.0,0.0,0.0,0.0,0.0,0.0,0.0,0.0,0.0,0.0,0.0,0.0,0.0,0.0,0.0,0.0,0.0,0.0,0.0,0.0,0.0,0.0,0.0,0.0,0.0,0.0,0.0,0.0,0.0,0.0,0.0,0.0,0.0,0.0,0.0,0.0,0.0,0.0,0.0,0.0,0.0,0.0,0.0,0.0,0.0,0.0,0.0,0.0,0.0,0.0,0.0,0.0,0.0,0.0,0.0,0.0,0.0,0.0,0.0,0.0,0.0,0.0,0.0,0.0,0.0,0.0,0.0,0.0,0.0,0.0,0.0,0.0,0.0,0.0,0.0,0.0,0.0,0.0,0.0,0.0,0.0,0.0,0.0,0.0,0.0,0.0,0.0,0.0,0.0,0.0,0.0,0.0,0.0,0.0,0.0,0.0,0.0,0.0,0.0,0.0,0.0,0.0,0.0,0.0,0.0,0.0,0.0,0.0,0.0,0.0,0.0,0.0,0.0,0.0,0.0,0.0,0.0,0.0,0.0,0.0,0.0,0.0,0.0,0.0,0.0,0.0,0.0,0.0,0.0,0.0,0.0,0.0,0.0,0.0,0.0,0.0,0.0,0.0,0.0,0.0,0.0,0.0,0.0,0.0,0.0,0.0,0.0,0.0,0.0,0.0,0.0,0.0,0.0,0.0,0.0,0.0,0.0,0.0,0.0,0.0,0.0,0.0,0.0,0.0,0.0,0.0,0.0,0.0,0.0,0.0,0.0,0.0,0.0,0.0,0.0,0.0,0.0,0.0,0.0,0.0,0.0,0.0,0.0,0.0,0.0,0.0,0.0,0.0,0.0,0.0,0.0,0.0,0.0,0.0,0.0,0.0,0.0,0.0,0.0,0.0,0.0,0.0,0.0,0.0,0.0,0.0,0.0,0.0,0.0,0.0,0.0,0.0,0.0,0.0,0.0,0.0,0.0,0.0,0.0,0.0,0.0,0.0,0.0,0.0,0.0,0.0,0.0,0.0,0.0,0.0,0.0,0.0,0.0,0.0,0.0,0.0,0.0,0.0,0.0,0.0,0.0,0.0,0.0,0.0,0.0,0.0,0.0,0.0,0.0,0.0,0.0,0.0,0.0,0.0,0.0,0.0,0.0,0.0,0.0,0.0,0.0,0.0,0.0,0.0,0.0,0.0,0.0,0.0,0.0,0.0,0.0,0.0,0.0,0.0,0.0,0.0,0.0,0.0,0.0,0.0,0.0,0.0,0.0,0.0,0.0,0.0,0.0,0.0,0.0,0.0,0.0,0.0,0.0,0.0,0.0,0.0,0.0,0.0,0.0,0.0,0.0,0.0,0.0,0.0,0.0,0.0,0.0,0.0,0.0,0.0,0.0,0.0,0.0,0.0,0.0,0.0,0.0,0.0,0.0,0.0,0.0,0.0,0.0,0.0,0.0,0.0,0.0,0.0,0.0,0.0,0.0,0.0,0.0,0.0,0.0,0.0,0.0,0.0,0.0,0.0,0.0,0.0,0.0,0.0,0.0,0.0,0.0,0.0,0.0,0.0,0.0,0.0,0.0,0.0,0.0,0.0,0.0,0.0,0.0,0.0,0.0,0.0,0.0,0.0,0.0,0.0,0.0,0.0,0.0,0.0,0.0,0.0,0.0,0.0,0.0,0.0,0.0,0.0,0.0,0.0,0.0,0.0,0.0,0.0,0.0,0.0,0.0,0.0,0.0,0.0,0.0,0.0,0.0,0.0,0.0,0.0,0.0,0.0,0.0,0.0,0.0,0.0,0.0,0.0,0.0,0.0,0.0,0.0,0.0,0.0,0.0,0.0,0.0,0.0,0.0,0.0,0.0,0.0,0.0,0.0,0.0,0.0,0.0,0.0,0.0,0.0,0.0,0.0,0.0,0.0,0.0,0.0,0.0,0.0,0.0,0.0,0.0,0.0,0.0,0.0,0.0,0.0,0.0,0.0,0.0,0.0,0.0,0.0,0.0,0.0,0.0,0.0,0.0,0.0,0.0,0.0,0.0,0.0,0.0,0.0,0.0,0.0,0.0,0.0,0.0,0.0,0.0,0.0,0.0,0.0,0.0,0.0,0.0,0.0,0.0,0.0,0.0,0.0,0.0,0.0,0.0,0.0,0.0,0.0,0.0,0.0,0.0,0.0,0.0,0.0,0.0,0.0,0.0,0.0,0.0,0.0,0.0,0.0,0.0,0.0,0.0,0.0,0.0,0.0,0.0,0.0,0.0,0.0,0.0,0.0,0.0,0.0,0.0,0.0,0.0,0.0,0.0,0.0,0.0,0.0,0.0,0.0,0.0,0.0,0.0,0.0,0.0,0.0,0.0,0.0,0.0,0.0,0.0,0.0,0.0,0.0,0.0,0.0,0.0,0.0,0.0,0.0,0.0,0.0,0.0,0.0,0.0,0.0,0.0,0.0,0.0,0.0,0.0,0.0,0.0,0.0,0.0,0.0,0.0,0.0,0.0,0.0,0.0,0.0,0.0,0.0,0.0,0.0,0.0,0.0,0.0,0.0,0.0,0.0,0.0,0.0,0.0,0.0,0.0,0.0,0.0,0.0,0.0,0.0,0.0,0.0,0.0,0.0,0.0,0.0,0.0,0.0,0.0,0.0,0.0,0.0,0.0,0.0,0.0,0.0,0.0,0.0,0.0,0.0,0.0,0.0,0.0,0.0,0.0,0.0,0.0,0.0,0.0,0.0,0.0,0.0,0.0,0.0,0.0,0.0,0.0,0.0,0.0,0.0,0.0,0.0,0.0,0.0,0.0,0.0,0.0,0.0,0.0,0.0,0.0,0.0,0.0,0.0,0.0,0.0,0.0,0.0,0.0,0.0,0.0,0.0,0.0,0.0,0.0,0.0,0.0,0.0,0.0,0.0,0.0,0.0,0.0,0.0,0.0,0.0,0.0,0.0,0.0,0.0,0.0,0.0,0.0,0.0,0.0,0.0,0.0,0.0,0.0,0.0,0.0,0.0,0.0,0.0,0.0,0.0,0.0,0.0,0.0,0.0,0.0,0.0,0.0,0.0,0.0,0.0,0.0,0.0,0.0,0.0,0.0,0.0,0.0,0.0,0.0,0.0,0.0,0.0,0.0,0.0,0.0,0.0,0.0,0.0,0.0,0.0,0.0,0.0,0.0,0.0,0.0,0.0,0.0,0.0,0.0,0.0,0.0,0.0,0.0,0.0,0.0,0.0,0.0,0.0,0.0,0.0,0.0,0.0,0.0,0.0,0.0,0.0,0.0,0.0,0.0,0.0,0.0,0.0,0.0,0.0,0.0,0.0,0.0,0.0,0.0,0.0,0.0,0.0,0.0,0.0,0.0,0.0,0.0,0.0,0.0,0.0,0.0,0.0,0.0,0.0,0.0,0.0,0.0,0.0,0.0,0.0,0.0,0.0,0.0,0.0,0.0,0.0,0.0,0.0,0.0,0.0,0.0,0.0,0.0,0.0,0.0,0.0,0.0,0.0,0.0,0.0,0.0,0.0,0.0,0.0,0.0,0.0,0.0,0.0,0.0,0.0,0.0,0.0,0.0,0.0,0.0,0.0,0.0,0.0,0.0,0.0,0.0,0.0,0.0,0.0,0.0,0.0,0.0,0.0,0.0,0.0,0.0,0.0,0.0,0.0,0.0,0.0,0.0,0.0,0.0,0.0,0.0,0.0,0.0,0.0,0.0,0.0,0.0,0.0,0.0,0.0,0.0,0.0,0.0,0.0,0.0,0.0,0.0,0.0,0.0,0.0,0.0,0.0,0.0,0.0,0.0,0.0,0.0,0.0,0.0,0.0,0.0,0.0,0.0,0.0,0.0,0.0,0.0,0.0,0.0,0.0,0.0,0.0,0.0,0.0,0.0,0.0,0.0,0.0,0.0,0.0,0.0,0.0,0.0,0.0,0.0,0.0,0.0,0.0,0.0,0.0,0.0,0.0,0.0,0.0,0.0,0.0,0.0,0.0,0.0,0.0,0.0,0.0,0.0,0.0,0.0,0.0,0.0,0.0,0.0,0.0,0.0,0.0,0.0,0.0,0.0,0.0,0.0,0.0,0.0,0.0,0.0,0.0,0.0,0.0,0.0,0.0,0.0,0.0,0.0,0.0,0.0,0.0,0.0,0.0,0.0,0.0,0.0,0.0,0.0,0.0,0.0,0.0,0.0,0.0,0.0,0.0,0.0,0.0,0.0,0.0,0.0,0.0,0.0,0.0,0.0,0.0,0.0,0.0,0.0,0.0,0.0,0.0,0.0,0.0,0.0,0.0,0.0,0.0,0.0,0.0,0.0,0.0,0.0,0.0,0.0,0.0,0.0,0.0,0.0,0.0,0.0,0.0,0.0,0.0,0.0,0.0,0.0,0.0,0.0,0.0,0.0,0.0,0.0,0.0,0.0,0.0,0.0,0.0,0.0,0.0,0.0,0.0,0.0,0.0,0.0,0.0,0.0,0.0,0.0,0.0,0.0,0.0,0.0,0.0,0.0,0.0,0.0,0.0,0.0,0.0,0.0,0.0,0.0,0.0,0.0,0.0,0.0,0.0,0.0,0.0,0.0,0.0,0.0,0.0,0.0,0.0,0.0,0.0,0.0,0.0,0.0,0.0,0.0,0.0,0.0,0.0,0.0,0.0,0.0,0.0,0.0,0.0,0.0,0.0,0.0,0.0,0.0,0.0,0.0,0.0,0.0,0.0,0.0,0.0,0.0,0.0,0.0,0.0,0.0,0.0,0.0,0.0,0.0,0.0,0.0,0.0,0.0,0.0,0.0,0.0,0.0,0.0,0.0,0.0,0.0,0.0,0.0,0.0,0.0,0.0,0.0,0.0,0.0,0.0,0.0,1.8762,0.0,0.0,0.0,0.0,0.0,0.0,0.0,0.0,0.0,0.0,0.0,0.0,0.0,0.0,0.0,0.0,0.0,0.0,0.0,0.0,0.0,0.0,0.0,0.0,0.0,0.0,0.0,1.8121,1.8172,1.7817,1.8459,1.8696,1.8352,1.8662,1.9034,1.9423,1.9423,1.9625,2.0002,2.0002,2.053,2.1559,2.1628,2.1957,2.2465,0.0,0.0,0.0,0.0,0.0,0.0,0.0,0.0,0.0,0.0,0.0,0.0,0.0,0.0,0.0,0.0,0.0,0.0,0.0,0.0,0.0,0.0,0.0,0.0,0.0,0.0,0.0,0.0,0.0,0.0,0.0,0.0,0.0,0.0,0.0,0.0,0.0,0.0,0.0,0.0,0.0,0.0,0.0,0.0,0.0,0.0,0.0,0.0,0.0,0.0,0.0,0.0,0.0,0.0,0.0,0.0,0.0,0.0,0.0,0.0,0.0,0.0,0.0,0.0,0.0,0.0,0.0,0.0,0.0,0.0,0.0,2.0046,0.0,0.0,0.0,0.0,0.0,0.0,0.0,0.0,0.0,0.0,0.0,0.0,0.0,0.0,0.0,0.0,0.0,0.0,0.0,0.0,0.0,0.0,0.0,1.7986,1.8036,1.8172,1.8741,1.8826,1.8222,1.9309,1.9727,1.9113,1.9676,2.0082,2.0217,2.0217,2.0268,2.039,2.0779,2.1911,2.3686,2.4533,2.4892,2.4822,0.0,0.0,0.0,0.0,0.0,0.0,0.0,0.0,0.0,0.0,0.0,0.0,0.0,0.0,0.0,0.0,0.0,0.0,0.0,0.0,0.0,0.0,0.0,0.0,0.0,0.0,0.0,0.0,0.0,0.0,0.0,0.0,0.0,0.0,0.0,0.0,0.0,0.0,0.0,0.0,0.0,0.0,0.0,0.0,0.0,0.0,0.0,0.0,0.0,0.0,0.0,0.0,0.0,0.0,0.0,0.0,0.0,0.0,0.0,0.0,0.0,0.0,0.0,0.0,2.02,2.0212,2.0212,2.0212,2.0288,2.0387,2.0561,2.0384,1.9968,0.0,0.0,0.0,0.0,0.0,0.0,0.0,0.0,0.0,0.0,0.0,0.0,0.0,0.0,0.0,0.0,0.0,0.0,0.0,0.0,0.0,0.0,1.8741,1.9012,1.9647,1.9799,1.9816,1.9714,1.9883,1.9951,1.9849,1.9951,2.0318,2.1021,2.1038,2.1363,2.1992,2.3919,2.5642,2.7165,2.8658,2.9337,2.9225,2.6465,0.0,0.0,0.0,0.0,0.0,0.0,0.0,0.0,0.0,0.0,0.0,0.0,0.0,0.0,0.0,0.0,0.0,0.0,0.0,0.0,0.0,0.0,0.0,0.0,0.0,0.0,0.0,0.0,0.0,0.0,0.0,0.0,0.0,0.0,0.0,0.0,0.0,0.0,0.0,0.0,0.0,0.0,0.0,1.9577,1.9402,0.0,0.0,0.0,0.0,0.0,0.0,0.0,0.0,0.0,0.0,0.0,0.0,0.0,0.0,2.0221,2.1197,2.1689,2.1719,2.1833,2.1882,2.1882,2.1882,2.1895,2.1921,2.1941,0.0,1.9819,1.9821,0.0,0.0,0.0,0.0,0.0,0.0,0.0,0.0,0.0,0.0,0.0,0.0,0.0,0.0,0.0,0.0,0.0,0.0,0.0,0.0,0.0,1.9925,2.0128,2.0002,2.1941,2.2262,2.0137,2.1975,2.2398,2.0754,2.1062,2.1451,2.1803,2.182,2.2581,2.4139,2.655,2.8545,3.0087,3.1341,3.1865,3.1719,3.0301,2.8779,2.72,2.6043,0.0,0.0,0.0,0.0,0.0,0.0,0.0,0.0,0.0,0.0,0.0,0.0,0.0,0.0,0.0,0.0,0.0,0.0,0.0,0.0,0.0,0.0,0.0,0.0,0.0,0.0,0.0,0.0,0.0,0.0,0.0,0.0,0.0,0.0,0.0,0.0,0.0,0.0,0.0,1.9506,1.9449,1.9471,1.9365,1.9297,0.0,0.0,0.0,0.0,0.0,0.0,0.0,0.0,0.0,2.0479,2.0974,2.1267,2.1335,2.1784,2.2044,2.2102,2.2161,2.2195,2.2195,2.2195,2.2195,2.2195,2.2195,2.176,2.1054,2.1155,2.0897,2.0421,0.0,0.0,0.0,0.0,0.0,1.9685,0.0,0.0,0.0,0.0,0.0,0.0,0.0,0.0,0.0,0.0,0.0,0.0,2.0724,2.1735,2.2158,2.1755,2.4257,2.4543,2.1366,2.3412,2.3782,2.158,2.2006,2.2296,2.2296,2.2854,2.4325,2.6742,2.9227,3.1341,3.3095,3.4308,3.4818,3.4661,3.4526,3.2437,2.8925,2.7512,2.6337,0.0,0.0,0.0,0.0,0.0,0.0,0.0,0.0,0.0,0.0,0.0,0.0,0.0,0.0,0.0,0.0,0.0,0.0,0.0,0.0,0.0,0.0,0.0,0.0,0.0,0.0,0.0,0.0,0.0,0.0,0.0,0.0,0.0,0.0,0.0,0.0,0.0,0.0,1.9616,1.9642,1.9532,1.9767,1.9848,0.0,0.0,0.0,0.0,0.0,0.0,2.1367,2.129,2.129,2.1357,2.186,2.2127,2.2135,2.2533,2.2674,2.2576,2.2667,2.2716,2.2716,2.2716,2.2716,2.2716,2.2716,2.2671,2.259,2.2126,2.1582,2.1065,2.0759,2.0233,1.9676,1.9732,1.9688,1.9728,0.0,0.0,0.0,0.0,0.0,0.0,0.0,0.0,0.0,0.0,0.0,2.001,2.2902,2.4526,2.5642,2.6302,2.6539,2.598,2.4372,2.3139,2.2398,2.2245,2.2279,2.2296,2.2296,2.4358,2.6877,2.9869,3.2124,3.4341,3.657,3.8367,3.9173,3.9146,3.8637,3.6164,3.2161,2.9053,2.8136,2.8496,0.0,0.0,0.0,0.0,0.0,0.0,0.0,0.0,0.0,0.0,0.0,0.0,0.0,0.0,0.0,0.0,0.0,0.0,0.0,0.0,0.0,0.0,0.0,0.0,0.0,0.0,0.0,0.0,0.0,0.0,0.0,0.0,0.0,0.0,0.0,0.0,0.0,0.0,0.0,1.9427,2.0719,0.0,0.0,0.0,0.0,2.1721,2.1461,2.1309,2.1309,2.1003,2.0972,2.13,2.2434,2.2843,2.2476,2.3923,2.4313,2.3629,2.3938,2.409,2.409,2.409,2.409,2.409,2.409,2.4201,2.4178,2.1831,2.0741,2.0468,1.9695,1.9364,1.935,1.9541,1.9614,1.9728,0.0,0.0,0.0,0.0,0.0,0.0,0.0,0.0,1.8704,1.9223,2.0336,2.2226,2.5203,2.6877,2.8078,2.8822,2.9771,2.9061,2.6116,2.5423,2.4712,2.3763,2.2818,2.2955,2.4375,2.6623,2.9245,3.2222,3.4962,3.6958,3.8251,3.9367,3.9998,4.0197,4.0023,3.8938,3.7019,3.2706,2.9861,2.8092,2.6485,2.5134,0.0,0.0,0.0,0.0,0.0,0.0,0.0,0.0,0.0,0.0,0.0,0.0,0.0,0.0,0.0,0.0,0.0,0.0,0.0,0.0,0.0,0.0,0.0,0.0,0.0,0.0,0.0,0.0,0.0,0.0,0.0,0.0,0.0,0.0,0.0,0.0,0.0,2.161,2.1757,0.0,0.0,2.22,2.2335,2.2557,2.2535,2.2818,2.352,2.2783,2.2846,2.3963,2.392,2.3796,2.3667,2.4425,2.4442,2.3703,2.4036,2.419,2.419,2.419,2.419,2.419,2.419,2.4247,2.4201,2.28,2.2306,2.2361,2.1545,2.0891,2.0348,1.9889,2.0006,2.049,0.0,0.0,0.0,0.0,0.0,0.0,0.0,0.0,1.8914,1.9435,2.1357,2.39,2.7114,2.9281,3.069,3.1193,3.1901,3.0726,2.6987,2.6017,2.5033,2.3799,2.3545,2.4325,2.6302,2.9059,3.1816,3.4539,3.7043,3.865,3.9402,4.0065,4.0491,4.0713,4.081,4.0703,4.0166,3.6578,3.3036,2.9659,2.7769,2.6874,2.6487,0.0,0.0,0.0,0.0,0.0,0.0,0.0,0.0,0.0,0.0,0.0,0.0,0.0,0.0,0.0,0.0,0.0,0.0,0.0,0.0,0.0,0.0,0.0,0.0,0.0,0.0,0.0,0.0,0.0,0.0,0.0,0.0,0.0,0.0,0.0,2.2162,2.3263,2.34,2.3511,2.3786,2.384,2.3915,2.4004,2.4001,2.424,2.4839,2.4098,2.416,2.5291,2.4954,2.4539,2.4164,2.4628,2.4361,2.3369,2.3816,2.4026,2.4044,2.4151,2.4141,2.4026,2.4026,2.4026,2.3989,2.3468,2.3427,2.3624,2.2555,2.1788,2.122,2.0678,2.0751,2.1252,0.0,0.0,0.0,0.0,0.0,0.0,0.0,1.7707,1.866,1.9395,2.1809,2.4898,2.8654,3.1661,3.347,3.3584,3.2763,3.0697,2.7115,2.4696,2.3105,2.2431,2.4494,2.6387,2.7942,3.1576,3.459,3.688,3.8311,3.9394,4.0121,4.0631,4.088,4.0915,4.1266,4.1411,4.1377,4.0382,3.7661,3.3678,2.9641,2.9231,3.058,0.0,0.0,0.0,0.0,0.0,0.0,0.0,0.0,0.0,0.0,0.0,0.0,0.0,0.0,0.0,0.0,0.0,0.0,0.0,0.0,0.0,0.0,0.0,0.0,0.0,0.0,0.0,0.0,0.0,0.0,0.0,0.0,0.0,2.3061,2.3768,2.4281,2.4337,2.5695,2.6337,2.554,2.6143,2.6407,2.6033,2.5661,2.5327,2.5054,2.4722,2.4692,2.5046,2.5425,2.5103,2.3957,2.4662,2.4261,2.2742,2.3405,2.37,2.3692,2.4016,2.3996,2.3703,2.3703,2.3703,2.3714,2.3714,2.3907,2.4043,2.2455,2.1831,2.1831,2.1812,2.1812,2.1959,0.0,0.0,0.0,0.0,0.0,0.0,0.0,1.7549,1.8582,1.9063,2.2562,2.642,3.0176,3.2314,3.4139,3.5759,3.2762,3.0098,2.8498,2.5258,2.3782,2.4646,2.6302,2.8652,3.1779,3.3909,3.6113,3.8403,3.9351,3.991,4.0096,4.0237,4.0546,4.0909,4.1456,4.1924,4.2297,4.1844,4.0653,3.8728,3.4656,3.244,3.1339,0.0,0.0,0.0,0.0,0.0,0.0,0.0,0.0,0.0,0.0,0.0,0.0,0.0,0.0,0.0,0.0,0.0,0.0,0.0,0.0,0.0,0.0,0.0,0.0,0.0,0.0,0.0,0.0,0.0,0.0,0.0,0.0,2.475,2.475,2.5438,2.6363,2.7537,2.7567,2.7383,2.7155,2.6332,2.587,2.5979,2.5232,2.5072,2.5757,2.5475,2.5589,2.6211,2.6351,2.5996,2.514,2.5571,2.5046,2.3565,2.3945,2.3863,2.3346,2.3426,2.3555,2.3703,2.3703,2.3837,2.4064,2.4064,2.4132,2.4098,2.307,2.2666,2.2611,2.2014,2.218,2.2795,0.0,0.0,0.0,0.0,0.0,0.0,0.0,1.7847,1.895,1.9181,2.3209,2.7148,2.9974,3.1712,3.3143,3.4398,3.1343,2.8722,2.7247,2.5378,2.4983,0.0,0.0,3.1458,3.4247,3.6113,3.7821,3.9469,3.9893,4.0096,4.0096,4.0096,4.0279,4.0601,4.1155,4.175,4.2327,4.2431,4.2318,4.1882,3.915,3.6976,3.508,3.2473,3.2014,3.2488,3.0336,3.0271,3.0911,2.8875,0.0,0.0,0.0,0.0,0.0,0.0,0.0,0.0,0.0,0.0,0.0,0.0,0.0,0.0,0.0,0.0,0.0,0.0,0.0,0.0,0.0,0.0,0.0,0.0,2.6153,2.7145,2.7816,2.7732,2.8198,2.9812,2.9586,2.9193,2.8833,2.7997,2.7291,2.6829,2.6538,2.6525,2.6799,2.6944,2.7063,2.7165,2.7165,2.6674,2.5609,2.549,2.4844,2.369,2.365,2.341,2.2996,2.3129,2.3224,0.0,2.3288,2.3392,2.3566,2.3566,2.366,0.0,0.0,0.0,0.0,0.0,2.3088,2.3566,0.0,0.0,0.0,0.0,0.0,0.0,0.0,1.8241,1.9395,1.9437,2.3603,2.7131,2.8587,3.0179,3.1143,3.1155,2.914,2.6989,2.4979,2.538,0.0,2.8348,3.1779,3.4366,3.5938,3.8058,3.9453,4.0096,4.0096,4.0096,4.0096,4.0197,4.018,4.0121,4.0844,4.1403,4.1853,4.253,4.3086,4.3441,4.2708,4.1646,4.0007,3.6129,3.631,3.8241,3.5114,3.3872,3.3442,3.159,0.0,0.0,0.0,0.0,0.0,0.0,0.0,0.0,0.0,0.0,0.0,0.0,0.0,0.0,0.0,0.0,0.0,0.0,0.0,0.0,0.0,0.0,0.0,0.0,2.8216,2.9794,3.1323,3.0393,3.0032,3.1378,3.1544,3.1219,3.0411,3.0247,2.9629,2.8255,2.8679,2.8679,2.796,0.0,0.0,0.0,0.0,2.7249,2.5846,2.5134,2.4372,2.3644,2.3138,2.2868,2.2795,2.3,2.2947,2.2708,2.2708,2.2721,2.2759,2.2797,2.3009,2.3369,2.3927,2.4113,2.4094,2.417,2.417,0.0,0.0,0.0,0.0,0.0,0.0,0.0,0.0,1.7665,1.8729,1.9051,2.3013,2.615,2.7046,2.8241,2.9347,3.0244,2.7486,2.5877,2.6269,0.0,2.823,3.2154,3.4146,3.6157,3.8294,3.9368,3.996,4.0096,4.0096,4.0096,4.0113,4.0696,4.0663,4.0172,4.1963,4.2387,4.1888,4.3084,4.3539,4.3496,4.3331,4.2461,4.1025,3.8883,3.8216,3.8218,3.6369,3.7048,3.8353,3.5477,3.4731,3.4507,3.1621,0.0,0.0,0.0,0.0,0.0,0.0,0.0,0.0,0.0,0.0,0.0,0.0,0.0,0.0,0.0,0.0,0.0,0.0,0.0,0.0,2.8308,2.9898,3.1274,3.2228,3.2669,3.2761,3.2399,3.2375,3.2063,3.125,3.0581,3.0066,2.9774,2.9296,2.8935,2.8773,2.9482,0.0,2.8807,2.8773,2.8315,2.7384,2.664,2.5896,2.5169,0.0,0.0,2.3255,2.2729,2.2554,2.2708,2.2708,2.286,2.3129,2.3392,2.3703,2.3996,2.3847,2.3621,2.3448,2.3996,2.4026,2.3845,0.0,0.0,0.0,0.0,0.0,0.0,0.0,1.7972,1.8851,1.9435,2.2427,2.478,2.5523,2.5865,2.6302,2.6951,2.51,2.4853,0.0,2.8315,3.0784,3.4912,3.6518,3.8176,4.0054,4.046,4.0815,4.1213,4.1213,4.1213,4.123,4.1576,4.1356,4.0705,4.2041,4.2318,4.1871,4.2853,4.3358,4.3515,4.3515,4.3102,4.24,4.1572,4.1233,4.1046,3.9914,4.0306,4.0922,3.8053,3.6922,3.6173,3.3237,3.0852,2.8909,0.0,0.0,0.0,0.0,0.0,0.0,0.0,0.0,0.0,0.0,0.0,0.0,0.0,0.0,2.6374,0.0,0.0,2.9531,3.1146,3.2399,3.3495,3.4339,3.4798,3.4596,3.3348,3.3201,3.281,3.1796,3.1344,3.0856,3.0249,3.017,3.0058,2.9848,3.0548,3.0523,2.9585,2.955,2.9178,2.8416,2.7266,2.6522,2.6133,2.5032,2.4305,2.3932,2.319,2.2918,2.3031,2.2672,2.2594,2.276,2.2925,2.3098,2.3254,2.3398,2.3448,2.35,2.3827,2.3753,2.3471,0.0,0.0,0.0,0.0,0.0,0.0,0.0,1.8385,1.9089,1.9622,2.1728,2.3359,2.3814,2.3648,2.3523,2.3539,2.3109,0.0,0.0,3.0273,3.3224,3.7269,3.8717,4.0054,4.139,4.1407,4.1694,4.2286,4.2286,4.2286,4.2286,4.2439,4.2033,4.1247,4.2174,4.2381,4.2083,4.2696,4.3246,4.3718,4.3552,4.3515,4.3478,4.3331,4.358,4.3871,4.2906,4.2289,4.163,3.948,3.7804,3.626,3.409,3.2372,3.0731,2.8717,2.6916,0.0,0.0,0.0,0.0,0.0,0.0,0.0,0.0,0.0,2.6101,2.6951,2.7618,2.8521,3.0136,3.1091,3.2155,3.377,3.4839,3.5665,3.6211,3.6431,3.5973,3.4468,3.4083,3.3578,3.2683,3.2292,3.1691,3.071,3.1095,3.1216,3.0819,3.1351,3.1271,3.0328,3.0176,2.982,2.923,2.7672,2.6911,2.6894,2.5422,2.4711,2.4694,2.3949,2.3613,2.3577,2.2835,2.2542,2.2612,2.2612,2.2722,2.2966,2.3463,2.3774,2.3929,2.3757,2.35,2.32,0.0,0.0,0.0,0.0,0.0,0.0,0.0,0.0,1.8814,1.8601,2.082,2.2209,2.163,2.2298,2.267,2.2327,2.2922,0.0,2.9906,3.1433,3.4443,3.952,4.051,4.1339,4.2151,4.2168,4.2202,4.2286,4.2286,4.2286,4.2303,4.298,4.254,4.1288,4.3383,4.3768,4.2898,4.3585,4.4114,4.4507,4.3791,4.3515,4.3423,4.2708,4.31,4.3811,4.228,4.0991,3.9892,3.9128,3.7789,3.6296,3.5465,3.4545,3.3147,2.9915,0.0,2.7165,2.5327,2.4569,2.4348,2.4591,2.511,2.5779,0.0,0.0,2.7816,2.8794,2.8924,2.9354,3.0974,3.1916,3.2986,3.4601,3.6193,3.7015,3.6376,3.6923,3.7033,3.6119,3.5023,3.4428,3.4631,3.3314,3.2391,3.2253,3.1934,3.1576,3.1172,3.122,3.1198,3.1072,3.0446,3.0074,2.9989,2.8449,2.7672,2.7655,2.6167,2.549,2.5456,2.4711,2.4372,2.4338,2.3596,2.3446,2.3722,2.3722,2.428,2.516,2.5209,2.509,2.4766,2.3985,2.35,2.3236,0.0,0.0,0.0,0.0,0.0,0.0,0.0,0.0,0.0,1.8646,1.9635,2.0382,2.05,2.1052,2.146,2.1567,0.0,0.0,3.0566,3.177,3.4832,4.0476,4.1035,4.1762,4.2912,4.2946,4.3166,4.365,4.365,4.365,4.3667,4.3944,4.3521,4.255,4.4216,4.4218,4.304,4.4479,4.4669,4.4011,4.4158,4.392,4.3313,4.157,4.0912,4.0769,3.9619,3.8694,0.0,0.0,3.5202,3.4566,3.3336,3.2419,3.132,2.8782,2.7457,0.0,2.5168,2.5084,0.0,0.0,2.6739,2.7576,2.869,2.9451,3.0282,3.1648,3.1863,3.2449,3.4573,3.4835,3.5275,0.0,3.7734,3.8083,3.7734,3.7584,3.7199,3.6395,3.4757,3.3946,3.46,3.3355,3.2501,3.2501,3.2074,3.1733,3.1547,3.1564,3.1449,3.121,3.0903,3.0734,3.0734,2.9666,2.9142,2.9125,2.7604,2.6877,2.6843,2.5676,2.4914,2.4474,2.4169,2.4124,2.424,2.424,2.4499,2.4962,2.5345,2.5318,2.4951,2.412,2.3601,2.3273,0.0,0.0,0.0,0.0,0.0,0.0,0.0,0.0,0.0,0.0,1.8775,1.9266,2.0234,2.0167,2.0403,0.0,0.0,0.0,0.0,3.1303,3.4493,4.0054,4.0679,4.1694,4.3358,4.3392,4.3792,4.4615,4.4615,4.4615,4.4615,4.435,4.4054,4.372,4.4589,4.4428,4.3601,4.5045,4.4949,4.3828,4.3993,4.3424,4.2231,3.9843,3.812,3.6945,3.6358,3.5494,0.0,0.0,3.2116,3.1974,3.1033,3.0562,2.9977,2.7919,2.6487,2.5536,2.5289,0.0,0.0,2.7382,2.8466,2.9597,3.0692,3.1691,3.2797,3.4192,3.4302,3.4743,3.6795,3.6486,0.0,3.8102,3.8377,3.8377,3.8377,3.7878,3.7199,3.6395,3.4553,3.3687,3.4504,3.3108,3.2221,3.2298,3.2319,3.2282,3.2155,3.2172,3.2024,3.1735,3.139,3.119,3.119,3.048,3.0108,3.0072,2.8753,2.801,2.7756,2.6471,2.5507,2.4795,2.4795,2.4931,2.5117,2.5117,2.5354,2.5791,2.6279,2.6338,2.6077,2.5276,2.4632,2.4064,0.0,0.0,0.0,0.0,0.0,0.0,0.0,0.0,0.0,0.0,0.0,0.0,0.0,0.0,1.966,0.0,0.0,0.0,0.0,2.9782,3.3254,3.7804,3.936,4.1153,4.3341,4.3392,4.3792,4.4615,4.4615,4.4615,4.4581,4.3809,4.3763,4.4376,4.4401,4.4653,4.5025,4.5041,4.4884,4.4544,4.3002,4.1423,3.9751,3.7331,3.4908,3.2784,3.2766,0.0,0.0,0.0,2.9045,2.8632,2.9538,3.0416,0.0,2.8031,2.5989,0.0,0.0,0.0,2.7157,2.8358,3.0143,3.1815,3.2639,3.3891,3.5151,3.6046,3.5555,3.5243,3.6174,3.5642,3.5591,3.7272,3.7547,3.7547,3.7547,3.7529,3.7199,3.6395,3.4816,3.4105,0.0,3.2762,3.1473,3.1792,3.295,3.3477,3.308,3.3061,3.3043,3.3043,3.1842,3.119,3.119,3.048,3.0108,3.0091,2.9331,2.8552,2.7773,2.7012,2.6251,2.5575,2.5575,2.5981,2.6623,2.6623,2.752,2.8874,2.8894,2.8894,2.8791,2.7977,2.6976,2.602,0.0,0.0,0.0,0.0,0.0,0.0,0.0,0.0,0.0,0.0,0.0,0.0,0.0,0.0,0.0,0.0,0.0,0.0,0.0,2.7164,2.9989,3.402,3.6592,3.8725,4.0443,4.1441,4.2303,4.3064,4.3064,4.3289,4.3658,4.3383,4.3581,4.4156,4.4591,4.4575,4.4301,4.5216,4.4016,4.146,4.0928,3.9074,3.6325,3.3366,3.139,2.9996,0.0,0.0,0.0,0.0,2.5772,2.5634,2.5968,2.6373,0.0,2.5691,2.5288,2.5338,0.0,0.0,2.8901,3.0335,3.2034,3.353,3.4149,3.511,3.5789,3.55,3.4344,3.35,3.3775,3.361,3.394,3.5587,3.6762,3.7492,3.7492,3.7492,3.6593,3.4137,3.3825,0.0,0.0,0.0,0.0,3.3439,3.3627,3.3863,3.427,3.3995,3.3823,3.3823,3.3069,3.2662,3.2662,3.1918,3.1546,3.1529,3.0311,2.933,2.8569,2.7791,2.7283,2.7063,2.7063,2.7198,2.7469,2.8011,2.8536,2.9011,2.9229,2.9334,2.9334,2.9328,2.9068,2.8511,0.0,0.0,0.0,0.0,0.0,0.0,0.0,0.0,0.0,0.0,0.0,0.0,0.0,0.0,0.0,0.0,0.0,0.0,0.0,0.0,2.6826,2.9788,3.2547,3.4714,3.618,3.7398,3.8379,3.9123,3.9123,3.9309,3.9679,3.9566,4.0092,4.1149,4.1431,4.1558,4.1579,4.2205,4.0634,3.7698,3.7404,3.55,3.2583,2.9922,2.8411,0.0,0.0,0.0,0.0,2.4557,2.419,2.419,2.419,2.4284,2.4448,2.4745,2.5299,2.6123,2.7445,2.893,3.0435,3.1815,3.3327,3.4583,3.4917,3.5426,3.5587,3.4747,3.328,3.2082,3.1794,3.15,3.1849,3.3445,3.4614,3.562,3.6486,3.6597,3.5936,3.4137,3.41,0.0,0.0,0.0,0.0,3.4112,3.4555,3.5023,3.5541,3.5116,3.4855,3.4855,3.3905,3.3406,3.3406,3.2933,3.2564,3.2293,3.1072,3.0168,2.9587,2.8658,2.8302,2.8425,2.8284,2.8455,2.8886,2.9399,2.9757,3.005,3.0421,3.0663,3.0838,3.1243,3.1566,3.1409,0.0,0.0,0.0,0.0,0.0,0.0,0.0,0.0,0.0,0.0,0.0,0.0,0.0,0.0,0.0,0.0,0.0,0.0,0.0,0.0,0.0,2.5237,2.752,2.945,3.0869,3.1667,3.2425,3.3186,3.3186,3.3211,3.3236,3.2902,3.3835,3.5741,3.5408,3.5973,3.7144,3.6358,3.5055,3.3421,3.2619,3.0876,2.8583,2.7005,0.0,0.0,0.0,0.0,0.0,0.0,0.0,0.0,0.0,2.4226,2.441,2.5227,2.6062,2.7124,2.9004,3.0457,3.1716,3.2776,3.4004,3.4931,3.4839,3.4821,3.4564,3.3678,3.2265,3.0974,0.0,0.0,2.9537,3.1182,3.1525,3.2412,3.4784,3.5206,3.55,0.0,0.0,0.0,0.0,0.0,0.0,3.4085,0.0,3.693,3.702,3.6505,3.6201,3.6166,3.4545,3.3626,3.3592,3.3558,3.3134,3.2357,3.1661,3.1126,3.0716,2.9603,2.928,2.9608,2.9208,2.9672,3.0681,3.0716,3.1166,3.1877,3.2318,3.2739,3.3148,3.353,3.4181,3.4393,0.0,0.0,0.0,0.0,0.0,0.0,0.0,0.0,0.0,0.0,0.0,0.0,0.0,0.0,0.0,0.0,0.0,0.0,0.0,0.0,0.0,0.0,0.0,0.0,0.0,0.0,0.0,0.0,0.0,3.0575,3.1025,3.1725,3.224,3.2592,3.3095,3.3186,3.2939,3.2737,3.1347,2.9255,0.0,2.7042,2.5309,0.0,0.0,0.0,0.0,0.0,0.0,0.0,0.0,0.0,0.0,2.4622,2.5246,2.6062,2.7281,2.8753,3.0433,3.1575,3.2498,3.3384,3.3842,3.3788,3.2596,3.232,3.1751,2.9732,2.8998,2.8466,0.0,0.0,0.0,3.1953,3.3298,0.0,3.6597,3.7881,0.0,0.0,0.0,3.8267,3.729,3.8065,0.0,0.0,3.8248,3.875,3.9939,3.9497,3.8924,3.833,3.7544,3.6843,3.6227,3.5631,3.4667,3.3336,3.3143,3.2511,3.1496,3.0645,3.0158,2.9972,2.986,2.998,3.0296,3.0859,3.1523,3.2188,3.2308,3.2767,3.3349,3.3436,3.3616,3.3711,0.0,0.0,0.0,0.0,0.0,0.0,0.0,0.0,0.0,0.0,0.0,0.0,0.0,0.0,0.0,0.0,0.0,0.0,0.0,0.0,0.0,0.0,0.0,0.0,0.0,0.0,0.0,0.0,0.0,0.0,0.0,2.6677,2.7185,2.7508,2.8116,2.8338,2.822,2.786,0.0,0.0,0.0,0.0,0.0,0.0,0.0,0.0,0.0,0.0,0.0,0.0,0.0,2.4866,2.4866,2.5343,2.6153,2.7299,0.0,2.9867,3.1494,3.2504,3.3238,3.3697,3.3275,3.2504,3.1617,3.0589,2.945,2.8092,2.7512,0.0,0.0,0.0,0.0,0.0,0.0,0.0,3.6064,3.7808,3.8612,0.0,3.9386,0.0,3.9166,3.99,4.0579,0.0,4.0212,4.0141,4.104,4.0579,3.9932,3.9138,3.8647,3.8008,3.7209,3.6749,3.5935,3.4712,3.4712,3.4147,3.3106,3.2507,3.1922,3.1365,0.0,3.0987,3.0904,3.1675,3.2239,3.2686,3.3554,3.4218,3.4791,3.5308,3.5721,3.6077,0.0,0.0,0.0,0.0,0.0,0.0,0.0,0.0,0.0,0.0,0.0,0.0,0.0,0.0,0.0,0.0,0.0,0.0,0.0,0.0,0.0,0.0,0.0,0.0,0.0,0.0,0.0,0.0,0.0,0.0,0.0,0.0,0.0,0.0,0.0,0.0,0.0,0.0,0.0,0.0,0.0,0.0,0.0,0.0,0.0,0.0,0.0,0.0,0.0,0.0,2.5103,2.5742,2.5706,2.6208,2.7114,2.8686,2.9721,3.0705,3.2307,3.3275,3.377,3.3678,3.243,3.1182,3.0974,2.9138,2.7486,2.7486,0.0,0.0,2.6741,0.0,2.7482,2.9207,0.0,3.1647,3.4876,3.667,3.8264,3.9863,4.0781,4.1297,4.1407,4.1407,4.1717,4.2415,4.1809,4.1407,4.1407,4.0976,4.0311,3.9388,3.876,3.8109,3.7396,3.7396,3.7005,3.6185,3.6185,3.5741,3.4889,3.4472,3.3878,3.3121,0.0,0.0,3.206,3.2769,3.3166,3.3515,3.5201,3.615,3.673,3.7769,3.8602,3.9206,0.0,0.0,0.0,0.0,0.0,0.0,0.0,0.0,0.0,0.0,1.9246,1.8595,0.0,0.0,0.0,0.0,0.0,0.0,0.0,0.0,0.0,0.0,0.0,0.0,0.0,0.0,0.0,0.0,0.0,0.0,0.0,0.0,0.0,0.0,0.0,0.0,0.0,0.0,0.0,0.0,0.0,0.0,0.0,0.0,0.0,0.0,0.0,0.0,0.0,0.0,2.5367,2.5919,2.5749,2.6674,2.8122,2.9563,3.0558,3.1544,3.3146,3.3697,3.3642,3.2981,3.1604,3.0063,2.8723,2.7064,0.0,0.0,0.0,2.6796,2.7475,2.8143,0.0,3.161,0.0,0.0,0.0,0.0,3.9093,0.0,0.0,0.0,0.0,0.0,0.0,0.0,0.0,0.0,4.3075,4.2988,4.2276,4.0795,3.9378,3.8579,3.8433,3.8433,3.8047,3.7244,3.7244,3.6633,3.5449,3.4941,3.444,3.3956,0.0,0.0,3.3124,3.326,3.4041,3.5179,3.5521,3.6469,3.7681,3.7853,3.8035,3.8128,0.0,0.0,0.0,0.0,0.0,0.0,0.0,2.024,2.0532,2.1334,2.0908,2.0291,1.9658,1.912,1.8807,0.0,0.0,0.0,0.0,0.0,0.0,0.0,0.0,0.0,0.0,0.0,0.0,0.0,0.0,0.0,0.0,0.0,0.0,0.0,0.0,0.0,0.0,0.0,0.0,0.0,0.0,0.0,0.0,0.0,0.0,0.0,0.0,0.0,0.0,0.0,2.5583,2.6276,2.6023,2.6928,2.8404,2.9917,3.085,3.1745,3.3366,3.3807,3.3605,3.2803,3.1078,2.9262,2.8062,0.0,0.0,0.0,0.0,2.6969,2.8209,0.0,0.0,0.0,0.0,0.0,0.0,0.0,0.0,0.0,0.0,0.0,0.0,0.0,0.0,0.0,0.0,0.0,4.3515,4.3094,4.2323,4.1132,3.9955,3.9129,3.8707,3.8707,3.8505,3.812,3.812,3.7535,3.6416,3.6167,3.5435,3.4367,3.4823,0.0,3.4524,3.5604,3.6452,3.7179,3.7961,3.8703,3.9393,3.9792,3.9926,3.9901,0.0,0.0,0.0,0.0,0.0,0.0,0.0,2.1242,2.1658,2.2451,2.2571,2.2139,2.1007,2.0034,1.937,0.0,0.0,0.0,0.0,0.0,0.0,0.0,0.0,0.0,0.0,0.0,0.0,0.0,0.0,0.0,0.0,0.0,0.0,0.0,0.0,0.0,0.0,0.0,0.0,0.0,0.0,0.0,0.0,0.0,0.0,0.0,0.0,0.0,0.0,0.0,2.5365,2.6023,2.5828,2.6764,2.8232,2.9543,3.0538,3.155,3.3123,3.3678,3.3568,3.2596,3.0656,2.8748,2.7769,2.5805,0.0,0.0,2.6602,2.7079,2.8712,0.0,0.0,0.0,0.0,0.0,0.0,0.0,0.0,0.0,0.0,0.0,0.0,0.0,0.0,0.0,0.0,0.0,4.3515,4.2745,4.2011,4.137,4.0579,3.9772,3.8964,3.8964,3.8872,3.8707,3.8707,3.8285,3.7524,3.7574,3.6818,3.5566,3.6681,0.0,0.0,3.8054,3.883,3.9096,4.0246,4.0793,4.1002,4.1601,4.181,4.1775,0.0,0.0,0.0,0.0,0.0,0.0,0.0,2.172,2.2489,2.3288,2.3447,2.3138,2.2234,2.1393,2.0584,0.0,0.0,0.0,0.0,0.0,0.0,0.0,0.0,0.0,0.0,0.0,0.0,0.0,0.0,0.0,0.0,0.0,0.0,0.0,0.0,0.0,0.0,0.0,0.0,0.0,0.0,0.0,0.0,0.0,0.0,0.0,0.0,0.0,0.0,0.0,0.0,2.4336,2.4303,2.5782,2.7616,2.7939,0.0,0.0,3.2316,3.3238,3.3421,3.188,3.0246,2.8601,2.706,0.0,0.0,2.6282,2.6602,2.7079,2.8712,2.9005,0.0,0.0,0.0,0.0,0.0,0.0,0.0,0.0,0.0,0.0,0.0,0.0,0.0,0.0,0.0,0.0,0.0,4.2745,4.2268,4.2194,4.1407,4.0616,3.979,3.979,3.9423,3.8707,3.8707,3.8643,3.8583,3.8808,3.8833,3.869,0.0,0.0,0.0,3.9412,3.9891,4.0506,4.0651,4.1109,4.1704,4.1775,4.181,4.1704,0.0,0.0,0.0,0.0,0.0,0.0,2.1216,2.1617,2.2305,2.3687,2.3889,2.3774,2.3414,2.2635,2.1504,1.9945,0.0,0.0,0.0,0.0,0.0,0.0,0.0,0.0,0.0,0.0,0.0,0.0,0.0,0.0,0.0,0.0,0.0,0.0,0.0,0.0,0.0,0.0,0.0,0.0,0.0,0.0,0.0,0.0,0.0,0.0,0.0,0.0,0.0,0.0,0.0,0.0,2.4105,2.4966,0.0,0.0,2.8643,3.0015,3.1046,3.1826,3.1971,3.0356,2.9108,2.786,2.6227,0.0,0.0,2.6282,2.6602,2.7079,2.8712,2.9005,2.9097,0.0,0.0,0.0,0.0,0.0,0.0,0.0,0.0,0.0,0.0,0.0,0.0,0.0,0.0,0.0,0.0,4.3185,4.28,4.2323,4.1517,4.0726,3.9916,3.9423,3.9019,3.8707,3.8707,3.8784,3.8925,3.9045,3.9211,3.9455,0.0,0.0,0.0,4.1614,4.2123,4.2394,4.2376,4.2575,4.2829,4.2829,4.2829,4.2792,0.0,0.0,0.0,0.0,0.0,2.0577,2.1389,2.1716,2.2331,2.3548,2.3937,2.3995,2.3744,2.2932,2.1847,2.0437,2.0037,0.0,0.0,0.0,0.0,0.0,0.0,0.0,0.0,0.0,0.0,0.0,0.0,0.0,0.0,0.0,0.0,0.0,0.0,0.0,0.0,0.0,0.0,0.0,0.0,0.0,0.0,0.0,0.0,0.0,0.0,0.0,0.0,0.0,0.0,0.0,0.0,0.0,0.0,0.0,2.7637,2.8904,2.954,3.0242,3.0457,2.9082,2.8081,2.7093,0.0,0.0,2.4667,2.6282,2.6602,2.7079,2.8712,2.9005,2.9005,0.0,0.0,0.0,0.0,0.0,0.0,0.0,0.0,0.0,0.0,0.0,0.0,0.0,0.0,0.0,0.0,4.3515,4.3239,4.2671,4.2121,4.1423,4.0616,4.0047,3.9662,3.9423,3.9166,3.9264,3.9691,3.9691,3.995,4.0467,0.0,0.0,0.0,4.3118,4.3515,4.3515,4.3515,4.3515,4.3515,4.3515,4.3515,4.3515,0.0,0.0,0.0,0.0,0.0,0.0,2.1389,2.2235,2.2797,2.2816,2.3567,2.3764,2.2913,2.2043,2.15,2.1481,2.0575,0.0,0.0,0.0,0.0,0.0,0.0,0.0,0.0,0.0,0.0,0.0,0.0,0.0,0.0,0.0,0.0,0.0,0.0,0.0,0.0,0.0,0.0,0.0,0.0,0.0,0.0,0.0,0.0,0.0,0.0,0.0,0.0,0.0,0.0,0.0,0.0,0.0,0.0,0.0,2.594,2.7551,2.7779,2.8561,2.9136,2.832,2.7352,2.6454,0.0,0.0,2.4667,2.6282,2.6602,2.7079,2.8712,2.9005,2.9005,2.9005,2.8987,0.0,0.0,0.0,0.0,0.0,0.0,0.0,0.0,0.0,0.0,0.0,0.0,0.0,0.0,4.3515,4.3515,4.3496,4.3478,4.3075,4.2286,4.2268,4.1864,4.1058,4.0267,4.0304,4.1077,4.1077,4.1517,0.0,0.0,0.0,0.0,4.3496,4.3515,4.3515,4.3515,4.3515,4.3515,4.3515,4.3515,4.3515,0.0,0.0,0.0,0.0,0.0,0.0,0.0,2.0904,2.1293,2.1831,2.2158,2.2447,2.2778,2.2023,2.1504,2.1504,2.0702,0.0,0.0,0.0,0.0,0.0,0.0,0.0,0.0,0.0,0.0,2.0957,2.0957,0.0,0.0,0.0,0.0,0.0,0.0,0.0,0.0,0.0,0.0,0.0,0.0,0.0,0.0,0.0,0.0,0.0,0.0,0.0,0.0,0.0,0.0,0.0,0.0,0.0,0.0,2.4867,2.5677,2.66,2.6587,2.7112,2.7465,2.6656,2.6219,2.5792,2.5046,0.0,2.4681,2.5588,2.5778,2.6274,2.7879,2.8172,2.8356,2.8913,2.9005,0.0,0.0,0.0,0.0,0.0,0.0,0.0,0.0,0.0,0.0,0.0,0.0,0.0,0.0,4.3515,4.3515,4.3515,4.2965,4.2561,4.2304,4.1754,4.1352,4.1095,4.0838,4.1148,4.1919,4.1919,0.0,0.0,0.0,0.0,0.0,4.3515,4.3515,4.3515,4.3515,4.3515,4.3515,4.3515,4.3515,4.3515,0.0,0.0,0.0,0.0,0.0,0.0,0.0,2.0292,2.0489,2.1023,2.1061,2.1401,2.2283,2.161,2.1223,2.1552,2.0821,0.0,0.0,0.0,0.0,0.0,0.0,0.0,0.0,0.0,2.0692,2.1504,2.1504,2.1677,2.1985,2.1985,0.0,0.0,0.0,0.0,0.0,0.0,0.0,0.0,0.0,0.0,2.0308,0.0,0.0,0.0,0.0,0.0,0.0,0.0,0.0,0.0,0.0,0.0,0.0,0.0,2.5476,2.5812,0.0,2.586,2.6065,2.5565,2.5389,0.0,0.0,0.0,2.4684,2.5374,2.5692,2.6256,2.7559,2.8044,2.8429,2.8932,2.9005,0.0,0.0,0.0,0.0,0.0,0.0,0.0,0.0,0.0,0.0,0.0,0.0,0.0,0.0,0.0,4.3515,4.3515,4.3002,4.2745,4.2745,4.2268,4.2011,4.2011,4.1699,4.1974,4.2745,4.2433,0.0,0.0,0.0,0.0,0.0,4.3515,4.3515,4.3515,4.3515,4.3515,4.3515,4.3515,4.3515,4.3515,0.0,0.0,0.0,0.0,0.0,0.0,0.0,2.0311,2.0337,2.0396,2.034,2.0634,2.1507,2.0873,2.0737,2.153,0.0,0.0,0.0,0.0,0.0,0.0,0.0,0.0,0.0,2.0308,2.0712,2.16,2.16,2.2043,2.2893,2.2893,2.2389,0.0,0.0,0.0,0.0,0.0,0.0,0.0,2.0292,2.0308,0.0,0.0,0.0,0.0,0.0,0.0,0.0,0.0,0.0,0.0,0.0,0.0,0.0,0.0,0.0,0.0,0.0,2.4917,2.5004,2.5004,2.491,2.4849,0.0,0.0,0.0,2.5464,2.6058,2.6707,2.7559,2.8326,2.8877,2.8987,2.906,0.0,0.0,0.0,0.0,0.0,0.0,0.0,0.0,0.0,0.0,0.0,0.0,0.0,0.0,0.0,4.3515,4.3515,4.3441,4.3441,4.3515,4.3515,4.3515,4.3496,4.2745,4.2782,4.3478,4.2727,0.0,0.0,0.0,0.0,0.0,4.3515,4.3515,4.3515,4.3515,4.3515,4.3515,4.3515,4.3515,4.3515,0.0,0.0,0.0,0.0,0.0,0.0,0.0,0.0,0.0,0.0,2.0398,2.0452,2.0679,2.0525,2.0486,0.0,0.0,0.0,0.0,0.0,0.0,0.0,0.0,0.0,0.0,2.0308,2.1023,2.2485,2.2485,2.2932,2.3783,2.3783,2.297,2.1504,2.1504,2.1043,2.0296,0.0,0.0,0.0,2.03,2.0308,0.0,0.0,0.0,0.0,2.2566,2.349,0.0,0.0,0.0,0.0,0.0,0.0,0.0,0.0,2.5308,2.5274,2.5192,0.0,2.5004,2.5004,2.498,2.4962,0.0,0.0,0.0,0.0,0.0,2.5375,2.6644,2.7053,2.7574,2.8803,2.9519,0.0,0.0,0.0,0.0,0.0,0.0,0.0,0.0,0.0,0.0,0.0,0.0,0.0,0.0,0.0,4.3515,4.3515,4.2892,4.2873,4.3496,4.3515,4.3515,4.3515,4.3296,4.3331,4.3496,4.3313,0.0,0.0,0.0,0.0,4.3515,4.3515,4.3515,4.3515,4.3515,4.3515,4.3515,4.3515,4.3515,4.3515,0.0,0.0,0.0,0.0,0.0,0.0,0.0,0.0,0.0,0.0,0.0,0.0,0.0,0.0,0.0,0.0,0.0,0.0,0.0,0.0,0.0,0.0,0.0,0.0,0.0,2.0359,2.1172,2.2898,2.2898,2.3521,2.4724,2.433,2.3459,2.2146,2.1346,2.0748,2.0357,2.0357,2.0344,2.0335,2.0315,0.0,0.0,0.0,0.0,0.0,2.3086,2.3932,0.0,2.5154,2.5308,2.5308,0.0,0.0,0.0,0.0,2.5308,2.5308,2.5308,2.5219,2.5146,2.5146,2.5146,2.5146,2.5146,0.0,0.0,0.0,0.0,0.0,2.6471,2.6982,0.0,0.0,0.0,0.0,0.0,0.0,0.0,0.0,0.0,0.0,0.0,0.0,0.0,0.0,0.0,0.0,0.0,0.0,4.3515,4.3515,4.2708,4.269,4.3496,4.2763,4.2763,4.3515,4.313,4.313,4.3515,4.3515,0.0,0.0,0.0,0.0,4.3515,4.3515,4.3515,4.3515,4.3515,4.3515,4.3515,4.3515,4.3515,4.3515,0.0,0.0,0.0,0.0,0.0,0.0,0.0,0.0,0.0,0.0,0.0,0.0,0.0,0.0,0.0,0.0,0.0,0.0,0.0,0.0,0.0,0.0,0.0,2.0476,2.0605,2.0469,2.1247,2.2998,2.3136,2.3993,2.5491,2.4883,2.4027,2.292,2.1325,2.0531,2.04,2.0393,2.0414,2.0416,2.0337,0.0,0.0,0.0,0.0,0.0,0.0,0.0,0.0,2.5269,2.5308,2.5308,2.5308,0.0,0.0,0.0,0.0,0.0,2.5308,2.5308,2.5308,2.5308,2.5308,2.5308,2.5308,0.0,0.0,0.0,0.0,0.0,0.0,0.0,0.0,0.0,0.0,0.0,0.0,0.0,0.0,0.0,0.0,0.0,0.0,0.0,0.0,0.0,0.0,0.0,0.0,0.0,0.0,4.3331,4.2415,4.2323,4.313,4.1901,4.2029,4.3496,4.28,4.2837,4.3515,4.3515,4.3515,0.0,0.0,0.0,4.3515,4.3515,4.3515,4.3515,4.3515,4.3515,4.3515,4.3515,4.3515,4.3515,0.0,0.0,0.0,0.0,0.0,0.0,0.0,0.0,0.0,0.0,0.0,0.0,0.0,0.0,0.0,0.0,0.0,0.0,0.0,0.0,0.0,0.0,2.0513,2.0801,2.1488,2.0782,2.1247,2.2998,2.3744,2.4581,2.551,2.6118,2.5184,2.2961,2.1954,2.1117,2.048,2.0427,2.0434,2.0478,2.0418,0.0,0.0,0.0,0.0,0.0,0.0,0.0,0.0,2.5077,2.5308,2.5308,2.5308,0.0,0.0,0.0,0.0,0.0,2.5308,2.5308,2.5308,2.5308,2.5308,2.5308,0.0,0.0,0.0,0.0,0.0,0.0,0.0,0.0,0.0,0.0,0.0,0.0,0.0,0.0,0.0,0.0,0.0,0.0,0.0,0.0,0.0,0.0,0.0,0.0,0.0,0.0,0.0,4.2488,4.1038,4.0653,4.1462,4.1901,4.258,4.3515,4.3369,4.3386,4.3515,4.3515,4.3515,0.0,0.0,4.3515,4.3515,4.3515,4.3515,4.3515,4.3515,4.3515,4.3515,4.3515,4.3515,4.3515,0.0,0.0,0.0,0.0,0.0,0.0,0.0,0.0,0.0,0.0,0.0,0.0,0.0,0.0,0.0,0.0,0.0,0.0,0.0,0.0,0.0,0.0,2.1268,2.1439,2.18,2.143,2.2288,2.4456,2.4866,2.549,2.6289,2.5272,2.3945,2.2364,2.1487,2.0907,2.0542,2.0515,2.0536,2.0541,0.0,0.0,0.0,0.0,0.0,0.0,0.0,0.0,0.0,0.0,2.4947,2.5212,2.4793,0.0,0.0,0.0,0.0,0.0,2.5308,2.5308,2.5308,2.5308,2.5308,2.5308,0.0,0.0,0.0,0.0,0.0,0.0,0.0,0.0,0.0,0.0,0.0,0.0,0.0,0.0,0.0,0.0,0.0,0.0,0.0,0.0,0.0,0.0,0.0,0.0,0.0,0.0,0.0,0.0,4.0506,4.0286,4.1095,4.1038,4.1625,4.2837,4.2415,4.2653,4.3515,4.3515,4.3515,4.3515,0.0,4.3515,4.3515,4.3515,4.3515,4.3515,4.3515,4.3515,4.3515,4.3515,4.3515,4.3515,0.0,0.0,0.0,0.0,0.0,0.0,0.0,0.0,0.0,0.0,0.0,0.0,0.0,0.0,0.0,0.0,0.0,0.0,0.0,0.0,2.0898,2.1562,2.1797,2.207,2.248,2.248,2.3535,2.5703,2.6113,2.6641,2.7246,2.4844,2.3164,2.2168,2.1289,2.0781,2.0605,2.0605,2.0605,2.0605,0.0,0.0,0.0,0.0,0.0,0.0,0.0,0.0,0.0,0.0,0.0,0.0,0.0,0.0,0.0,2.5308,2.5308,2.5308,2.5308,2.5308,2.5308,2.5308,0.0,0.0,0.0,0.0,0.0,0.0,0.0,0.0,0.0,0.0,0.0,0.0,0.0,0.0,0.0,0.0,0.0,0.0,0.0,0.0,0.0,0.0,0.0,0.0,0.0,0.0,0.0,0.0,0.0,0.0,4.0047,3.9918,4.0526,3.9937,4.0432,4.2011,4.1389,4.1846,4.3222,4.3222,4.3331,4.3515,4.3515,4.3515,4.3515,4.3515,4.3515,4.3515,4.3515,4.3515,4.3515,4.3515,4.3515,4.3515,0.0,0.0,0.0,0.0,0.0,0.0,0.0,0.0,0.0,0.0,0.0,0.0,0.0,0.0,0.0,0.0,0.0,0.0,0.0,0.0,2.0625,2.0684,2.1465,2.2637,2.4199,2.4219,2.4707,2.5703,2.7324,2.8144,2.8164,2.6367,2.4648,2.3066,2.2207,2.1367,2.0605,2.0605,2.0605,2.0605,2.0586,0.0,0.0,0.0,0.0,0.0,0.0,0.0,0.0,0.0,0.0,0.0,0.0,0.0,2.5308,2.5308,2.5308,2.5308,2.5308,2.5308,2.5308,2.5308,2.5308,0.0,0.0,0.0,0.0,0.0,0.0,0.0,0.0,0.0,0.0,0.0,0.0,0.0,0.0,0.0,0.0,0.0,0.0,0.0,0.0,0.0,0.0,0.0,0.0,0.0,0.0,0.0,0.0,0.0,0.0,3.8817,3.8872,3.8817,3.9588,4.1187,4.1132,4.1535,4.2396,4.2396,4.2782,4.3515,4.3515,4.3515,4.3515,4.3515,4.3515,4.3515,4.3515,4.3515,4.3515,4.3515,4.3515,4.3515,0.0,0.0,0.0,0.0,0.0,0.0,0.0,0.0,0.0,0.0,0.0,0.0,0.0,0.0,0.0,0.0,0.0,0.0,0.0,0.0,2.084,2.1387,2.2246,2.3242,2.4375,2.4394,2.5352,2.7324,2.7422,2.748,2.7441,2.5195,2.3789,2.3086,2.1699,2.1211,2.1406,2.1406,2.1406,2.1406,2.1406,2.1406,0.0,0.0,0.0,0.0,0.0,0.0,0.0,0.0,2.4911,2.5226,2.4767,2.493,2.5308,2.5308,2.5308,2.5308,2.5308,2.5308,2.5308,2.5308,0.0,0.0,0.0,0.0,0.0,0.0,0.0,0.0,0.0,0.0,0.0,0.0,0.0,0.0,0.0,0.0,0.0,0.0,0.0,0.0,0.0,0.0,0.0,0.0,0.0,0.0,0.0,0.0,0.0,0.0,0.0,3.8469,3.797,3.845,3.8744,3.8872,3.9882,4.0781,4.1572,4.2066,4.247,4.2782,4.3277,4.3515,4.3515,4.3515,4.3515,4.3515,4.3515,4.3515,4.3515,4.3515,4.3515,4.3515,0.0,0.0,0.0,0.0,0.0,0.0,0.0,0.0,0.0,0.0,0.0,0.0,0.0,0.0,0.0,0.0,0.0,0.0,0.0,2.0586,2.0879,2.1465,2.2324,2.3281,2.4375,2.4394,2.5547,2.7891,2.7012,2.6582,2.6543,2.4238,2.3144,2.3047,2.1894,2.1738,2.2305,2.2285,2.2129,2.1914,2.2207,2.2148,0.0,0.0,0.0,0.0,0.0,0.0,0.0,0.0,2.4926,2.5232,2.4733,2.491,2.5308,2.5308,2.5308,2.5308,2.5308,2.5308,2.5308,0.0,0.0,0.0,0.0,0.0,0.0,0.0,0.0,0.0,0.0,0.0,0.0,0.0,0.0,0.0,0.0,0.0,0.0,0.0,0.0,0.0,0.0,0.0,0.0,0.0,0.0,0.0,0.0,0.0,0.0,0.0,0.0,3.8046,3.7511,3.8046,3.8175,3.7896,3.8982,3.9937,4.0744,4.1295,4.1827,4.2323,4.2873,4.3276,4.3515,4.3515,4.3515,4.3515,4.3515,4.3515,4.3515,4.3515,4.3515,4.3515,0.0,0.0,0.0,0.0,0.0,0.0,0.0,0.0,0.0,0.0,0.0,0.0,0.0,0.0,0.0,0.0,0.0,0.0,0.0,2.0563,2.0605,2.0605,2.1445,2.2695,2.4355,2.4394,2.5254,2.6973,2.6113,2.5684,2.5644,2.3906,2.3105,2.3105,2.3105,2.3144,2.3203,2.3144,2.2656,2.1992,2.2852,2.2695,2.2109,0.0,0.0,0.0,0.0,0.0,0.0,0.0,2.5465,2.5394,2.5394,2.5354,2.5308,2.5308,2.5308,2.5308,2.5308,2.5308,2.5308,0.0,0.0,0.0,0.0,0.0,0.0,0.0,0.0,0.0,0.0,0.0,0.0,0.0,0.0,0.0,0.0,0.0,0.0,0.0,0.0,0.0,0.0,0.0,0.0,0.0,0.0,0.0,0.0,0.0,0.0,0.0,0.0,0.0,3.7474,3.7492,3.7915,3.8689,3.8689,3.9129,3.9882,3.99,4.0763,4.2286,4.2286,4.2745,4.3496,4.3515,4.3515,4.3515,4.3515,4.3515,4.3515,4.3515,4.3515,4.3515,0.0,0.0,0.0,0.0,0.0,0.0,0.0,0.0,0.0,0.0,0.0,0.0,0.0,0.0,0.0,0.0,0.0,0.0,0.0,2.0443,2.0753,2.1416,2.2276,2.3004,2.3535,2.4102,2.4648,2.5176,2.4902,2.4785,2.4766,2.3633,2.3437,2.3984,0.0,2.3457,2.4043,2.4023,2.3887,2.3672,2.3945,2.3887,2.3711,0.0,0.0,0.0,0.0,0.0,0.0,0.0,0.0,0.0,2.5462,2.5395,2.5308,2.5308,2.5308,2.5308,2.5308,2.5308,0.0,0.0,0.0,0.0,0.0,0.0,0.0,0.0,0.0,0.0,0.0,0.0,0.0,0.0,0.0,0.0,0.0,0.0,0.0,0.0,0.0,0.0,0.0,0.0,0.0,0.0,0.0,0.0,0.0,0.0,0.0,0.0,0.0,0.0,3.5738,3.6923,3.7345,3.7019,3.8157,3.8817,3.9074,3.9643,4.0157,4.0671,4.1809,4.2433,4.269,4.3276,4.3515,4.3515,4.3515,4.3515,4.3515,4.3515,4.3515,4.3515,0.0,0.0,0.0,0.0,0.0,0.0,0.0,0.0,0.0,0.0,2.1621,2.1962,0.0,0.0,0.0,0.0,0.0,0.0,2.0915,2.0571,2.0813,2.1716,2.2265,2.2886,2.3629,2.414,2.4238,2.3887,2.3906,2.3926,2.3906,2.3359,2.3574,2.4394,0.0,2.4414,2.4922,2.4922,2.4727,2.4434,2.4785,2.4707,2.4434,0.0,0.0,0.0,0.0,0.0,0.0,0.0,0.0,0.0,2.5465,2.5387,2.5308,2.5308,2.5308,2.5308,2.5308,0.0,0.0,0.0,0.0,0.0,0.0,0.0,0.0,0.0,0.0,0.0,0.0,0.0,0.0,0.0,0.0,0.0,0.0,0.0,0.0,0.0,0.0,0.0,0.0,0.0,0.0,0.0,0.0,0.0,0.0,0.0,0.0,0.0,0.0,0.0,3.5023,3.6009,3.6597,3.6795,3.7753,3.8212,3.8248,3.9056,3.9588,3.9955,4.1258,4.2011,4.2304,4.2488,4.2727,4.302,4.302,4.3222,4.3515,4.3515,4.3515,4.3515,0.0,0.0,2.0413,2.0491,0.0,0.0,0.0,0.0,0.0,0.0,2.162,2.1964,0.0,0.0,0.0,2.2993,2.2288,2.1785,2.1707,2.0941,2.0938,2.1891,2.1937,2.2707,2.4388,2.439,2.4004,2.3223,2.3125,2.3125,0.0,0.0,2.3613,2.4551,0.0,2.5703,2.5703,2.5703,2.5234,2.459,2.5371,2.5234,2.4609,2.5391,0.0,0.0,0.0,0.0,0.0,0.0,0.0,0.0,2.5421,2.5354,2.5308,2.5308,2.5308,2.5308,2.5308,0.0,0.0,0.0,0.0,0.0,0.0,0.0,0.0,0.0,0.0,0.0,0.0,0.0,0.0,0.0,0.0,0.0,0.0,0.0,0.0,0.0,0.0,0.0,0.0,0.0,0.0,0.0,0.0,0.0,0.0,0.0,0.0,0.0,0.0,0.0,3.5004,3.5004,3.5793,0.0,3.7382,3.7382,3.7419,3.8303,3.9148,3.9937,4.0671,4.146,4.2139,4.1389,4.1572,4.2304,4.2304,4.2782,4.3515,4.3515,4.3515,4.3515,0.0,0.0,2.0525,2.1143,0.0,0.0,0.0,0.0,0.0,0.0,0.0,0.0,0.0,0.0,0.0,2.3833,2.3679,2.3274,2.2596,2.1749,2.1974,2.3595,2.3667,2.4189,2.5308,2.4669,2.4251,2.4121,2.2812,0.0,0.0,0.0,0.0,2.543,0.0,2.5703,2.5703,2.5703,2.5586,2.5449,2.5625,2.5586,2.5449,2.5625,2.5703,0.0,0.0,0.0,0.0,0.0,0.0,0.0,2.5421,2.5354,2.5308,2.5308,2.5308,2.5308,0.0,2.5308,0.0,0.0,0.0,0.0,0.0,0.0,0.0,0.0,0.0,0.0,0.0,0.0,0.0,0.0,0.0,0.0,0.0,0.0,0.0,0.0,0.0,0.0,0.0,0.0,0.0,0.0,0.0,0.0,0.0,0.0,0.0,0.0,0.0,3.4362,3.5004,3.5004,3.5518,0.0,3.656,3.656,3.6611,3.8046,3.9148,3.9916,4.0084,4.0616,4.1334,4.1168,4.1572,4.2304,4.2304,4.2782,4.3515,4.3515,4.3515,4.3515,0.0,0.0,0.0,0.0,0.0,0.0,0.0,0.0,0.0,0.0,0.0,0.0,0.0,2.4678,0.0,0.0,2.4317,2.3918,2.3451,2.2605,2.2731,2.4084,2.4558,2.5024,2.5533,2.4733,2.4325,2.4394,0.0,0.0,0.0,0.0,0.0,2.5703,0.0,2.5703,2.5703,2.5703,2.5703,2.5703,2.5703,2.5703,2.5703,2.5703,2.5703,2.5703,2.5703,0.0,0.0,0.0,0.0,0.0,0.0,0.0,2.5308,2.5308,2.5308,2.5308,0.0,0.0,0.0,0.0,0.0,0.0,0.0,0.0,0.0,0.0,0.0,0.0,0.0,0.0,0.0,0.0,0.0,0.0,0.0,0.0,0.0,0.0,0.0,0.0,0.0,0.0,0.0,0.0,0.0,0.0,0.0,0.0,0.0,0.0,3.4802,3.438,3.4417,3.4417,3.4839,3.5665,3.5665,3.5899,3.634,3.7569,3.8762,3.9879,3.9478,3.9772,4.0506,4.012,4.0432,4.1185,4.1589,4.2213,4.2965,4.3368,4.3515,4.3515,0.0,0.0,0.0,0.0,0.0,0.0,0.0,0.0,0.0,0.0,0.0,0.0,0.0,2.5308,2.5308,0.0,0.0,0.0,2.4317,2.3624,2.349,2.4072,2.4914,2.5418,2.5508,2.4851,2.4555,2.4629,0.0,0.0,0.0,0.0,0.0,2.5703,0.0,2.5703,2.5703,2.5703,2.5703,2.5703,2.5703,2.5703,2.5703,2.5703,2.5703,2.5703,2.5703,2.5703,2.5683,2.5558,0.0,0.0,0.0,0.0,2.5308,2.5308,2.5308,2.5308,0.0,0.0,0.0,0.0,0.0,0.0,0.0,0.0,0.0,0.0,0.0,0.0,0.0,0.0,0.0,0.0,0.0,0.0,0.0,0.0,0.0,0.0,0.0,0.0,0.0,0.0,0.0,0.0,0.0,0.0,0.0,0.0,3.5114,3.5844,3.5169,3.4546,3.4009,3.3862,3.4197,3.5004,3.4857,3.5243,3.6101,3.6762,3.7951,3.9457,3.8781,3.8946,3.9643,3.8964,3.9166,3.9974,4.0799,4.1589,4.2396,4.3185,4.3515,4.3515,0.0,0.0,0.0,0.0,0.0,0.0,0.0,0.0,0.0,0.0,2.5135,2.5173,2.5288,2.5308,2.5308,2.5308,2.5192,2.5135,2.5135,0.0,0.0,2.4129,2.4884,2.536,2.5508,2.5381,2.5392,0.0,0.0,0.0,0.0,0.0,0.0,2.5703,0.0,0.0,2.5703,2.5703,2.5703,2.5703,2.5703,2.5703,2.5703,2.5703,2.5703,2.5703,2.5703,2.5703,2.5683,2.5606,2.5551,0.0,0.0,0.0,2.5308,2.5308,2.5308,2.5308,0.0,0.0,0.0,0.0,0.0,0.0,0.0,0.0,0.0,0.0,0.0,0.0,0.0,0.0,0.0,0.0,0.0,0.0,0.0,0.0,0.0,0.0,0.0,0.0,0.0,0.0,0.0,0.0,0.0,0.0,0.0,3.4027,3.4009,3.4137,3.4027,3.4247,3.4839,3.4156,3.4197,3.5004,3.4289,3.438,3.5188,3.5279,3.6248,3.7804,3.7713,3.8135,3.8854,3.8744,3.9166,3.9974,4.0799,4.1589,4.2396,4.3185,4.3515,4.3515,0.0,0.0,0.0,0.0,0.0,0.0,0.0,0.0,0.0,0.0,0.0,2.5308,2.5308,2.5308,2.5308,2.5308,2.5308,2.5308,2.5308,2.5308,2.5135,2.4793,2.5151,2.5409,2.5508,2.5543,2.5603,0.0,0.0,0.0,0.0,2.5312,2.5332,0.0,0.0,0.0,0.0,0.0,2.5703,2.5703,2.5703,2.5703,2.5703,2.5703,2.5703,2.5703,2.5703,2.5703,2.5683,2.557,2.5513,2.5473,2.5372,0.0,0.0,0.0,0.0,0.0,0.0,0.0,0.0,0.0,0.0,0.0,0.0,0.0,0.0,0.0,0.0,0.0,0.0,0.0,0.0,0.0,0.0,0.0,0.0,0.0,0.0,0.0,0.0,0.0,0.0,0.0,0.0,0.0,0.0,0.0,3.4454,3.4472,3.4472,3.4472,3.4472,3.4215,3.3665,3.3298,3.3298,3.3665,3.3752,3.399,3.4325,3.4325,3.5495,3.7492,3.7492,3.797,3.8707,3.8707,3.8909,3.9313,4.0102,4.0634,4.1038,4.1864,4.2158,4.2213,0.0,0.0,0.0,0.0,0.0,0.0,0.0,0.0,0.0,0.0,0.0,2.5308,2.5308,0.0,0.0,0.0,2.5308,2.5308,2.5308,2.5317,2.5336,2.5336,2.5391,2.5465,2.5513,2.5569,0.0,0.0,0.0,0.0,2.5703,2.5703,2.5703,0.0,2.5703,0.0,0.0,0.0,0.0,0.0,0.0,0.0,0.0,0.0,0.0,0.0,0.0,2.5703,2.5683,2.5563,2.5505,2.549,2.5363,0.0,0.0,0.0,0.0,0.0,0.0,0.0,0.0,0.0,0.0,0.0,0.0,0.0,0.0,0.0,0.0,0.0,0.0,0.0,0.0,0.0,0.0,0.0,0.0,0.0,0.0,0.0,0.0,0.0,0.0,0.0,0.0,0.0,0.0,0.0,3.4656,3.4509,3.4399,3.4399,3.4197,3.35,3.2307,3.2302,3.2302,3.2289,3.2908,3.3293,3.3495,3.3495,3.4724,3.6886,3.7107,3.7658,3.8414,3.8615,3.8707,3.8781,3.9588,3.99,4.001,4.1038,4.1389,4.1517,0.0,0.0,0.0,0.0,0.0,0.0,0.0,0.0,0.0,0.0,0.0,2.5308,2.5308,2.5308,2.5308,2.5308,2.5308,2.5308,2.5308,2.5354,2.5391,2.5391,2.5465,0.0,2.5598,0.0,0.0,0.0,0.0,0.0,2.5703,2.5703,2.5703,2.5703,2.5703,2.5703,2.5703,0.0,0.0,0.0,0.0,0.0,0.0,0.0,0.0,0.0,0.0,0.0,2.5683,2.5629,2.5554,2.5498,0.0,0.0,0.0,0.0,0.0,0.0,0.0,0.0,0.0,0.0,0.0,0.0,0.0,0.0,0.0,0.0,0.0,0.0,0.0,0.0,0.0,0.0,0.0,0.0,0.0,0.0,0.0,0.0,0.0,0.0,0.0,0.0,0.0,0.0,0.0,0.0,3.3862,3.3146,3.2711,3.2711,3.1971,3.1562,3.147,3.147,3.147,3.147,3.1507,3.1916,3.2656,3.2656,3.3573,3.5188,3.6009,3.6831,3.7621,3.8395,3.8707,3.8781,3.9588,3.99,4.0084,4.1662,4.2249,4.2359,0.0,0.0,0.0,0.0,0.0,0.0,0.0,0.0,0.0,0.0,0.0,0.0,0.0,2.5344,2.5352,2.5352,2.5394,2.5401,2.5375,2.5425,2.5451,2.5451,2.5535,0.0,0.0,0.0,0.0,0.0,0.0,2.5703,2.5703,2.5703,2.5703,2.5703,2.5703,2.5703,2.5703,2.5703,0.0,0.0,0.0,0.0,0.0,0.0,0.0,0.0,0.0,0.0,0.0,0.0,0.0,0.0,0.0,0.0,0.0,0.0,0.0,0.0,0.0,0.0,0.0,0.0,0.0,0.0,0.0,0.0,0.0,0.0,0.0,0.0,0.0,0.0,0.0,0.0,0.0,0.0,0.0,0.0,0.0,0.0,0.0,0.0,0.0,0.0,0.0,0.0,0.0,0.0,3.3036,3.2748,3.2601,3.2601,3.1825,3.1146,3.0632,3.0632,3.0632,3.0632,3.1678,3.232,3.2619,3.3115,3.3678,3.427,3.5114,3.6248,3.7566,3.8377,3.8707,3.8726,3.9019,3.9129,3.9258,4.0359,4.0763,4.0946,0.0,0.0,0.0,0.0,0.0,2.5308,0.0,0.0,0.0,0.0,0.0,0.0,0.0,0.0,2.5438,2.5438,2.5465,2.5473,2.5441,2.5508,2.552,2.552,2.5601,0.0,0.0,0.0,0.0,0.0,0.0,0.0,0.0,2.5703,2.5703,2.5703,2.5703,2.5703,0.0,0.0,0.0,2.5703,0.0,0.0,2.5703,0.0,0.0,0.0,0.0,0.0,0.0,0.0,0.0,0.0,0.0,0.0,0.0,0.0,0.0,0.0,0.0,0.0,0.0,0.0,0.0,0.0,0.0,0.0,0.0,0.0,0.0,0.0,0.0,0.0,0.0,0.0,0.0,0.0,0.0,0.0,0.0,0.0,0.0,0.0,0.0,0.0,0.0,0.0,0.0,0.0,3.221,3.194,3.1665,3.1408,3.087,3.0338,2.9794,2.9794,2.9794,2.9812,3.0876,3.1665,3.2228,3.2742,3.3293,3.3844,3.4656,3.5807,3.7162,3.7955,3.8469,3.8707,3.8707,3.8707,3.8836,3.9918,4.0304,4.0524,0.0,2.5308,2.5308,2.5308,2.5308,2.5308,2.5293,0.0,0.0,0.0,0.0,0.0,0.0,0.0,0.0,2.5493,2.5496,2.5515,2.5493,2.5563,2.5603,2.5603,2.5661,0.0,0.0,0.0,0.0,0.0,0.0,0.0,0.0,0.0,2.5703,2.5703,2.5703,2.5703,2.5703,0.0,2.5703,2.5683,0.0,2.5635,2.5683,0.0,0.0,0.0,2.5529,2.5506,0.0,0.0,0.0,0.0,0.0,0.0,0.0,0.0,0.0,0.0,0.0,0.0,0.0,0.0,0.0,0.0,0.0,0.0,0.0,0.0,0.0,0.0,0.0,0.0,0.0,0.0,0.0,0.0,0.0,0.0,0.0,0.0,0.0,0.0,0.0,0.0,0.0,0.0,0.0,3.136,3.136,3.0613,2.9831,2.9023,2.9005,2.9005,2.9005,2.9005,2.9005,2.9005,2.9023,2.9879,3.1397,3.1415,3.2302,3.3844,3.4656,3.5481,3.6358,3.718,3.7955,3.8707,3.8707,3.8707,3.8891,4.0508,4.1095,4.1334,2.5308,2.5308,2.5308,2.5308,2.5308,2.5322,2.5352,0.0,0.0,0.0,0.0,0.0,0.0,0.0,2.5567,2.5567,2.5628,2.5611,2.5588,2.5634,2.5662,2.5662,2.5683,2.5703,0.0,0.0,0.0,0.0,0.0,0.0,0.0,0.0,0.0,0.0,2.5703,2.5662,2.5633,2.5633,0.0,0.0,2.5556,2.5543,0.0,0.0,0.0,0.0,0.0,2.5402,0.0,0.0,2.5321,2.5312,0.0,0.0,0.0,0.0,0.0,0.0,2.5308,0.0,0.0,0.0,0.0,0.0,0.0,0.0,0.0,0.0,0.0,0.0,0.0,0.0,0.0,0.0,0.0,0.0,0.0,0.0,0.0,0.0,0.0,0.0,0.0,0.0,0.0,0.0,3.021,3.0522,3.0522,3.032,2.9831,2.9023,2.9005,2.9005,2.9005,2.9005,2.9005,2.9005,2.9592,3.0411,3.1415,3.2008,3.2834,3.3844,3.4656,3.5481,3.6358,3.718,3.7955,3.8707,3.8707,3.8707,3.8891,4.0508,4.1095,4.1334,2.5308,2.5308,2.5303,2.5335,2.5344,2.5367,2.5434,0.0,0.0,0.0,0.0,0.0,0.0,0.0,0.0,2.5636,2.5682,2.5683,2.5637,2.5682,2.5703,2.5703,2.5703,2.5703,2.5703,0.0,0.0,0.0,0.0,0.0,0.0,0.0,0.0,0.0,2.5662,2.5635,0.0,0.0,0.0,0.0,2.5493,0.0,0.0,2.5438,2.5417,0.0,0.0,0.0,2.5308,2.5308,2.5308,0.0,0.0,0.0,0.0,0.0,0.0,0.0,0.0,0.0,0.0,0.0,0.0,0.0,2.5308,2.5308,0.0,0.0,0.0,0.0,0.0,0.0,0.0,0.0,0.0,0.0,0.0,0.0,0.0,0.0,0.0,0.0,0.0,0.0,0.0,0.0,2.9427,2.9702,2.9702,2.9702,2.9482,2.9005,2.9005,2.9005,2.9005,2.9005,2.9005,2.9005,2.9482,3.0301,3.1415,3.188,3.2724,3.3825,3.4289,3.5183,3.634,3.6813,3.7661,3.8707,3.8707,3.8909,3.935,4.0618,4.1297,4.1791,0.0,2.5317,2.5321,2.5383,2.5409,2.5428,0.0,0.0,0.0,0.0,0.0,0.0,0.0,0.0,0.0,0.0,2.5703,2.5703,2.5703,2.5703,2.5703,2.5703,2.5703,2.5703,2.5703,0.0,0.0,0.0,0.0,0.0,0.0,0.0,0.0,0.0,2.5629,2.5573,0.0,0.0,0.0,2.5463,2.5401,2.5418,0.0,0.0,2.5335,0.0,2.5327,2.5308,2.5308,2.5308,2.5308,0.0,0.0,0.0,0.0,0.0,2.5308,0.0,0.0,0.0,0.0,0.0,0.0,0.0,2.5327,2.5365,2.5423,0.0,0.0,0.0,0.0,0.0,0.0,0.0,0.0,0.0,0.0,0.0,0.0,0.0,0.0,0.0,0.0,0.0,2.8114,2.8803,2.895,2.9005,2.9005,2.9005,2.9005,2.9005,2.9005,2.9005,2.9005,2.9005,2.9042,2.9133,2.9133,2.9989,3.1531,3.1531,3.2357,3.3807,3.399,3.4908,3.6303,3.6486,3.7404,3.8707,3.8707,3.9184,3.9992,4.0802,4.1625,4.2415,2.5308,2.5348,2.5379,2.5406,2.5447,2.5493,0.0,0.0,0.0,0.0,0.0,0.0,0.0,0.0,0.0,0.0,2.5703,2.5703,2.5703,2.5703,2.5703,2.5703,2.5703,2.5703,2.5703,2.5703,0.0,0.0,0.0,0.0,0.0,0.0,0.0,0.0,2.5552,2.5498,0.0,0.0,0.0,2.5339,2.5317,0.0,2.5339,2.5308,2.5303,2.5322,2.5293,2.5308,2.5308,0.0,2.5308,2.5308,0.0,0.0,0.0,0.0,0.0,0.0,0.0,0.0,0.0,0.0,0.0,0.0,2.5462,2.5846,2.6154,0.0,0.0,0.0,0.0,0.0,0.0,0.0,0.0,0.0,0.0,0.0,0.0,0.0,0.0,0.0,0.0,0.0,2.8042,2.8029,2.862,2.9005,2.9005,2.9005,2.9005,2.9005,2.9005,2.9005,2.9005,2.9005,2.9335,2.9971,2.9971,3.0815,3.2375,3.2375,3.2889,3.388,3.522,3.5991,3.6395,3.7698,3.8414,3.8707,3.8707,3.9184,3.9992,4.0802,4.1625,4.2415,2.5348,2.5387,2.5415,2.5498,2.5535,0.0,0.0,0.0,0.0,0.0,0.0,0.0,0.0,0.0,0.0,0.0,0.0,0.0,0.0,0.0,2.5703,2.5703,2.5703,2.5703,2.5703,2.5703,2.5703,0.0,0.0,0.0,0.0,0.0,0.0,0.0,0.0,0.0,0.0,0.0,2.533,2.5308,2.5308,0.0,2.5308,2.5308,2.5308,2.5308,2.5308,2.5308,2.5308,2.5308,2.5308,0.0,0.0,2.5308,2.5308,0.0,2.5308,2.5308,0.0,0.0,0.0,2.5846,0.0,0.0,0.0,2.5942,2.5942,0.0,0.0,0.0,0.0,0.0,0.0,0.0,0.0,0.0,0.0,0.0,0.0,0.0,0.0,0.0,0.0,0.0,2.7635,2.8349,2.8767,2.9005,2.9005,2.9005,2.9005,2.9005,2.9005,2.9005,2.9005,2.9005,2.939,3.021,3.021,3.1041,3.2601,3.2601,3.3041,3.3862,3.511,3.5899,3.6376,3.7588,3.834,3.8744,3.9148,3.979,4.0598,4.1405,4.2213,4.2947,2.5413,2.5428,2.5463,2.5572,2.5606,0.0,0.0,0.0,0.0,0.0,0.0,0.0,0.0,0.0,0.0,0.0,0.0,0.0,0.0,0.0,0.0,2.5703,2.5703,2.5703,2.5703,2.5683,2.5683,0.0,0.0,0.0,0.0,0.0,0.0,0.0,0.0,0.0,0.0,0.0,0.0,2.5308,0.0,2.5442,2.5308,2.5308,2.5308,2.5308,2.5308,2.5308,2.5327,2.55,0.0,2.5577,2.575,2.5808,0.0,0.0,0.0,0.0,0.0,0.0,0.0,0.0,0.0,2.5904,0.0,0.0,0.0,0.0,0.0,0.0,0.0,0.0,0.0,0.0,0.0,0.0,0.0,0.0,0.0,0.0,0.0,0.0,0.0,0.0,2.7189,2.8656,2.8913,2.9005,2.9005,2.9005,2.9005,2.9005,2.9005,2.9005,2.9005,2.9005,2.9482,3.043,3.043,3.1274,3.2821,3.2821,3.3201,3.3844,3.4821,3.5646,3.6376,3.7345,3.8102,3.8762,3.9423,4.0267,4.1168,4.1827,4.2671,4.3515,2.5498,2.5541,2.5573,2.5601,2.5658,0.0,0.0,0.0,0.0,0.0,0.0,0.0,0.0,0.0,0.0,0.0,0.0,0.0,2.6894,0.0,0.0,0.0,2.5703,2.5703,2.5703,2.5636,2.5606,2.5606,0.0,0.0,0.0,0.0,0.0,0.0,2.5348,0.0,0.0,0.0,2.5308,0.0,2.6135,2.5981,0.0,2.5308,2.5308,2.5308,2.5308,2.5308,2.5423,0.0,2.6447,2.6582,0.0,2.7601,0.0,0.0,0.0,0.0,0.0,0.0,0.0,0.0,2.7101,0.0,0.0,0.0,0.0,0.0,0.0,0.0,0.0,0.0,0.0,0.0,0.0,0.0,0.0,0.0,0.0,0.0,0.0,0.0,0.0,0.0,0.0,2.786,2.8601,2.9005,2.9005,2.9005,2.9005,2.9005,2.9005,2.9005,2.9005,2.9005,2.9769,3.1268,3.1268,3.21,3.366,3.366,3.3715,3.388,3.5477,3.6211,3.6413,3.7936,3.8615,3.8707,3.8799,3.9756,4.1113,4.1187,4.2194,4.3515,2.5558,2.5572,2.5606,2.5658,2.5683,0.0,0.0,0.0,0.0,0.0,0.0,0.0,0.0,0.0,0.0,0.0,0.0,2.8144,0.0,0.0,0.0,0.0,0.0,0.0,2.6347,2.5827,2.5547,2.5547,2.5463,0.0,0.0,0.0,0.0,0.0,2.5832,0.0,2.6096,0.0,0.0,0.0,0.0,0.0,0.0,2.6813,2.6813,2.6813,2.6813,2.6813,2.6851,0.0,2.7351,0.0,0.0,0.0,0.0,0.0,0.0,0.0,0.0,0.0,0.0,0.0,0.0,0.0,0.0,0.0,2.5885,0.0,0.0,0.0,0.0,0.0,0.0,0.0,0.0,0.0,0.0,0.0,0.0,0.0,0.0,0.0,0.0,0.0,0.0,0.0,0.0,2.8803,2.8338,2.8748,2.9005,2.9005,2.9445,2.9702,2.9702,2.9702,3.0491,3.21,3.1623,3.2228,3.3807,3.3807,3.3807,3.388,3.5569,3.6303,3.6413,3.8046,3.8707,3.8707,3.8707,3.9664,4.115,4.1625,4.2525,4.3515,2.5632,0.0,0.0,0.0,0.0,0.0,0.0,0.0,0.0,0.0,0.0,0.0,2.8633,2.8652,0.0,0.0,0.0,2.8844,0.0,0.0,2.8458,0.0,0.0,0.0,0.0,2.6512,2.6196,2.6196,2.6122,0.0,0.0,0.0,0.0,0.0,0.0,2.6736,2.7005,0.0,0.0,2.7915,2.8145,2.8371,2.8544,2.8063,2.7895,2.7895,2.7895,2.7895,2.7934,2.8145,2.8222,0.0,2.8506,0.0,0.0,0.0,0.0,0.0,2.8525,0.0,0.0,0.0,0.0,0.0,0.0,0.0,0.0,0.0,0.0,0.0,0.0,0.0,0.0,0.0,0.0,0.0,0.0,0.0,0.0,0.0,0.0,0.0,0.0,0.0,0.0,0.0,0.0,0.0,2.7824,2.8356,2.8767,2.8987,2.9776,3.021,3.021,3.0411,3.1237,3.2583,3.2008,3.2449,3.3807,3.3807,3.3807,3.388,3.5569,3.6303,3.6413,3.8046,3.8707,3.8726,3.8946,3.9882,4.1168,4.1772,4.2616,4.3515,2.5703,2.5703,0.0,0.0,0.0,0.0,0.0,0.0,0.0,0.0,0.0,0.0,0.0,0.0,0.0,0.0,0.0,3.0248,2.9322,0.0,2.8924,0.0,0.0,2.8057,0.0,0.0,2.7915,2.7915,2.7841,0.0,0.0,0.0,0.0,0.0,0.0,2.7063,2.7857,2.7895,2.7895,2.7972,2.8742,2.9563,3.0135,0.0,2.7895,2.7895,2.7895,0.0,0.0,2.88,2.9069,0.0,0.0,0.0,0.0,0.0,0.0,0.0,0.0,0.0,0.0,2.9069,0.0,0.0,0.0,0.0,2.7351,0.0,0.0,0.0,0.0,0.0,0.0,0.0,0.0,0.0,0.0,0.0,0.0,0.0,0.0,0.0,0.0,0.0,0.0,0.0,0.0,0.0,2.775,2.7824,2.8191,2.8987,2.9776,3.021,3.021,3.0962,3.177,3.2601,3.2564,3.2999,3.3807,3.3807,3.3807,3.388,3.5569,3.6303,3.6413,3.8046,3.8707,3.8781,3.9551,4.0377,4.1095,4.1132,4.2139,4.3515,0.0,0.0,0.0,0.0,0.0,0.0,0.0,2.8594,0.0,0.0,0.0,0.0,0.0,0.0,3.1843,0.0,0.0,3.1115,3.0214,3.0152,0.0,0.0,0.0,2.8807,0.0,0.0,2.7938,2.7938,2.7916,0.0,0.0,0.0,0.0,0.0,0.0,2.8415,0.0,0.0,0.0,0.0,0.0,3.0135,3.0346,0.0,0.0,2.9538,2.9538,2.9538,0.0,2.9871,2.9967,3.0,3.0308,3.0404,3.0404,3.0404,3.0192,0.0,0.0,0.0,2.9813,2.9242,0.0,0.0,0.0,0.0,0.0,0.0,0.0,0.0,0.0,0.0,0.0,0.0,0.0,0.0,0.0,0.0,0.0,0.0,0.0,0.0,0.0,0.0,0.0,0.0,0.0,0.0,0.0,2.7512,2.8411,2.9739,3.0577,3.1256,3.1775,3.2051,3.2596,3.3385,3.2839,3.3023,3.3807,3.3807,3.41,3.4656,3.5807,3.6597,3.718,3.8267,3.8707,3.8781,3.9588,4.0396,4.115,4.1699,4.258,4.3515,2.7461,0.0,0.0,0.0,0.0,0.0,0.0,0.0,0.0,0.0,3.2342,0.0,3.3569,0.0,3.328,0.0,3.2295,3.1915,3.1049,3.0986,0.0,3.0472,2.9931,0.0,0.0,0.0,0.0,2.8794,0.0,2.8621,0.0,0.0,0.0,0.0,0.0,0.0,0.0,0.0,3.0404,0.0,0.0,3.0404,0.0,0.0,3.0404,3.0404,0.0,3.0404,3.0404,3.0404,3.0404,3.0404,3.0404,3.0404,3.0404,3.0404,3.0404,3.0404,3.0404,3.0404,0.0,2.9698,2.9563,0.0,2.7813,0.0,0.0,0.0,0.0,0.0,0.0,0.0,0.0,0.0,0.0,0.0,0.0,2.5788,0.0,0.0,0.0,0.0,0.0,0.0,0.0,2.464,2.5328,0.0,0.0,0.0,2.8117,2.9721,3.0834,3.1654,3.2173,3.2729,3.3293,3.3788,3.3275,3.3311,3.3807,3.41,3.4509,3.5059,3.6211,3.7015,3.7566,3.8377,3.8707,3.8817,3.99,4.0653,4.1187,4.2011,4.28,4.3515,2.8359,2.8398,0.0,0.0,2.9101,0.0,0.0,0.0,3.2399,0.0,3.4068,3.452,3.4517,3.4513,3.4128,3.3132,3.3064,0.0,3.182,3.1756,0.0,0.0,3.0519,3.0519,3.0462,0.0,0.0,0.0,0.0,0.0,0.0,0.0,0.0,0.0,2.9165,0.0,3.0404,3.0404,3.0404,3.0404,3.0404,3.0404,3.0404,3.0404,0.0,3.0404,3.0404,3.0404,3.0404,3.0404,3.0404,3.0404,3.0404,3.0404,3.0404,3.0404,3.0404,3.0404,3.0404,3.0404,3.0404,3.0404,0.0,0.0,0.0,0.0,2.9942,0.0,0.0,0.0,0.0,0.0,0.0,0.0,0.0,0.0,0.0,0.0,0.0,0.0,0.0,0.0,0.0,0.0,2.453,2.5283,2.4677,2.4942,0.0,0.0,0.0,2.9005,3.0577,3.1415,3.147,3.3018,3.3807,3.3807,3.3807,3.3825,3.3899,3.4656,3.5059,3.5206,3.6798,3.7529,3.7621,3.8377,3.8726,3.8927,4.049,4.115,4.1297,4.2084,4.2837,4.3515,2.9277,2.9785,3.0195,0.0,3.0348,3.0781,0.0,0.0,0.0,0.0,3.5724,3.6151,3.6111,3.6118,3.5508,3.4012,3.389,0.0,0.0,0.0,0.0,3.2275,3.2256,3.1987,3.1385,3.1371,0.0,3.0404,0.0,0.0,3.0077,0.0,0.0,0.0,0.0,0.0,3.0404,3.0404,3.0404,3.0404,3.0404,3.0404,0.0,0.0,3.0404,3.0404,3.0404,3.0404,3.0404,3.0404,3.0404,3.0404,3.0404,3.0404,3.0404,3.0404,3.0404,3.0404,3.0404,3.0404,3.0404,3.0404,3.0404,3.0173,0.0,0.0,0.0,0.0,0.0,0.0,0.0,0.0,0.0,0.0,0.0,0.0,0.0,0.0,0.0,0.0,0.0,0.0,0.0,0.0,2.4281,2.4493,2.4879,2.554,0.0,0.0,0.0,2.9831,3.087,3.1678,3.2302,3.3293,3.3807,3.3807,3.3807,3.4119,3.4692,3.4912,3.5683,3.6886,3.7309,3.7841,3.8414,3.8615,3.9056,3.968,4.0726,4.1827,4.291,4.3112,4.3331,4.3515,3.0176,0.0,0.0,3.1176,0.0,0.0,3.257,0.0,0.0,3.5972,3.6527,0.0,3.6706,3.6692,3.6173,3.4872,3.4776,0.0,0.0,0.0,0.0,3.291,3.2891,3.2699,3.2237,3.1891,0.0,3.0962,0.0,0.0,3.0404,0.0,0.0,0.0,0.0,3.0404,0.0,3.0808,3.0962,3.1,3.1346,0.0,0.0,3.1481,3.1481,3.1442,3.1096,3.0962,3.0904,3.0538,3.0654,3.0904,3.0519,3.0654,3.0885,3.0519,3.0673,3.0885,3.05,3.0404,3.0404,3.0404,3.0404,3.0269,2.9775,3.0038,3.0269,0.0,0.0,0.0,0.0,0.0,0.0,0.0,0.0,0.0,0.0,0.0,0.0,0.0,0.0,0.0,0.0,0.0,2.4337,2.4695,2.5466,2.6282,0.0,0.0,0.0,3.0173,3.1329,3.2137,3.2601,3.3738,3.4307,3.4307,3.4307,3.4747,3.5573,3.5922,3.6597,3.7529,3.7878,3.8285,3.8707,3.8707,3.9166,4.001,4.1167,4.2396,4.3515,4.3515,4.3515,4.3515,0.0,0.0,0.0,0.0,0.0,0.0,0.0,3.4308,0.0,3.6933,0.0,3.7115,3.6885,3.6865,3.65,3.5577,0.0,3.5173,3.441,3.4379,3.4026,3.3276,3.3237,3.3199,3.3064,3.2391,0.0,0.0,0.0,0.0,0.0,0.0,0.0,0.0,0.0,0.0,0.0,3.1487,3.1852,0.0,3.2622,3.2891,3.2891,3.2776,3.2814,3.2795,3.1987,3.1775,3.1737,3.0865,3.1135,3.1718,3.0846,3.1096,3.1545,3.0788,3.1019,3.1391,3.075,3.0481,3.0404,3.0404,3.0404,3.0404,3.0404,3.0404,3.0404,3.0404,3.0404,3.0173,0.0,0.0,0.0,0.0,0.0,0.0,0.0,0.0,0.0,0.0,0.0,0.0,0.0,0.0,2.4768,2.5356,2.6245,0.0,0.0,0.0,0.0,0.0,3.1757,0.0,3.2913,0.0,3.5004,3.5316,3.5096,3.55,3.6468,3.718,3.7566,3.7694,3.8395,3.8707,3.8707,3.8707,3.9239,4.0212,4.1827,4.2873,4.3515,4.3515,4.3515,4.3515,0.0,0.0,0.0,0.0,0.0,3.5386,3.5984,3.685,3.7793,3.8816,3.9462,3.9315,3.7911,3.7777,3.7161,3.5635,3.55,0.0,0.0,0.0,0.0,3.5058,3.5038,3.4718,3.3994,3.384,3.3083,0.0,0.0,0.0,0.0,0.0,0.0,0.0,0.0,0.0,3.1525,3.2333,0.0,3.2699,3.2833,3.2891,3.2833,3.216,3.2314,3.2795,3.1987,3.2122,3.2564,3.1756,3.2006,3.2545,3.1737,3.1583,3.1679,3.1525,3.1077,3.075,3.1308,3.0942,3.0404,3.0404,3.0404,3.0404,3.0404,3.0404,3.0404,3.0404,3.0404,3.0346,3.0192,0.0,0.0,0.0,0.0,0.0,0.0,0.0,0.0,0.0,0.0,0.0,0.0,0.0,0.0,0.0,0.0,0.0,0.0,0.0,0.0,0.0,0.0,0.0,0.0,0.0,0.0,3.7052,3.5665,3.5793,3.729,3.7437,3.786,3.8505,3.8634,3.8707,3.8707,3.8707,3.957,4.104,4.2653,4.3386,4.3515,4.3515,4.3515,4.3515,0.0,0.0,0.0,0.0,0.0,0.0,0.0,3.8784,0.0,3.9341,3.8866,3.8219,3.7411,3.6949,3.6385,3.5577,3.55,3.55,3.55,3.55,3.55,3.55,3.55,0.0,3.4872,3.443,3.3801,3.3006,0.0,0.0,0.0,0.0,0.0,0.0,0.0,3.1545,0.0,0.0,0.0,3.3603,3.4064,3.425,3.4212,3.3827,3.3904,3.4141,3.3295,3.3545,3.3987,3.2275,3.2545,3.3353,3.2102,3.2295,3.2833,3.1968,3.1698,3.1698,3.1698,3.1058,3.0519,3.0962,3.0731,3.0404,3.0404,3.0404,3.0404,3.0404,3.0404,3.0404,3.0404,3.0404,0.0,0.0,0.0,0.0,0.0,0.0,0.0,0.0,0.0,0.0,0.0,0.0,0.0,0.0,0.0,0.0,0.0,0.0,0.0,0.0,0.0,0.0,0.0,0.0,0.0,3.6868,3.6486,3.6945,3.812,3.812,3.8322,3.8707,3.8707,3.8946,3.9386,4.023,4.102,4.1846,4.302,4.3515,4.3515,4.3515,4.3515,4.3515,0.0,3.3808,0.0,0.0,3.6712,0.0,3.9092,3.9842,4.0073,3.9631,3.8354,3.7373,3.7019,3.6404,3.5885,3.5538,3.55,3.55,3.55,3.55,3.55,3.55,3.55,3.55,3.55,3.4834,3.4398,0.0,0.0,0.0,0.0,0.0,0.0,0.0,0.0,0.0,0.0,0.0,3.4468,3.4545,3.5212,3.55,3.5481,3.5288,3.5346,3.5385,3.4507,3.4757,3.5173,3.2968,3.3237,3.4199,3.2718,3.3141,3.3936,3.2622,3.2545,3.2795,3.2352,3.1602,3.1096,3.1775,3.1308,3.0673,3.0673,3.0538,3.0404,3.0404,3.0404,3.0404,3.0404,3.0404,0.0,0.0,0.0,0.0,0.0,0.0,0.0,0.0,0.0,0.0,0.0,0.0,0.0,0.0,0.0,2.9005,2.9005,2.9934,0.0,0.0,0.0,3.333,3.4321,0.0,3.6285,0.0,3.729,3.7918,3.8707,3.8707,3.8707,3.8707,3.8891,3.9405,4.0267,4.1717,4.2304,4.2378,4.3185,4.3515,4.3515,4.3515,4.3515,4.3515,0.0,0.0,0.0,0.0,0.0,0.0,0.0,3.9361,3.965,4.0304,4.0246,3.9573,3.8046,3.7815,3.7161,3.5635,3.55,3.55,3.55,3.55,3.55,3.55,3.55,3.55,3.55,3.5423,3.4988,0.0,0.0,0.0,0.0,0.0,0.0,0.0,0.0,0.0,0.0,3.5007,3.5385,3.5385,3.5462,3.55,3.5404,3.4622,3.4814,3.5385,3.4507,3.4757,3.5346,3.4314,3.4603,3.5212,3.4257,3.4071,3.4167,3.4013,3.3449,3.3064,3.3782,3.3333,3.2699,3.2776,3.2179,3.1583,3.1583,3.0962,3.0404,3.0404,3.0404,3.0404,3.0404,3.0404,3.0654,0.0,0.0,0.0,0.0,0.0,0.0,0.0,0.0,0.0,0.0,0.0,0.0,0.0,0.0,2.9005,2.9005,3.0448,3.1323,3.1397,0.0,3.4449,3.6046,3.5445,0.0,3.8469,3.7823,3.7918,3.8707,3.8707,3.8707,3.8744,3.946,4.0249,4.1058,4.1937,4.2304,4.2378,4.3185,4.3515,4.3515,4.3515,4.3515,4.3515,0.0,0.0,0.0,0.0,0.0,0.0,0.0,4.0015,3.9958,3.9804,3.8873,3.7969,3.7296,3.6788,3.6231,3.5558,3.55,3.55,3.55,3.55,3.55,3.55,3.55,3.55,3.55,3.55,3.5327,0.0,0.0,0.0,0.0,0.0,0.0,0.0,0.0,3.4487,3.5007,3.5346,3.55,3.55,3.55,3.55,3.5462,3.5115,3.5192,3.5442,3.5122,3.5192,3.5442,3.5103,3.5212,3.5346,3.4468,3.4564,3.4872,3.4359,3.3955,3.3763,3.4109,3.3564,3.3026,3.3545,3.3045,3.2429,3.2429,3.216,3.1756,3.1269,3.075,3.0404,3.0404,3.0404,3.0519,0.0,0.0,0.0,0.0,0.0,0.0,0.0,0.0,0.0,0.0,0.0,0.0,0.0,0.0,0.0,2.9684,3.0338,3.1329,3.2779,0.0,3.3867,3.55,3.5697,3.6285,3.7276,3.79,3.8395,3.8726,3.9203,3.968,4.0178,4.0983,4.1515,4.1882,4.269,4.302,4.3039,4.3369,4.3515,4.3515,4.3515,4.3515,4.3515,3.8334,0.0,3.8642,0.0,3.965,3.9842,4.0419,4.0304,3.9938,3.9381,3.8007,3.6981,3.6731,3.6192,3.575,3.5519,3.55,3.55,3.55,3.55,3.55,3.55,3.55,0.0,3.55,3.55,3.55,3.55,3.4872,0.0,0.0,0.0,0.0,0.0,3.4584,3.493,3.55,3.55,3.55,3.55,3.55,3.55,3.55,3.55,3.55,3.55,3.55,3.55,3.55,3.55,3.55,3.5385,3.4776,3.5007,3.5385,3.4757,3.4584,3.4584,3.4584,3.4122,3.3814,3.443,3.393,3.3276,3.3276,3.3083,3.2737,3.2179,3.1558,3.1135,3.1135,3.0942,3.0865,3.1096,0.0,0.0,0.0,0.0,0.0,0.0,0.0,2.989,2.9649,0.0,0.0,0.0,0.0,0.0,3.084,3.0687,0.0,0.0,0.0,0.0,0.0,3.5862,3.6413,3.6684,3.8046,3.8817,3.9074,3.9882,4.0689,4.148,4.2047,4.2433,4.269,4.3276,4.3515,4.3515,4.3515,4.3515,4.3515,4.3515,4.3515,4.3515,3.913,3.9284,3.9534,4.0342,4.0496,4.0496,4.0496,3.9823,3.9304,3.9304,3.8527,3.7661,3.6788,3.6692,3.6365,3.5577,3.55,3.55,3.55,3.55,3.55,0.0,0.0,3.55,3.55,3.55,3.55,3.55,0.0,0.0,3.5481,0.0,3.5462,3.5481,3.5481,3.5481,3.55,3.55,3.55,3.55,3.55,3.55,3.55,3.55,3.55,3.55,3.55,3.55,3.55,3.55,3.55,3.55,3.5481,3.5481,3.55,3.5481,3.5481,3.5481,3.5481,3.5481,3.5462,3.5481,3.4834,3.4186,3.4186,3.3526,3.2891,3.2891,3.2872,3.2872,3.2872,3.2218,3.1948,3.2737,0.0,0.0,0.0,0.0,0.0,0.0,3.1554,3.1066,3.0265,0.0,0.0,0.0,0.0,0.0,0.0,0.0,0.0,3.2583,3.3385,0.0,3.5004,3.5862,3.6703,3.7492,3.8303,3.9129,3.99,4.0726,4.1517,4.2286,4.2304,4.2745,4.3496,4.3515,4.3515,4.3515,4.3515,4.3515,4.3515,4.3515,4.3515,4.3515,4.0054,4.0112,4.0208,4.0458,4.0496,4.0496,4.0496,4.0285,3.9919,3.9381,3.8546,3.7892,3.7623,3.7065,3.6385,0.0,3.55,3.55,0.0,3.55,3.5731,3.6288,3.6327,3.6596,3.7199,3.6615,3.6615,3.7199,0.0,0.0,0.0,3.7199,3.7199,3.718,3.6577,3.6327,3.6269,3.5731,3.55,3.55,3.55,3.55,3.55,3.55,3.55,3.55,3.55,3.55,3.55,3.55,3.55,3.55,3.55,3.55,3.55,3.55,3.55,3.55,3.55,3.55,3.55,3.55,3.5288,3.5084,3.5084,3.441,3.3801,3.3801,3.3314,3.2891,3.2891,3.2699,3.2602,3.2852,0.0,0.0,0.0,0.0,0.0,0.0,3.1228,3.1305,0.0,3.1029,0.0,0.0,0.0,0.0,0.0,0.0,0.0,0.0,3.4491,0.0,3.5881,3.6707,3.7529,3.8322,3.8579,3.9423,4.0763,4.1552,4.2359,4.3112,4.3112,4.3259,4.3515,4.3515,4.3515,4.3515,4.3515,4.3515,4.3515,4.3515,4.3515,4.3515,4.0496,4.0496,4.0496,4.0496,4.0496,4.0496,4.0496,4.0496,4.0323,3.9823,3.9284,3.8815,3.8527,3.8007,0.0,3.65,3.6442,3.6442,3.6442,3.6135,3.6327,3.7161,3.6865,3.7123,3.7988,0.0,0.0,3.8007,3.745,3.7469,3.8007,3.8007,3.8007,3.7969,3.7084,3.6692,3.6654,3.5846,3.55,3.55,3.55,3.55,3.55,3.55,3.55,3.55,3.55,3.55,3.55,3.55,3.55,3.55,3.55,3.55,3.55,3.55,3.55,3.55,3.55,3.55,3.55,3.55,3.55,3.55,3.55,3.5084,3.468,3.468,3.4257,3.3891,3.3891,3.3603,3.3391,3.3391,3.3391,3.3074,3.2213,0.0,0.0,0.0,0.0,0.0,0.0,3.1843,0.0,0.0,0.0,0.0,0.0,0.0,0.0,3.4968,3.5004,0.0,3.6725,3.7254,3.8062,3.9166,3.9772,4.0579,4.1572,4.2378,4.302,4.3515,4.3515,4.3515,4.3515,4.3515,4.3515,4.3515,4.3515,4.3515,4.3515,4.3515,4.3515,4.3515,4.0516,4.0496,0.0,0.0,4.0496,0.0,4.0496,4.0496,4.0496,4.0496,4.0458,4.015,3.9457,3.9342,3.8996,3.8238,0.0,0.0,0.0,3.7238,3.718,3.8046,3.7315,3.7296,3.8142,3.8123,3.8065,3.8007,3.8123,3.8142,3.8084,3.8142,3.8161,3.8123,3.7199,3.6788,3.6731,3.5865,3.55,3.55,3.55,3.55,3.55,3.55,3.55,3.55,3.55,3.55,3.55,3.55,3.55,3.55,3.55,3.55,3.55,3.55,3.55,3.55,3.55,3.55,3.55,3.55,3.55,3.55,3.55,3.55,3.55,3.55,3.55,3.55,3.55,3.482,3.4263,3.4263,3.4249,3.4029,3.344,0.0,0.0,0.0,0.0,0.0,0.0,3.2674,3.2674,0.0,0.0,0.0,0.0,0.0,3.4302,3.4986,3.5114,3.5922,3.7474,3.7603,3.8447,3.9992,4.1607,4.2359,4.2323,4.313,4.3515,4.3515,4.3515,4.3515,4.3515,4.3515,4.3515,4.3515,4.3515,4.3515,4.3515,4.3515,4.3515,4.3515,0.0,0.0,4.0496,4.0496,4.0496,4.0496,4.0496,4.0496,4.0496,4.0496,3.9977,3.9746,4.0169,3.9669,3.9457,3.9881,3.8738,3.8007,3.8007,3.7815,3.8084,3.895,3.8796,3.9065,3.99,3.9304,3.8661,3.8007,3.9277,3.9592,3.9015,3.9631,3.9919,3.9842,3.8354,3.77,3.7603,3.6115,3.55,3.55,3.55,3.55,3.55,3.55,3.55,3.55,3.55,3.55,3.55,3.55,3.55,3.55,3.55,3.55,3.55,3.55,3.55,3.55,3.55,3.55,3.55,3.55,3.55,3.55,3.55,3.55,3.55,3.55,3.55,3.55,3.55,3.5155,3.4893,3.4893,3.4712,3.4235,3.3227,3.3613,0.0,0.0,3.3256,3.3532,3.3532,3.3532,3.3532,0.0,0.0,0.0,0.0,0.0,3.5495,3.5023,3.6248,3.7107,3.7492,3.8723,3.9827,4.0838,4.2451,4.2892,4.2323,4.313,4.3515,4.3515,4.3515,4.3515,4.3515,4.3515,4.3515,4.3515,4.3515,4.3515,4.3515,4.3515,4.3515,4.3515,4.0593,4.0496,4.0496,4.0496,4.0496,4.0496,4.0496,4.0496,4.0496,4.0496,4.0131,4.0015,4.0458,4.0112,4.0015,4.0458,3.9669,3.9142,3.9142,3.8796,3.8969,3.9804,3.9496,3.9688,4.0477,4.0073,3.9631,3.9142,4.0054,4.0285,3.9861,4.0304,4.0304,3.99,3.8584,3.7777,3.7315,3.6038,3.55,3.55,3.55,3.55,3.55,3.55,3.55,3.55,3.55,3.55,3.55,3.55,3.55,3.55,3.55,3.55,3.55,3.55,3.55,3.55,3.55,3.55,3.55,3.55,3.55,3.55,3.55,3.55,3.5479,3.5327,3.5312,3.5281,3.5166,3.5027,3.4917,3.4917,3.4784,3.4432,3.3668,3.392,0.0,3.3241,3.3532,3.3807,3.3807,3.4137,3.4197,3.3825,0.0,0.0,3.438,3.5936,3.645,3.561,3.7184,3.8245,3.8594,4.0175,4.1222,4.1645,4.291,4.3276,4.2855,4.3313,4.3515,4.3515,4.3515,4.3515,4.3515,4.3515,4.3515,4.3515,4.3515,4.3515,4.3515,4.3515,4.3515,4.3515,4.0727,4.0804,4.0843,4.0727,4.0708,4.065,4.0516,4.0496,4.0496,4.0496,4.0496,4.0496,4.0496,4.0496,4.0496,4.0496,4.0496,4.0496,4.0496,3.9861,3.9785,4.0477,3.9842,3.9804,4.0496,4.0496,4.0439,4.0323,4.0323,4.0246,4.0131,4.0131,3.9823,3.9265,3.8392,3.7661,3.7038,3.6212,3.5808,3.5673,3.5673,3.5615,3.5519,3.5635,3.5673,3.5673,3.5673,3.5673,3.5654,3.5538,3.55,3.55,3.55,3.55,3.5519,3.5654,3.5673,3.5654,3.5538,3.55,3.55,3.55,3.55,3.55,3.55,3.5596,3.5597,3.5337,3.5268,3.5207,3.4933,3.4728,3.467,3.4802,3.4666,3.452,3.435,0.0,3.4056,3.3829,3.3917,3.399,3.399,3.4711,3.4912,3.4229,3.5495,3.6028,0.0,3.6835,3.7419,3.6853,3.8175,3.9331,4.0249,4.1625,4.2359,4.2488,4.3167,4.3515,4.3515,4.3515,4.3515,4.3515,4.3515,4.3515,4.3515,4.3515,4.3515,4.3515,4.3515,4.3515,4.3515,4.3515,4.3515,4.3515,4.1739,4.22,4.245,4.1739,4.1604,4.1354,4.0612,4.0496,4.0496,4.0496,4.0496,4.0496,4.0496,4.0496,4.0496,4.0496,4.0496,4.0496,4.0496,4.0381,4.0362,4.0496,4.0381,4.0362,4.0496,4.0496,4.0169,3.9496,3.9496,3.9111,3.8392,3.8392,3.87,3.9265,3.8392,3.8334,3.8834,3.7988,3.7199,3.65,3.65,3.6115,3.5577,3.625,3.65,3.65,3.65,3.65,3.6404,3.5731,3.55,3.55,3.55,3.55,3.5635,3.6308,3.65,3.6365,3.5673,3.55,3.55,3.55,3.55,3.55,3.55,3.6038,3.6442,3.6179,3.6106,3.6025,3.5773,3.4925,3.4512,3.5259,3.4562,3.4173,3.4793,0.0,3.3855,3.3802,3.4399,3.4821,3.4821,3.5587,3.6046,3.5917,3.6156,3.6541,3.7088,3.7991,3.8762,3.9313,3.957,4.0432,4.1901,4.2176,4.2635,4.3331,4.3441,4.3515,4.3515,4.3515,4.3515,4.3515,4.3515,4.3515,4.3515,4.3515,4.3515,4.3515,4.3515,4.3515,4.3515,4.3515,4.3515,4.3515,4.2585,4.2566,4.2431,4.1912,4.1412,4.095,4.0554,4.0496,4.0496,4.0496,4.0496,4.0689,4.1143,4.0785,4.0881,4.1816,4.147,4.12,4.12,4.0766,4.0496,4.0496,4.0496,4.0496,4.0496,4.0496,4.0323,3.9958,3.9958,3.9746,3.9361,3.9361,3.9342,3.9284,3.8873,3.8661,3.8565,3.8161,3.7777,3.7411,3.7411,3.718,3.6892,3.7257,3.7411,3.7411,3.7411,3.7411,3.7334,3.6969,3.6853,3.6853,3.6853,3.6853,3.6889,3.7075,3.7264,3.7315,3.6949,3.6853,3.6853,3.6853,3.6853,3.6798,3.6626,3.6862,3.7017,3.6602,3.6516,3.6438,3.6155,3.5297,3.4916,3.5779,3.4723,0.0,0.0,3.4674,3.4454,3.4454,3.5188,3.5701,3.5701,3.6853,3.7404,3.6978,3.8157,3.8854,3.8796,3.9551,4.0359,4.1167,4.1185,4.1754,4.2928,4.2947,4.313,4.3515,4.3515,4.3515,4.3515,4.3515,4.3515,4.3515,4.3515,4.3515,4.3515,4.3515,4.3515,4.3515,4.3515,4.3515,4.3515,4.3515,4.3515,4.3515,4.3374,4.3162,4.2805,4.222,4.17,4.1247,4.0862,4.0977,4.1112,4.1112,4.1112,4.1354,4.2027,4.1508,4.1643,4.2989,4.2489,4.2104,4.2104,4.147,4.092,4.0516,4.0496,4.0496,4.0496,4.0496,4.0496,4.0496,4.0304,4.0227,4.0227,4.0015,3.9708,3.9304,3.9304,3.9034,3.8584,3.8584,3.8469,3.8296,3.8296,3.818,3.8027,3.8238,3.8296,3.8296,3.8296,3.8296,3.8277,3.8065,3.8007,3.8007,3.8007,3.8007,3.7997,3.7917,3.8189,3.8385,3.7926,3.7795,3.7795,3.7795,3.7795,3.7725,3.7481,3.7547,3.7551,3.7082,3.6987,3.6901,3.6632,3.5881,3.5573,3.6431,0.0,0.0,0.0,3.5426,3.5298,3.5298,3.6229,3.6853,3.6853,3.8322,3.9001,3.8392,4.0047,4.091,4.0469,4.1038,4.1754,4.2543,4.258,4.2873,4.3496,4.3515,4.3515,4.3515,4.3515,4.3515,4.3515,4.3515,4.3515,4.3515,4.3515,4.3515,4.3515,4.3515,4.3515,4.3515,4.3515,4.3608,4.3754,4.357,4.3753,4.403,4.4201,4.4825,4.4844,4.3278,4.3566,4.3508,4.195,4.2393,4.2912,4.2912,4.2912,4.2931,4.3008,4.2951,4.2951,4.3085,4.3047,4.3008,4.3008,4.2931,4.2181,4.0573,4.0496,4.0496,4.0496,4.0496,4.0496,4.0496,3.9746,3.94,3.9381,3.8565,3.8584,3.9304,3.9304,3.9688,4.0323,4.0323,3.99,3.9207,3.9207,3.8719,3.8084,3.8892,3.9207,3.9207,3.9207,3.9207,3.9092,3.8277,3.8007,3.8007,3.8007,3.8007,3.8161,3.8935,3.9546,3.9538,3.7667,3.7165,3.7165,3.7165,3.7165,3.7165,3.7144,3.772,3.8169,3.7871,3.7819,3.774,3.7456,3.6758,3.6468,3.729,0.0,0.0,3.7199,3.667,3.6193,3.6193,3.7588,3.8524,3.8524,3.9976,4.0893,4.0838,4.1003,4.1389,4.2084,4.2176,4.258,4.3404,4.3423,4.3441,4.3515,4.3515,4.3515,4.3515,4.3515,4.3515,4.3515,4.3515,4.3515,4.3515,4.3515,4.3515,4.3515,4.3515,4.3515,4.3515,4.3515,4.3956,4.4525,4.3754,4.4433,4.5626,4.5114,4.5364,4.5229,4.4047,4.3951,4.3547,4.2019,4.2547,4.2912,4.2354,4.2758,4.3297,4.3797,4.3393,4.3528,4.4547,4.4162,4.3835,4.3835,4.3835,4.3085,4.1373,4.0785,4.0496,4.0496,4.0496,4.0496,4.0496,4.0189,4.0035,4.0035,3.9708,3.9727,4.0035,4.0035,4.0208,4.0496,4.0496,4.0323,4.0035,4.0035,3.9861,3.9592,3.9919,4.0035,4.0035,4.0035,3.9948,3.9743,3.9418,3.9294,3.9344,3.9641,3.9871,4.0024,3.9954,4.0309,4.0435,3.9185,3.9113,3.927,3.8784,3.9036,3.9342,3.9127,3.8933,3.8992,3.9734,3.949,3.9257,3.9656,3.9074,3.8799,3.9606,0.0,3.8065,3.8888,3.8741,3.8524,3.8524,3.9515,4.0178,4.0178,4.1187,4.1846,4.1846,4.2304,4.2708,4.302,4.3039,4.3167,4.3496,4.3515,4.3515,4.3515,4.3515,4.3515,4.3515,4.3515,4.3515,4.3515,4.3515,4.3515,4.3515,4.3515,4.3515,4.3515,4.3515,4.3515,4.3551,4.4048,4.4433,4.4727,4.4911,4.5369,4.5865,4.5594,4.5594,4.5325,4.4451,4.4382,4.4017,4.2777,4.3316,4.3662,4.3066,4.3508,4.4105,4.4643,4.422,4.4355,4.5498,4.5056,4.4701,4.4701,4.4451,4.3662,4.2277,4.1373,4.1027,4.1304,4.1046,4.1027,4.1324,4.1324,4.1324,4.1324,4.1324,4.1324,4.1304,4.1027,4.0912,4.0893,4.0631,4.0496,4.0516,4.0804,4.0912,4.0923,4.1061,4.1131,4.1085,4.0718,4.0644,4.0653,4.0397,4.0492,4.0753,4.1076,4.1328,4.1427,4.0971,4.1018,4.1138,4.0566,4.0847,4.1089,4.0261,4.0486,4.0835,4.0614,4.0111,3.9997,4.0903,4.0671,4.0451,4.1003,4.0653,4.0469,4.1003,4.0159,3.9662,4.0194,4.0286,4.0286,4.0286,4.1001,4.148,4.148,4.2194,4.2671,4.2671,4.3185,4.3515,4.3515,4.3515,4.3515,4.3515,4.3515,4.3515,4.3515,4.3515,4.3515,4.3515,4.3515,4.3515,4.3515,4.3515,4.3515,4.3515,4.3515,4.3515,4.3515,4.3515,4.3515,4.3588,4.4397,4.4856,4.5149,4.57,4.6214,4.6617,4.5594,4.5594,4.5325,4.4451,4.5037,4.5306,4.4432,4.5037,4.5594,4.5594,4.5594,4.5594,4.5594,4.5594,4.5594,4.5594,4.5594,4.5594,4.5594,4.4778,4.3951,4.3143,4.2277,4.222,4.3085,4.2258,4.2239,4.3104,4.3104,4.3104,4.3104,4.3104,4.3104,4.3066,4.22,4.1808,4.175,4.0893,4.0516,4.0585,4.1462,4.1808,4.186,4.2316,4.2502,4.2356,4.1229,4.1324,4.1877,4.1079,4.1343,4.2008,4.2008,4.2008,4.1996,4.1996,4.1812,4.1603,4.1603,4.1949,4.2121,4.1297,4.1095,4.1113,4.1113,4.1095,4.1095,4.1113,4.1113,4.1113,4.1113,4.1113,4.1113,4.1113,4.1113,4.1113,4.1113,4.1113,4.1113,4.1113,4.1827,4.2304,4.2304,4.302,4.3515,4.3515,4.3515,4.3515,4.3515,4.3515,4.3515,4.3515,4.3515,4.3515,4.3515,4.3515,4.3515,4.3515,4.3515,4.3515,4.3515,4.3515,4.3515,4.3515,4.3515,4.3515,4.3515,4.3515,4.3515,4.3588,4.4397,4.5186,4.5883,4.5902,4.6911,4.8177,4.5594,4.5594,4.5518,4.5267,4.5441,4.5306,4.4432,4.5037,4.5383,4.4759,4.5229,4.5594,4.5594,4.5594,4.5594,4.5594,4.5594,4.5594,4.5594,4.5364,4.5114,4.4863,4.347,4.2835,4.3085,4.2854,4.2835,4.3104,4.3104,4.3104,4.3104,4.3104,4.3104,4.3085,4.2835,4.272,4.2701,4.2431,4.2166,4.1925,4.2183,4.2158,4.1954,4.2108,4.2148,4.2099,4.1763,4.168,4.1684,4.1441,4.1516,4.1815,4.238,4.2802,4.2939,4.2384,4.2546,4.2799,4.2228,4.2607,4.28,4.1425,4.1517,4.1937,4.1937,4.1499,4.1407,4.2543,4.2323,4.2121,4.2671,4.2782,4.2782,4.2782,4.2782,4.2782,4.2782,4.2782,4.2782,4.2782,4.3002,4.313,4.313,4.3368,4.3515,4.3515,4.3515,4.3515,4.3515,4.3515,4.3515,4.3515,4.3515,4.3515,4.3515,4.3515,4.3515,4.3515,4.3515,4.3515,4.3515,4.3515,4.3515,4.3515,4.3515,4.3515,4.3551,4.4103,4.4011,4.3643,4.5002,4.5351,4.5131,4.5681,4.6195,4.6581,4.5594,4.5594,4.5594,4.5594,4.5594,4.5421,4.4893,4.5267,4.5421,4.4874,4.5267,4.5594,4.5594,4.5594,4.5594,4.5594,4.5594,4.5594,4.5594,4.5594,4.5594,4.5594,4.4624,4.4085,4.4085,4.3739,4.3739,4.4085,4.4085,4.4085,4.4085,4.4085,4.4085,4.4066,4.372,4.3566,4.3547,4.3239,4.2961,4.2766,4.3073,4.3016,4.2733,4.2951,4.2923,4.272,4.2282,4.221,4.2307,4.1992,4.2085,4.2437,4.2921,4.3277,4.3387,4.291,4.3112,4.3404,4.291,4.313,4.3276,4.2286,4.2415,4.2763,4.2763,4.2396,4.2323,4.3313,4.3112,4.291,4.3423,4.3515,4.3515,4.3515,4.3515,4.3515,4.3515,4.3515,4.3515,4.3515,4.3515,4.3515,4.3515,4.3515,4.3515,4.3515,4.3515,4.3515,4.3515,4.3515,4.3515,4.3515,4.3515,4.3515,4.3515,4.3515,4.3515,4.3515,4.3515,4.3515,4.3515,4.3515,4.3515,4.3515,4.3515,4.3681,4.3993,4.4158,4.4121,4.4066,4.5057,4.5131,4.48,4.5608,4.6104,4.6379,4.5594,4.5594,4.5594,4.5594,4.5594,4.5594,4.5594,4.5594,4.5594,4.5594,4.5594,4.5594,4.5594,4.5594,4.5594,4.5594,4.5594,4.5594,4.5594,4.5594,4.5594,4.5594,4.5594,4.5594,4.5594,4.4816,4.4797,4.5594,4.5594,4.5594,4.5594,4.5594,4.5594,4.5575,4.4759,4.4412,4.4374,4.3624,4.3308,4.334,4.407,4.4154,4.3859,4.4354,4.4308,4.3816,4.2785,4.2873,4.3404,4.2653,4.2892,4.3515,4.3515,4.3515,4.3515,4.3515,4.3515,4.3515,4.3515,4.3515,4.3515,4.3515,4.3515,4.3515,4.3515,4.3515,4.3515,4.3515,4.3515,4.3515,4.3515,4.3515,4.3515,4.3515,4.3515,4.3515,4.3515,4.3515,4.3515,4.3515,4.3515,4.3515,4.3515,4.3515,4.3515,4.3515,4.3515,4.3515,4.3515,4.3515,4.3533,4.3606,4.3551,4.357,4.3717,4.3626,4.357,4.3515,4.3515,4.3515,4.3515,4.3515,4.3515,4.3515,4.3515,4.392,4.4544,4.3883,4.3993,4.4617,4.4764,4.4727,4.469,4.5498,4.6269,4.6911,4.5594,4.5594,4.5594,4.5594,4.5594,4.5594,4.5594,4.5594,4.5594,4.5594,4.5594,4.5594,4.5594,4.5594,4.5594,4.5594,4.5594,4.5594,4.5594,4.5594,4.5594,4.5594,4.5594,4.5594,4.5594,4.5421,4.5421,4.5594,4.5594,4.5594,4.5594,4.5594,4.5594,4.5594,4.5402,4.5325,4.5306,4.5133,4.4901,4.4685,4.4857,4.4545,4.3971,4.409,4.3912,4.3579,4.333,4.3349,4.3478,4.3313,4.3368,4.3515,4.3515,4.3515,4.3515,4.3515,4.3515,4.3515,4.3515,4.3515,4.3515,4.3515,4.3515,4.3515,4.3515,4.3515,4.3515,4.3515,4.3515,4.3515,4.3515,4.3515,4.3515,4.3515,4.3515,4.3515,4.3515,4.3515,4.3515,4.3515,4.3515,4.3515,4.3515,4.3515,4.3515,4.3515,4.3515,4.3515,4.3515,4.3515,4.3791,4.4415,4.3828,4.4103,4.5369,4.4745,4.4121,4.3515,4.3515,4.3515,4.3515,4.3515,4.3515,4.3515,4.3515,4.3606,4.3791,4.425,4.4176,4.3883,4.5149,4.4874,4.3864,4.4672,4.5076,4.5388,4.5594,4.5594,4.5594,4.5594,4.5594,4.5594,4.5594,4.5594,4.5594,4.5594,4.5594,4.5594,4.5594,4.5594,4.5594,4.5594,4.5594,4.5594,4.5594,4.5594,4.5594,4.5594,4.5594,4.5594,4.5594,4.5594,4.5594,4.5594,4.5594,4.5594,4.5594,4.5594,4.5594,4.5594,4.5594,4.5594,4.5586,4.5429,4.5352,4.5312,4.4988,4.4631,4.428,4.4058,4.3788,4.3515,4.3515,4.3515,4.3515,4.3515,4.3515,4.3515,4.3515,4.3515,4.3515,4.3515,4.3515,4.3515,4.3515,4.3515,4.3515,4.3515,4.3515,4.3515,4.3515,4.3515,4.3515,4.3515,4.3515,4.3515,4.3515,4.3515,4.3515,4.3515,4.3515,4.3515,4.3515,4.3515,4.3515,4.3515,4.3515,4.3515,4.3515,4.3515,4.3515,4.3515,4.3515,4.3663,4.4048,4.3699,4.403,4.5241,4.4488,4.4654,4.5883,4.5112,4.469,4.4635,4.425,4.3864,4.3515,4.3515,4.3515,4.3515,4.3515,4.3718,4.4085,4.4103,4.4103,4.4121,4.458,4.4232,4.3606,4.4415,4.5186,4.6012,4.5594,4.5594,4.5594,4.5594,4.5594,4.5594,4.5594,4.5594,4.5594,4.5594,4.5594,4.5594,4.5594,4.5594,4.5594,4.5594,4.5594,4.5594,4.5594,4.5594,4.5594,4.5594,4.5594,4.5594,4.5594,4.5594,4.5594,4.5594,4.5594,4.5594,4.5594,4.5594,4.5594,4.5594,4.5594,4.5568,4.5495,4.5222,4.5232,4.5371,4.4818,4.4553,4.446,4.4136,4.3788,4.3515,4.3515,4.3515,4.3515,4.3515,4.3515,4.3515,4.3515,4.3515,4.3515,4.3515,4.3515,4.3515,4.3515,4.3515,4.3515,4.3515,4.3515,4.3515,4.3515,4.3515,4.3551,4.368,4.3699,4.3736,4.3864,4.3919,4.3882,4.3718,4.3699,4.3644,4.3533,4.3515,4.3515,4.3515,4.3608,4.3662,4.3497,4.3608,4.3699,4.3699,4.3699,4.4066,4.4874,4.4268,4.458,4.6067,4.5333,4.5369,4.6305,4.5516,4.5425,4.6104,4.5443,4.469,4.3919,4.3754,4.3699,4.3699,4.357,4.3883,4.4452,4.3773,4.3883,4.447,4.4048,4.3828,4.3809,4.4764,4.5938,4.7223,4.5594,4.5594,4.5594,4.5594,4.5594,4.5594,4.5594,4.5594,4.5594,4.5594,4.5594,4.5594,4.5594,4.5594,4.5594,4.5594,4.5594,4.5594,4.5594,4.5594,4.5594,4.5594,4.5594,4.5594,4.5594,4.5594,4.5594,4.5594,4.5594,4.5594,4.5594,4.5594,4.5594,4.5594,4.5594,4.5438,4.515,4.5118,4.4954,4.472,4.465,4.4387,4.4091,4.4013,4.3788,4.3515,4.3515,4.3515,4.3515,4.3515,4.3515,4.3515,4.3515,4.3515,4.3515,4.3515,4.3515,4.3515,4.3515,4.3515,4.3515,4.3515,4.3515,4.3515,4.3515,4.3515,4.3699,4.4397,4.4544,4.4745,4.5443,4.5571,4.5351,4.4654,4.4544,4.4287,4.3606,4.3515,4.3515,4.3515,4.4103,4.4268,4.357,4.4121,4.4544,4.4544,4.4544,4.4892,4.5681,4.5626,4.5993,4.6911,4.6159,4.6452,4.7957,4.7168,4.6837,4.6929,4.6837,4.6342,4.5553,4.4856,4.4544,4.4507,4.3791,4.3552,4.3662,4.3551,4.3552,4.379,4.5057,4.5149,4.4727,4.6214,4.6911,4.7223,4.5594,4.5594,4.5594,4.5594,4.5594,4.5594,4.5594,4.5594,4.5594,4.5594,4.5594,4.5594,4.5594,4.5594,4.5594,4.5594,4.5594,4.5594,4.5594,4.5594,4.5594,4.5594,4.5594,4.5594,4.5594,4.5594,4.5504,4.5322,4.5504,4.5594,4.5605,4.541,4.5322,4.5312,4.5129,4.4954,4.4812,4.4587,4.4521,4.4553,4.4154,4.3989,4.3986,4.3788,4.3629,4.357,4.4011,4.4452,4.4764,4.4323,4.4176,4.4085,4.3626,4.3515,4.3515,4.3515,4.3809,4.4176,4.4176,4.4507,4.4837,4.4837,4.4837,4.4837,4.4837,4.4837,4.48,4.4727,4.5057,4.548,4.5828,4.5902,4.5773,4.5424,4.5369,4.5094,4.4287,4.4562,4.4837,4.4837,4.5149,4.5241,4.4874,4.5168,4.5369,4.5369,4.5369,4.5718,4.6544,4.614,4.6471,4.7718,4.7003,4.7131,4.8306,4.7498,4.7333,4.7755,4.7314,4.6672,4.5883,4.5535,4.5369,4.5351,4.4984,4.4837,4.4837,4.4837,4.4837,4.4911,4.5626,4.5957,4.6122,4.6837,4.7369,4.781]}]]